     2              OBSERVATION DATA    GPS                 RINEX VERSION / TYPE
ASRINEXO V2.2.0 UX USGS 19-MAY-94 13:19                     PGM / RUN BY / DATE
                                                            COMMENT
Original Marker Name: law1                                  COMMENT
Campaign Name: usgs.socal.monit                             COMMENT
4-Character Station Name: LAW1                              COMMENT
6-Character Antenna Code: ASHL12                            COMMENT
Vertical Measurement Point: BBE                             COMMENT
Vertical Offset to Rinex Ref. Point: 0.0595                 COMMENT
Radial Measurement Point: EGP                               COMMENT
Radial Offset to Rinex Ref. Point: 0.1424                   COMMENT
Antenna Height from Field Measurement: 1.2080 m             COMMENT
Additional Antenna Identification Info.:                    COMMENT
Original Ashtech L1/L2                                      COMMENT
Original XYZ: -2336578.1700 -4754182.8000 3542769.1200      COMMENT
New XYZ position is based on association with SCEC monument COMMENT
E1F2J6T9+0011. Position of that monument is believed to be  COMMENT
valid to within 1 m horizontally; vertical accuracy         COMMENT
should be no worse than 3-times this value.                 COMMENT
                                                            COMMENT
Revised Rinex header created by UCSD GPS archive for        COMMENT
GSAC on 11-Nov-1999 (1999:315) 00:26:28 GMT                 COMMENT
For assistance contact dagnew@ucsd.edu or hjohnson@ucsd.edu COMMENT
                                                            COMMENT
LAW1                                                        MARKER NAME
                                                            MARKER NUMBER
CHS US GEOLOGICAL SURVEY                                    OBSERVER / AGENCY
763 ASHTECH L-XII 7A                                        REC # / TYPE / VERS
718 ASHTECH GEODETIC L                                      ANT # / TYPE
 -2354302.0000 -4703862.0000  3596685.0000                  APPROX POSITION XYZ
        1.1401        0.0000        0.0000                  ANTENNA: DELTA H/E/N
     1     2     0                                          WAVELENGTH FACT L1/2
     3    C1    L1    L2                                    # / TYPES OF OBSERV
    30                                                      INTERVAL
  1994     5    15    14    26    0.000000                  TIME OF FIRST OBS
  1994     5    15    21    45    0.000000                  TIME OF LAST OBS
                                                            END OF HEADER
 94  5 15 14 26  0.0000000  0  1 14
  23432622.703   -26246512.34315    288476.648 1
 94  5 15 14 26 30.0000000  0  3 18 22 14
  20275806.141    11304655.91119    -33682.927
  23650704.358     2623342.23116    210875.692
  23455374.312   -26126966.837 5    381628.940 1
 94  5 15 14 27  0.0000000  0  4 18 19 22 14
  20572468.706    11288195.749 9    -46507.254
  21755760.840    17026825.52817    -77392.936 2
  23971275.162     2732553.350 5    295975.131 1
  23777953.515   -26007256.804 5    474909.441 2
 94  5 15 14 27 30.0000000  0  7 31 29 18 19 28 22 14
  23845583.096     -681130.09215   -166948.172
  20936370.672    16215440.98918     83046.344 1
  20569413.911    11272165.118 9    -58992.510 1
  21749616.294    16994525.368 7   -102561.880 5
  23814343.103    -2310456.06615    -80494.129 1
  23992113.465     2842033.948 6    381284.655 2
  23800770.599   -25887351.276 5    568342.250 2
 94  5 15 14 28  0.0000000  0  7 31 29 18 19 28 22 14
  23831990.926     -752562.002 5   -222608.411 1
  20942947.189    16250002.569 8    109984.755 3
  20566445.366    11256535.893 9    -71171.778 6
  21743514.348    16962488.391 7   -127525.749 6
  23807969.636    -2343996.128 5   -106629.206 2
  24012997.098     2951751.044 5    466778.472 3
  23823603.003   -25767309.685 4    661881.143 2
 94  5 15 14 28 30.0000000  0  7 31 29 18 19 28 22 14
  23818433.082     -823825.848 5   -278138.650 1
  20949607.558    16284987.848 8    137245.997 6
  20563540.617    11241296.952 9    -83046.269 8
  21737468.494    16930689.258 7   -152304.275 6
  23801666.439    -2377094.118 6   -132419.842 2
  24033910.620     3061684.820 6    552441.118 3
  23846469.703   -25647167.155 5    755498.671 2
 94  5 15 14 29  0.0000000  0  7 31 29 18 19 28 22 14
  23804902.429     -894926.475 5   -333541.646 2
  20956345.904    16320404.968 8    164843.735 8
  20560717.741    11226463.976 9    -94604.433 9
  21731457.205    16899113.084 7   -176909.098 7
  23795444.577    -2409783.243 5   -157891.910 2
  24054867.881     3171827.521 5    638266.557 3
  23869347.315   -25526923.332 5    849195.057 2
 94  5 15 14 29 30.0000000  0  8 31 29 18 19 28 27 22 14
  23791402.415     -965856.380 5   -388811.741 2
  20963165.762    16356258.352 8    192781.448 9
  20557980.456    11212066.372 9   -105823.347 9
  21725490.736    16867762.916 8   -201337.778 7
  23789307.945    -2442060.499 5   -183042.951 3
  23981183.002    19549502.33915   -149239.924
  24075877.577     3282191.928 5    724264.789 3
  23892254.097   -25406573.266 5    942974.308 3
 94  5 15 14 30  0.0010000  0  8 31 29 18 19 28 27 22 14
  23777946.590    -1036596.943 5   -443934.214 2
  20970075.919    16392556.571 8    221065.753 9
  20555323.696    11198111.213 9   -116697.502 9
  21719567.886    16836628.247 8   -225598.544 7
  23783242.844    -2473918.396 5   -207867.293 3
  23968863.601    19484790.880 5   -199664.653 1
  24096912.994     3392773.470 6    810432.191 3
  23915172.031   -25286116.617 5   1036836.526 3
 94  5 15 14 30 30.0010000  0  8 31 29 18 19 28 27 22 14
  23764526.141    -1107116.680 5   -498884.611 2
  20977064.141    16429284.818 8    249685.152 9
  20552750.637    11184591.079 9   -127232.656 9
  21713682.061    16805698.114 8   -249699.949 8
  23777261.594    -2505344.895 5   -232355.480 3
  23956569.742    19420190.450 5   -250002.648 2
  24117990.533     3503547.475 5    896749.580 3
  23938115.957   -25165557.858 5   1130778.371 3
 94  5 15 14 31  0.0010000  0  8 31 29 18 19 28 27 22 14
  23751148.712    -1177408.082 5   -553657.087 3
  20984133.637    16466429.013 8    278628.665 9
  20550258.312    11171483.333 9   -137446.493 9
  21707835.448    16774962.611 8   -273649.695 8
  23771363.328    -2536325.943 5   -256496.561 3
  23944301.755    19355696.727 5   -300257.463 2
  24139106.145     3614503.586 5    983208.808 3
  23961081.438   -25044912.060 6   1224788.028 4
 94  5 15 14 31 30.0010000  0  8 31 29 18 19 28 27 22 14
  23737818.110    -1247440.333 5   -608227.653 3
  20991283.597    16504006.662 8    307909.954 9
  20547842.375    11158801.928 9   -147328.087 9
  21702029.428    16744457.879 8   -297419.593 8
  23765560.305    -2566821.403 5   -280259.203 3
  23932051.396    19291333.832 5   -350410.369 2
  24160255.843     3725651.391 5   1069817.489 3
  23984051.417   -24924176.624 6   1318867.533 4
 94  5 15 14 32  0.0010000  0  8 31 29 18 19 28 27 22 14
  23724543.780    -1317196.923 5   -662583.372 3
  20998518.098    16542022.503 8    337532.687 9
  20545510.769    11146538.515 8   -156883.999 9
  21696268.676    16714192.426 8   -321003.075 8
  23759851.807    -2596833.953 5   -303645.611 3
  23919825.469    19227113.330 5   -400452.289 3
  24181442.656     3836970.207 5   1156559.390 3
  24007045.408   -24803345.680 6   1413021.427 4
 94  5 15 14 32 30.0010000  0  8 31 29 18 19 28 27 22 14
  23711318.676    -1386698.863 5   -716740.700 3
  21005834.773    16580469.902 8    367491.686 9
  20543255.970    11134691.378 9   -166115.533 9
  21690557.180    16684172.873 8   -344394.924 8
  23754229.289    -2626388.405 6   -326675.055 3
  23907640.045    19163044.823 5   -450375.798 3
  24202656.959     3948463.430 5   1243437.151 3
  24030052.411   -24682407.396 5   1507259.001 4
 94  5 15 14 33  0.0010000  0  8 31 29 18 19 28 27 22 14
  23698138.360    -1455971.868 5   -770719.613 3
  21013231.942    16619343.647 8    397782.905 9
  20541078.577    11123269.685 9   -175015.559 9
  21684897.038    16654408.671 8   -367587.800 8
  23748689.334    -2655507.261 5   -349365.068 4
  23895478.005    19099120.304 5   -500187.095 3
  24223911.855     4060131.945 6   1330451.561 3
  24053091.821   -24561367.845 5   1601575.497 4
 94  5 15 14 33 30.0010000  0  8 31 29 18 19 28 27 22 14
  23684997.228    -1525035.204 5   -824535.145 4
  21020707.447    16658635.045 8    428399.573 9
  20538990.343    11112282.935 9   -183576.658 9
  21679276.409    16624889.796 8   -390589.507 8
  23743229.514    -2684198.203 6   -371721.640 3
  23883336.410    19035330.739 5   -549893.201 3
  24245190.824     4171970.042 5   1417598.103 3
  24076144.032   -24440219.911 5   1695976.414 4
 94  5 15 14 34  0.0010000  0  8 31 29 18 19 28 27 22 14
  23671899.985    -1593892.410 5   -878190.048 4
  21028265.874    16698340.885 8    459339.195 9
  20536984.432    11101734.222 9   -191796.429 9
  21673702.218    16595602.135 8   -413411.032 8
  23737848.959    -2712456.931 6   -393741.416 3
  23871218.799    18971671.780 5   -599497.573 3
  24266509.665     4283983.493 5   1504881.309 3
  24099224.994   -24318953.589 5   1790469.571 3
 94  5 15 14 34 30.0010000  0  8 31 29 18 19 28 27 22 14
  23658828.674    -1662538.742 5   -931680.701 4
  21035904.077    16738474.593 8    490612.203 9
  20535061.413    11091630.818 9   -199669.215 9
  21668175.035    16566553.708 8   -436046.168 8
  23732560.500    -2740259.867 6   -415406.024 4
  23859131.737    18908142.459 5   -649000.905 3
  24287862.233     4396189.638 5   1592314.648 3
  24122315.668   -24197573.421 5   1885051.504 3
 94  5 15 14 35  0.0010000  0  8 31 29 18 19 28 27 22 14
  23645815.283    -1730956.178 5   -984992.954 4
  21043621.214    16779045.964 8    522226.233 9
  20533226.413    11081978.446 9   -207190.546 9
  21662691.231    16537734.496 8   -458502.701 8
  23727359.011    -2767581.669 6   -436695.727 4
  23847063.112    18844740.854 5   -698404.729 3
  24309243.461     4508587.041 5   1679896.962 3
  24145436.412   -24076091.782 4   1979712.408 3
 94  5 15 14 35 30.0010000  0  8 31 29 18 19 28 27 22 14
  23632840.415    -1799123.744 5  -1038110.490 4
  21051428.769    16820064.100 8    554188.410 9
  20531471.518    11072772.690 8   -214363.862 9
  21657247.270    16509135.844 8   -480787.354 8
  23722254.145    -2794409.908 6   -457600.869 4
  23835027.104    18781471.396 5   -747705.566 3
  24330675.024     4621187.175 5   1767637.292 3
  24168569.957   -23954502.580 4   2074457.184 3
 94  5 15 14 36  0.0010000  0  8 31 29 18 19 28 27 22 14
  23619920.499    -1867026.511 5  -1091021.711 4
  21059317.538    16861527.285 8    586497.377 9
  20529805.361    11064005.616 8   -221195.337 9
  21651851.095    16480771.577 8   -502889.367 8
  23717236.309    -2820751.665 5   -478126.896 4
  23823010.193    18718338.941 5   -796899.671 3
  24352140.704     4733988.624 5   1855534.496 3
  24191730.184   -23832822.586 4   2169272.696 3
 94  5 15 14 36 30.0010000  0  8 31 29 18 19 28 27 22 14
  23607049.390    -1934660.506 5  -1143723.469 4
  21067293.936    16903439.282 8    619156.073 9
  20528218.650    11055683.000 8   -227680.501 9
  21646497.642    16452643.524 8   -524807.329 8
  23712315.126    -2846612.652 5   -498278.301 4
  23811027.639    18655340.734 5   -845989.162 3
  24373642.119     4846982.519 5   1943581.595 3
  24214898.954   -23711058.775 4   2264153.542 2
 94  5 15 14 37  0.0010000  0  8 31 29 18 19 28 27 22 14
  23594226.427    -2002015.062 5  -1196207.500 4
  21075352.747    16945789.677 8    652156.353 9
  20526722.985    11047822.326 8   -233805.693 9
  21641193.204    16424753.963 8   -546539.446 8
  23707488.767    -2871992.641 5   -518054.911 4
  23799060.553    18592478.652 5   -894972.576 3
  24395184.995     4960167.878 6   2031777.995 3
  24238095.696   -23589202.223 5   2359106.615 2
 94  5 15 14 37 30.0010000  0  8 31 29 18 19 28 27 22 14
  23581460.575    -2069091.909 6  -1248475.110 4
  21083489.924    16988556.977 8    685481.540 9
  20525315.939    11040411.049 8   -239580.706 9
  21635928.309    16397105.837 8   -568083.439 9
  23702749.318    -2896897.632 6   -537461.397 4
  23787119.310    18529743.598 5   -943856.995 3
  24416750.296     5073517.280 5   2120102.176 3
  24261293.846   -23467263.372 5   2454123.860 2
 94  5 15 14 38  0.0010000  0  8 31 29 18 19 28 27 22 14
  23568756.030    -2135889.269 6  -1300524.981 3
  21091709.783    17031745.161 8    719134.663 9
  20523991.157    11033456.492 8   -244999.839 9
  21630716.117    16369702.708 8   -589436.509 9
  23698099.657    -2921325.462 5   -556496.028 4
  23775210.684    18467126.112 5   -992649.810 3
  24438352.381     5187004.854 5   2208533.972 3
  24284505.067   -23345263.775 5   2549188.433 2
 94  5 15 14 38 30.0010000  0  8 31 29 18 19 28 27 22 14
  23556097.233    -2202407.695 6  -1352357.493 3
  21100007.049    17075365.220 8    753124.313 9
  20522753.463    11026963.967 8   -250058.941 9
  21625545.117    16342531.985 8   -610608.500 9
  23693542.872    -2945274.163 5   -575157.417 3
  23763310.632    18404624.327 5  -1041352.502 3
  24459970.865     5300620.252 5   2297065.446 3
  24307732.987   -23223200.539 5   2644302.566 2
 94  5 15 14 39  0.0010000  0  8 31 29 18 19 28 27 22 14
  23543491.770    -2268648.333 6  -1403973.558 3
  21108393.713    17119416.357 8    787449.858 9
  20521603.849    11020923.520 8   -254765.790 9
  21620419.385    16315599.995 8   -631594.458 9
  23689076.624    -2968749.263 5   -593449.677 3
  23751446.166    18342234.606 5  -1089967.860 3
  24481606.257     5414358.817 5   2385692.852 3
  24330972.208   -23101087.471 5   2739455.587 2
 94  5 15 14 39 30.0010000  0  8 31 29 18 19 28 27 22 14
  23530933.614    -2334605.311 5  -1455368.565 3
  21116860.602    17163919.196 8    822127.402 9
  20520541.385    11015332.999 9   -259122.026 9
  21615341.560    16288913.894 8   -652388.812 9
  23684700.223    -2991755.451 5   -611376.552 4
  23739590.214    18279967.801 5  -1138487.398 3
  24503270.309     5528219.559 5   2474415.430 3
  24354220.184   -22978927.128 5   2834645.416 2
 94  5 15 14 40  0.0010000  0  8 31 29 18 19 28 27 22 14
  23518440.243    -2400284.836 5  -1506547.415 3
  21125419.556    17208889.187 8    857168.945 9
  20519562.892    11010199.088 8   -263122.492 9
  21610308.315    16262464.590 8   -672998.657 9
  23680409.084    -3014290.317 5   -628936.171 4
  23727771.076    18217830.758 5  -1186905.863 4
  24524975.613     5642221.827 5   2563248.298 3
  24377473.137   -22856717.231 5   2929873.819 2
 94  5 15 14 40 30.0010000  0  8 31 29 18 19 28 27 22 14
  23505999.515    -2465687.987 6  -1557510.846 3
  21134060.774    17254307.948 8    892560.170 9
  20518673.348    11005509.150 8   -266776.986 9
  21605320.128    16236247.613 8   -693427.457 9
  23676210.730    -3036354.246 5   -646128.867 4
  23715974.333    18155836.919 5  -1235212.732 4
  24546689.940     5756371.895 5   2652196.404 3
  24400749.443   -22734445.380 5   3025150.525 2
 94  5 15 14 41  0.0010000  0  8 31 29 18 19 28 27 22 14
  23493605.106    -2530809.325 5  -1608254.705 3
  21142789.591    17300171.701 8    928298.157 9
  20517868.345    11001269.184 8   -270080.856 9
  21600376.880    16210265.209 8   -713673.483 9
  23672107.531    -3057925.669 5   -662937.742 4
  23704202.052    18093992.483 5  -1283403.213 4
  24568451.095     5870676.725 5   2741265.077 3
  24424019.963   -22612109.678 5   3120476.985 2
 94  5 15 14 41 30.0010000  0  8 31 29 18 19 28 27 22 14
  23481259.532    -2595656.964 6  -1658785.297 3
  21151597.734    17346454.153 8    964362.382 9
  20517144.017    10997472.724 8   -273039.130 9
  21595469.008    16184487.365 8   -733760.097 9
  23668092.171    -3079006.267 5   -679364.177 4
  23692460.051    18032289.722 5  -1331483.232 4
  24590218.006     5985122.269 5   2830443.359 3
  24447314.376   -22489714.234 5   3215849.958 2
 94  5 15 14 42  0.0010000  0  8 31 29 18 19 28 27 22 14
  23468976.735    -2660240.538 6  -1709110.159 3
  21160479.955    17393135.226 8   1000737.239 9
  20516503.930    10994106.416 8   -275662.242 9
  21590600.828    16158892.886 8   -753703.848 9
  23664177.631    -3099590.076 5   -695403.544 3
  23680745.001    17970719.118 5  -1379460.311 4
  24612022.691     6099706.697 5   2919729.842 3
  24470612.058   -22367263.630 5   3311265.958 3
 94  5 15 14 42 30.0010000  0  8 31 29 18 19 28 27 22 14
  23456740.107    -2724545.164 6  -1759217.609 4
  21169438.862    17440217.353 8   1037424.596 9
  20515949.644    10991179.977 8   -277942.585 9
  21585764.396    16133494.082 8   -773495.119 9
  23660356.116    -3119678.118 6   -711056.542 4
  23669054.355    17909283.448 5  -1427332.237 4
  24633856.696     6214429.845 5   3009124.507 3
  24493927.967   -22244760.692 5   3406722.723 3
 94  5 15 14 43  0.0010000  0  8 31 29 18 19 28 27 22 14
  23444553.363    -2788576.679 6  -1809112.252 4
  21178477.635    17487713.087 8   1074434.262 9
  20515477.111    10988714.102 8   -279864.054 9
  21580970.325    16108286.054 8   -793137.726 9
  23656627.657    -3139272.178 6   -726324.645 4
  23657383.074    17847972.003 5  -1475107.374 4
  24655710.157     6329285.411 5   3098622.305 3
  24517246.214   -22122219.140 5   3502209.553 3
 94  5 15 14 43 30.0010000  0  8 31 29 18 19 28 27 22 14
  23432425.889    -2852320.803 5  -1858782.971 4
  21187597.022    17535642.997 8   1111782.242 9
  20515097.094    10986720.795 8   -281417.265 9
  21576211.570    16083285.493 8   -812618.674 9
  23652994.293    -3158364.172 6   -741201.526 4
  23645746.900    17786795.168 5  -1522777.596 4
  24677605.589     6444283.068 5   3188230.863 3
  24540572.045   -21999633.942 4   3597730.442 3
 94  5 15 14 44  0.0010000  0  8 31 29 18 19 28 27 22 14
  23420345.692    -2915783.479 5  -1908234.398 4
  21196806.976    17584028.085 8   1149484.890 9
  20514811.751    10985210.873 8   -282593.840 9
  21571492.536    16058501.438 8   -831930.909 9
  23649458.511    -3176951.889 6   -755685.452 4
  23634128.443    17725743.771 5  -1570350.110 4
  24699500.542     6559412.375 5   3277941.921 3
  24563909.599   -21877027.429 4   3693267.885 3
 94  5 15 14 44 30.0010000  0  8 31 29 18 19 28 27 22 14
  23408321.166    -2978956.510 5  -1957460.051 4
  21206098.324    17632871.276 8   1187544.520 9
  20514614.998    10984198.470 8   -283382.725 9
  21566822.280    16033944.717 8   -851066.014 9
  23646016.893    -3195037.622 6   -769778.219 4
  23622533.790    17664815.833 5  -1617826.414 4
  24721429.161     6674667.436 5   3367751.089 3
  24587232.613   -21754413.709 4   3788810.936 3
 94  5 15 14 45  0.0010000  0  8 31 29 18 19 28 27 22 14
  23396361.786    -3041821.256 5  -2006445.543 4
  21215485.095    17682184.676 8   1225970.509 9
  20514522.302    10983697.519 8   -283773.081 9
  21562194.144    16009626.897 8   -870014.970 9
  23642676.636    -3212589.404 6   -783454.960 3
  23610964.020    17604023.128 5  -1665197.317 4
  24743391.297     6790060.691 5   3457667.796 3
  24610565.910   -21631767.896 4   3884379.043 3
 94  5 15 14 45 30.0010000  0  8 31 29 18 19 28 27 22 14
  23384455.109    -3104371.725 5  -2055186.117 4
  21224955.869    17731959.347 8   1264755.974 9
  20514516.156    10983682.572 8   -283784.720 9
  21557614.514    15985541.026 8   -888783.157 9
  23639441.215    -3229617.017 6   -796723.215 3
  23599416.674    17543352.775 5  -1712472.893 4
  24765386.170     6905588.757 5   3547689.681 2
  24633922.950   -21509094.973 4   3979968.267 2
 94  5 15 14 46  0.0010000  0  8 31 29 18 19 28 27 22 14
  23372614.476    -3166619.282 6  -2103690.667 4
  21234509.505    17782167.176 8   1303878.944 9
  20514605.494    10984136.279 8   -283431.189 9
  21553068.851    15961676.289 8   -907379.054 9
  23636290.367    -3246149.439 6   -809605.616 3
  23587895.020    17482788.519 5  -1759665.792 4
  24787387.759     7021235.350 5   3637803.861 2
  24657262.452   -21386404.255 4   4075571.282 2
 94  5 15 14 46 30.0010000  0  8 31 29 18 19 28 27 22 14
  23360831.913    -3228544.527 6  -2151944.107 4
  21244141.897    17832790.395 8   1343325.593 9
  20514777.785    10985042.444 8   -282725.081 9
  21548573.073    15938036.958 8   -925799.311 9
  23633237.910    -3262186.127 5   -822101.767 3
  23576393.363    17422328.209 5  -1806777.691 4
  24809418.487     7137010.317 4   3728018.087 2
  24680610.109   -21263678.069 4   4171202.055 2
 94  5 15 14 47  0.0010000  0  8 31 29 18 19 28 27 22 14
  23349105.381    -3290130.697 5  -2199933.303 4
  21253857.810    17883840.111 8   1383104.576 9
  20515034.497    10986400.628 8   -281666.755 9
  21544119.986    15914634.646 8   -944034.864 9
  23630281.237    -3277717.169 5   -834203.856 3
  23564903.847    17361968.841 5  -1853810.947 4
  24831476.287     7252913.173 5   3818331.911 2
  24703976.173   -21140907.392 4   4266867.416 2
 94  5 15 14 47 30.0010000  0  8 31 29 18 19 28 27 22 14
  23337446.962    -3351372.780 5  -2247654.382 4
  21263656.347    17935320.435 8   1423219.104 9
  20515379.528    10988204.174 8   -280261.406 9
  21539715.765    15891483.849 8   -962074.444 9
  23627420.437    -3292750.022 5   -845917.763 4
  23553435.706    17301717.089 5  -1900760.378 4
  24853552.404     7368938.042 5   3908740.890 2
  24727359.595   -21018106.946 4   4362555.954 2
 94  5 15 14 48  0.0010000  0  8 31 29 18 19 28 27 22 14
  23325868.797    -3412263.084 6  -2295101.333 4
  21273529.142    17987231.762 8   1463669.468 9
  20515809.730    10990456.221 8   -278506.564 9
  21535357.952    15868590.962 8   -979913.050 9
  23624657.190    -3307268.541 5   -857230.895 4
  23541994.786    17241584.574 5  -1947616.832 4
  24875653.763     7485076.618 4   3999238.412 2
  24750725.150   -20895278.076 4   4458266.776 2
 94  5 15 14 48 30.0010000  0  8 31 29 18 19 28 27 22 14
  23314345.554    -3472796.167 5  -2342269.936 4
  21283494.633    18039589.861 8   1504467.965 9
  20516319.288    10993147.409 8   -276409.535 9
  21531047.566    15845944.884 8   -997559.345 9
  23621994.314    -3321256.484 5   -868130.621 4
  23530574.132    17181560.274 5  -1994388.993 4
  24897771.132     7601321.730 4   4089818.975 2
  24774099.038   -20772436.637 5   4553987.345 2
 94  5 15 14 49  0.0010000  0  8 31 29 18 19 28 27 22 14
  23302898.309    -3532992.777 6  -2389176.389 4
  21293545.235    18092394.418 8   1545614.357 9
  20516914.646    10996273.118 8   -273973.930 9
  21526780.740    15823527.581 8  -1015027.363 9
  23619432.137    -3334724.223 6   -878624.924 4
  23519173.535    17121652.646 5  -2041070.241 4
  24919907.297     7717647.039 5   4180461.972 2
  24797472.477   -20649614.409 5   4649692.818 1
 94  5 15 14 49 30.0010000  0  8 31 29 18 19 28 27 22 14
  23291498.761    -3592853.428 6  -2435820.991 4
  21303679.689    18145652.564 8   1587114.182 9
  20517596.613    10999856.239 8   -271181.895 9
  21522560.591    15801337.814 8  -1032318.082 9
  23616968.533    -3347665.612 6   -888709.138 4
  23507802.557    17061895.912 5  -2087633.912 4
  24942070.534     7834063.350 5   4271175.983 2
  24820843.338   -20526799.633 5   4745392.645 1
 94  5 15 14 50  0.0010000  0  8 31 29 18 19 28 27 22 14
  23280175.600    -3652384.953 6  -2482209.180 4
  21313898.415    18199354.091 8   1628959.521 9
  20518367.650    11003907.359 8   -268025.167 9
  21518377.167    15779356.760 8  -1049446.165 9
  23614610.905    -3360080.536 6   -898383.125 4
  23496458.380    17002289.703 5  -2134080.282 4
  24964242.704     7950569.039 4   4361959.609 2
  24844219.205   -20403995.091 5   4841084.401 1
 94  5 15 14 50 30.0010000  0  8 31 29 18 19 28 27 22 14
  23268913.057    -3711592.819 6  -2528345.147 4
  21324197.935    18253485.422 8   1671139.752 9
  20519229.463    11008442.189 8   -264491.547 9
  21514235.055    15757581.365 8  -1066413.987 9
  23612346.842    -3371982.087 6   -907657.047 4
  23485147.721    16942829.062 6  -2180413.236 4
  24986426.477     8067160.702 5   4452810.198 2
  24867582.901   -20281206.599 5   4936763.656 1
 94  5 15 14 51  0.0010000  0  8 31 29 18 19 28 27 22 14
  23257695.962    -3770485.689 6  -2574235.660 4
  21334574.711    18308017.459 8   1713632.236 9
  20520190.688    11013474.261 8   -260570.459 9
  21510126.219    15736009.788 8  -1083223.010 9
  23610175.685    -3383387.671 6   -916544.493 4
  23473860.594    16883520.319 5  -2226627.817 4
  25008629.016     8183833.624 5   4543724.086 2
  24890947.406   -20158433.025 4   5032431.363 2
 94  5 15 14 51 30.0010000  0  8 31 29 18 19 28 27 22 14
  23246559.122    -3829052.166 6  -2619871.834 4
  21345028.834    18362945.957 8   1756433.650 9
  20521241.550    11019005.178 8   -256260.651 9
  21506063.342    15714649.253 8  -1099867.579 9
  23608104.779    -3394285.737 6   -925036.529 4
  23462595.173    16824350.280 6  -2272734.310 4
  25030845.526     8300606.673 4   4634716.020 2
  24914306.365   -20035658.955 4   5128099.362 2
 94  5 15 14 52  0.0010000  0  8 31 29 18 19 28 27 22 14
  23235480.771    -3887277.633 6  -2665242.297 4
  21355557.965    18418278.125 8   1799549.618 9
  20522386.188    11025020.013 8   -251573.771 9
  21502039.258    15693504.019 8  -1116344.377 9
  23606128.098    -3404658.035 6   -933118.819 4
  23451359.492    16765292.828 6  -2318753.083 4
  25053086.529     8417476.594 5   4725783.478 2
  24937667.362   -19912894.768 4   5223759.657 2
 94  5 15 14 52 30.0010000  0  8 31 29 18 19 28 27 22 14
  23224462.709    -3945150.195 6  -2710337.823 4
  21366162.973    18474026.670 8   1842990.023 9
  20523621.542    11031519.089 8   -246509.565 9
  21498058.644    15672581.542 8  -1132647.613 9
  23604259.401    -3414490.380 6   -940780.397 4
  23440144.915    16706346.031 6  -2364685.638 4
  25075339.853     8534448.313 4   4816930.204 2
  24961022.724   -19790132.717 4   5319418.314 2
 94  5 15 14 53  0.0010000  0  8 31 29 18 19 28 27 22 14
  23213517.136    -4002669.152 6  -2755157.710 4
  21376857.380    18530205.308 8   1886765.568 9
  20524947.045    11038478.673 8   -241086.512 9
  21494116.853    15651872.319 8  -1148784.656 9
  23602488.377    -3423775.726 6   -948015.718 4
  23428946.828    16647505.710 6  -2410535.211 4
  25097632.151     8651519.561 5   4908154.506 2
  24984382.102   -19667380.183 4   5415069.483 2
 94  5 15 14 53 30.0010000  0  8 31 29 18 19 28 27 22 14
  23202640.936    -4059833.951 6  -2799701.686 4
  21387630.511    18586827.054 8   1930886.401 9
  20526357.209    11045893.824 8   -235308.481 9
  21490214.484    15631364.304 8  -1164764.921 9
  23600827.047    -3432515.653 6   -954826.051 4
  23417769.186    16588761.237 5  -2456310.098 4
  25119923.039     8768673.546 5   4999443.265 2
  25007741.631   -19544641.778 4   5510709.742 2
 94  5 15 14 54  0.0010000  0  8 31 29 18 19 28 27 22 14
  23191827.242    -4116640.541 6  -2843966.559 4
  21398491.303    18643892.380 8   1975352.872 9
  20527857.280    11053767.768 8   -229172.949 9
  21486345.992    15611048.715 8  -1180595.247 9
  23599262.371    -3440731.643 6   -961228.132 4
  23406604.555    16530111.311 6  -2502011.325 4
  25142209.790     8885880.042 4   5090772.941 2
  25031105.446   -19421928.047 4   5606330.744 2
 94  5 15 14 54 30.0010000  0  6 31 29 18 19 28 27
  23181091.105    -4173087.929 6  -2887951.490 4
  21409430.460    18701389.953 8   2020156.157 9
  20529447.020    11062114.329 8   -222669.138 9
  21482520.521    15590923.471 8  -1196277.232 9
  23597797.555    -3448445.077 6   -967238.596 4
  23395471.732    16471574.905 6  -2547624.093 4
 94  5 15 14 55  0.0010000  0  6 31 29 18 19 28 27
  23170409.769    -4229176.896 6  -2931657.120 4
  21420456.077    18759324.207 8   2065299.700 9
  20531125.018    11070943.600 8   -215789.191 9
  21478724.968    15570990.530 8  -1211809.387 9
  23596421.447    -3455665.294 6   -972864.722 4
  23384355.637    16413164.342 6  -2593138.785 4
 94  5 15 14 55 30.0010000  0  6 31 29 18 19 28 27
  23159816.633    -4284886.772 6  -2975067.395 4
  21431563.897    18817693.392 8   2110782.178 9
  20532901.798    11080272.461 8   -208519.951 9
  21474973.185    15551263.939 8  -1227180.754 9
  23595136.087    -3462391.258 6   -978105.727 4
  23373261.068    16354894.970 6  -2638543.473 4
 94  5 15 14 56  0.0010000  0  6 31 29 18 19 28 27
  23149287.712    -4340206.043 6  -3018173.287 4
  21442752.122    18876484.315 8   2156593.272 9
  20534764.468    11090085.081 8   -200873.753 9
  21471258.877    15531758.866 8  -1242379.502 9
  23593953.346    -3468614.247 6   -982954.815 4
  23362203.223    16296766.082 6  -2683838.672 4
 94  5 15 14 56 30.0010000  0  6 31 29 18 19 28 27
  23138830.801    -4395137.241 6  -3060976.801 4
  21454020.691    18935700.948 8   2202736.073 9
  20536726.850    11100386.309 8   -192846.841 9
  21467590.406    15512482.912 8  -1257399.722 9
  23592873.254    -3474310.677 6   -987393.606 4
  23351167.983    16238784.053 6  -2729019.435 5
 94  5 15 14 57  0.0010000  0  6 31 29 18 19 28 27
  23128453.125    -4449678.966 6  -3103476.792 4
  21465371.253    18995352.061 8   2249217.453 9
  20538781.208    11111178.697 8   -184437.186 9
  21463972.991    15493438.287 8  -1272239.683 9
  23591894.162    -3479457.021 6   -991403.727 4
  23340158.405    16180938.764 5  -2774093.688 5
 94  5 15 14 57 30.0010000  0  6 31 29 18 19 28 27
  23118152.946    -4503831.711 6  -3145673.719 4
  21476805.757    19055434.637 8   2296035.025 9
  20540925.083    11122445.359 8   -175657.961 9
  21460387.833    15474627.601 8  -1286897.362 9
  23591019.427    -3484040.891 6   -994975.566 4
  23329180.305    16123217.248 6  -2819071.473 5
 94  5 15 14 58  0.0010000  0  6 31 29 18 19 28 27
  23107914.524    -4557628.721 6  -3187593.416 4
  21488322.104    19115947.006 8   2343187.504 9
  20543157.548    11134186.448 8   -166509.071 9
  21456849.562    15456034.596 8  -1301385.410 9
  23590257.385    -3488054.226 6   -998102.832 4
  23318210.509    16065595.321 6  -2863971.652 5
 94  5 15 14 58 30.0010000  0  6 31 29 18 19 28 27
  23097745.294    -4611068.730 6  -3229234.968 4
  21499919.246    19176909.645 8   2390690.816 9
  20545489.004    11146420.775 8   -156975.838 9
  21453352.063    15437651.583 8  -1315709.844 9
  23589601.469    -3491496.893 6  -1000785.449 4
  23307266.795    16008083.885 6  -2908785.755 5
 94  5 15 14 59  0.0010000  0  6 31 29 18 19 28 27
  23087635.153    -4664146.624 6  -3270594.341 4
  21511607.524    19238325.113 8   2438547.017 9
  20547906.320    11159132.428 8   -147070.657 9
  21449892.668    15419479.304 8  -1329870.066 9
  23589051.499    -3494369.212 6  -1003023.603 4
  23296343.887    15950689.879 6  -2953508.324 5
 94  5 15 14 59 30.0010000  0  6 31 29 18 19 28 27
  23077610.483    -4716855.079 6  -3311665.842 4
  21523380.194    19300180.538 8   2486746.014 9
  20550413.065    11172314.068 8   -136799.259 9
  21446475.784    15401522.473 8  -1343862.397 9
  23588615.331    -3496690.126 6  -1004832.080 4
  23285446.941    15893416.594 6  -2998136.856 5
 94  5 15 15  0  0.0010000  0  6 31 29 18 19 28 27
  23067649.459    -4769177.957 6  -3352436.887 5
  21535229.221    19362456.738 8   2535272.894 9
  20553013.975    11185982.997 8   -126148.140 9
  21443102.759    15383778.451 8  -1357688.895 9
  23588271.919    -3498476.893 6  -1006224.405 4
  23274574.128    15836262.125 6  -3042672.786 5
 94  5 15 15  0 30.0010000  0  6 31 29 18 19 28 27
  23057774.535    -4821100.850 6  -3392896.262 5
  21547157.873    19425142.501 8   2584118.905 9
  20555707.610    11200135.420 8   -115120.284 9
  21439763.041    15366247.273 8  -1371349.568 9
  23588033.524    -3499744.364 6  -1007212.008 4
  23263717.923    15779234.754 6  -3087109.674 5
 94  5 15 15  1  0.0010000  0  6 31 29 18 19 28 27
  23047975.519    -4872594.706 6  -3433021.317 5
  21559164.741    19488244.427 8   2633289.207 9
  20558502.275    11214806.982 8   -103687.891 9
  21436474.228    15348955.843 8  -1384823.391 9
  23587897.119    -3500459.728 6  -1007769.439 4
  23252897.514    15722365.027 6  -3131423.760 5
 94  5 15 15  1 30.0010000  0  6 31 29 18 19 28 27
  23038252.799    -4923683.249 6  -3472830.535 5
  21571246.437    19551726.749 8   2682755.928 9
  20561393.174    11229997.242 8    -91851.350 9
  21433223.128    15331871.049 8  -1398136.221 9
  23587862.553    -3500658.837 6  -1007924.600 4
  23242101.208    15665615.799 6  -3175643.901 5
 94  5 15 15  2  0.0010000  0  6 31 29 18 19 28 27
  23028603.410    -4974376.023 6  -3512331.385 5
  21583404.850    19615605.964 8   2732531.919 9
  20564378.897    11245704.713 8    -79611.756 9
  21430009.233    15314990.798 8  -1411289.663 9
  23587919.663    -3500329.193 6  -1007667.733 4
  23231323.220    15608986.541 6  -3219770.615 5
 94  5 15 15  2 30.0010000  0  6 31 29 18 19 28 27
  23019036.762    -5024675.229 6  -3551525.561 5
  21595639.080    19679901.806 8   2782632.548 9
  20567467.718    11261923.101 8    -66974.054 9
  21426835.301    15298312.161 8  -1424285.985 9
  23588084.669    -3499456.186 6  -1006987.448 4
  23220568.855    15552485.761 6  -3263797.172 5
 94  5 15 15  3  0.0010000  0  6 31 29 18 19 28 27
  23009545.783    -5074567.948 6  -3590403.001 5
  21607952.156    19744626.284 8   2833067.177 9
  20570651.604    11278648.452 8    -53941.321 9
  21423701.480    15281849.546 8  -1437114.010 9
  23588357.810    -3498038.671 6  -1005882.899 4
  23209839.882    15496101.685 6  -3307732.787 5
 94  5 15 15  3 30.0010000  0  6 31 29 18 19 28 27
  23000125.824    -5124051.527 6  -3628961.607 5
  21620353.880    19809798.819 8   2883850.933 9
  20573928.096    11295865.277 8    -40525.604 9
  21420614.007    15265613.809 8  -1449765.234 9
  23588729.912    -3496076.798 6  -1004354.159 4
  23199129.467    15439819.303 6  -3351589.166 5
 94  5 15 15  4  0.0010000  0  6 31 29 18 19 28 27
  22990789.598    -5173112.950 6  -3667191.276 5
  21632842.095    19875417.065 8   2934982.009 9
  20577291.737    11313559.737 8    -26737.718 9
  21417568.296    15249607.609 8  -1462237.590 9
  23589204.544    -3493566.661 6  -1002398.197 4
  23188435.330    15383634.407 6  -3395369.582 5
 94  5 15 15  4 30.0010000  0  6 31 29 18 19 28 27
  22981531.827    -5221746.688 6  -3705087.681 5
  21645410.954    19941474.764 8   2986455.506 9
  20580749.274    11331733.049 8    -12576.715 9
  21414565.125    15233822.481 8  -1474537.680 9
  23589793.276    -3490508.084 6  -1000014.899 4
  23177765.867    15327553.151 6  -3439069.218 5
 94  5 15 15  5  0.0010000  0  6 31 29 18 19 28 27
  22972356.109    -5269963.412 6  -3742659.128 5
  21658066.363    20007960.025 8   3038262.164 9
  20584296.898    11350373.869 8      1948.595 9
  21411599.788    15218250.731 8  -1486671.518 9
  23590478.721    -3486904.687 6   -997207.039 4
  23167115.680    15271573.723 6  -3482689.545 5
 94  5 15 15  5 30.0010000  0  6 31 29 18 19 28 27
  22963260.645    -5317765.464 6  -3779907.467 5
  21670795.341    20074861.677 8   3090393.294 9
  20587935.269    11369486.034 8     16841.184 9
  21408675.013    15202877.864 8  -1498650.374 9
  23591262.919    -3482757.766 6   -993975.650 4
  23156479.972    15215706.397 6  -3526222.527 5
 94  5 15 15  6  0.0010000  0  6 31 29 18 19 28 27
  22954243.968    -5365155.270 6  -3816834.558 5
  21683605.023    20142173.062 8   3142843.691 9
  20591661.659    11389079.477 8     32108.805 9
  21405782.885    15187684.367 8  -1510489.441 9
  23592153.992    -3478063.575 6   -990317.870 4
  23145876.793    15159958.901 6  -3569662.083 5
 94  5 15 15  6 30.0010000  0  7 31  2 29 18 19 28 27
  22945300.019    -5412135.444 6  -3853442.452 5
  25312150.623      876686.31213    -45181.479
  21696491.511    20209904.468 8   3195621.379 9
  20595484.553    11409162.242 8     47757.692 9
  21402926.942    15172661.687 8  -1522195.432 9
  23593152.780    -3472815.471 6   -986228.433 4
  23135290.552    15104343.727 6  -3612998.585 5
 94  5 15 15  7  0.0010000  0  7 31  2 29 18 19 28 27
  22936445.050    -5458692.921 6  -3889721.004 5
  25296030.992      791943.444 4   -111214.539
  21709459.484    20278039.166 8   3248713.311 9
  20599399.782    11429741.069 8     63793.150 9
  21400100.589    15157809.140 8  -1533768.848 9
  23594259.254    -3467020.390 6   -981712.797 4
  23124729.913    15048844.780 6  -3656244.466 5
 94  5 15 15  7 30.0010000  0  7 31  2 29 18 19 28 27
  22927673.032    -5504805.194 6  -3925652.626 5
  25279924.013      707330.938 4   -177146.298 1
  21722500.516    20346580.527 7   3302122.144 9
  20603415.322    11450831.791 8     80227.480 9
  21397307.872    15143129.027 8  -1545207.889 9
  23595462.321    -3460674.263 6   -976767.743 4
  23114194.516    14993465.910 6  -3699396.828 5
 94  5 15 15  8  0.0010000  0  7 31  2 29 18 19 28 27
  22918981.719    -5550466.968 6  -3961233.195 5
  25263843.445      622848.182 4   -242976.903 1
  21735622.612    20415533.308 7   3355851.564 9
  20607527.905    11472437.859 8     97063.368 9
  21394546.873    15128628.963 8  -1556506.639 9
  23596778.230    -3453758.186 6   -971378.610 4
  23103674.649    14938212.844 6  -3742451.135 5
 94  5 15 15  8 30.0010000  0  7 31  2 29 18 19 28 27
  22910375.337    -5595670.506 6  -3996456.711 5
  25247792.407      538500.623 4   -308702.197 1
  21748821.904    20484883.660 7   3409890.739 8
  20611732.135    11494545.984 8    114290.469 9
  21391824.008    15114323.919 8  -1567653.428 9
  23598206.142    -3446282.886 6   -965553.714 4
  23093186.829    14883079.914 6  -3785411.822 5
 94  5 15 15  9  0.0010000  0  7 31  2 29 18 19 28 27
  22901863.480    -5640422.410 6  -4031328.312 5
  25231771.198      454291.471 4   -374319.680 1
  21762090.268    20554623.334 7   3464233.297 8
  20616034.546    11517146.791 8    131901.469 9
  21389144.793    15100232.102 8  -1578634.060 9
  23599738.681    -3438247.072 6   -959292.026 4
  23082716.818    14828054.950 6  -3828288.391 5
 94  5 15 15  9 30.0010000  0  7 31  2 29 18 19 28 27
  22893428.999    -5684736.560 6  -4065858.782 5
  25215772.204      370222.169 4   -439828.114 1
  21775440.176    20624766.745 7   3518890.475 8
  20620427.885    11540234.937 8    149892.247 9
  21386505.061    15086368.242 8  -1589437.056 9
  23601371.680    -3429642.913 6   -952587.468 4
  23072263.774    14773144.682 6  -3871075.584 5
 94  5 15 15 10  0.0010000  0  7 31  2 29 18 19 28 27
  22885079.689    -5728630.223 6  -4100061.598 5
  25199811.104      286292.961 4   -505227.400 2
  21788860.506    20695310.661 7   3573859.742 8
  20624911.941    11563799.347 8    168254.114 9
  21383911.226    15072740.115 8  -1600056.363 9
  23603111.766    -3420478.047 6   -945446.030 4
  23061833.125    14718338.542 6  -3913781.651 5
 94  5 15 15 10 30.0010000  0  7 31  2 29 18 19 28 27
  22876811.083    -5772098.439 6  -4133932.918 5
  25183866.462      202515.240 4   -570508.651 1
  21802363.068    20766254.894 7   3629140.920 8
  20629488.692    11587840.853 8    186987.742 9
  21381364.429    15059351.728 8  -1610488.878 9
  23604964.393    -3410759.028 6   -937872.767 4
  23051424.241    14663635.548 6  -3956407.345 5
 94  5 15 15 11  0.0010000  0  7 31  2 29 18 19 28 27
  22868618.295    -5815142.618 6  -4167473.827 5
  25167954.498      118889.608 4   -635671.540 1
  21815943.097    20837607.257 7   3684740.129 8
  20634153.972    11612367.766 8    206099.621 9
  21378861.702    15046186.884 8  -1620747.199 9
  23606921.258    -3400485.766 6   -929867.605 4
  23041036.432    14609040.167 6  -3998949.171 5
 94  5 15 15 11 30.0010000  0  7 31  2 29 18 19 28 27
  22860502.643    -5857760.435 6  -4200682.498 5
  25152072.722       35424.679 4   -700709.034 1
  21829598.403    20909368.661 7   3740658.072 8
  20638916.475    11637386.745 8    225594.921 9
  21376393.541    15033226.135 8  -1630846.479 9
  23608977.715    -3389670.512 6   -921440.163 4
  23030672.367    14554562.849 6  -4041399.016 5
 94  5 15 15 12  0.0010000  0  7 31  2 29 18 19 28 27
  22852475.221    -5899944.770 6  -4233553.408 5
  25136216.070      -47874.222 3   -765617.202 1
  21843332.016    20981541.568 7   3796896.691 8
  20643769.306    11662896.420 8    245472.584 9
  21373962.104    15020460.320 8  -1640793.861 9
  23611141.887    -3378313.780 6   -912590.756 4
  23020326.590    14500203.110 6  -4083757.226 5
 94  5 15 15 12 30.0010000  0  7 31  2 29 18 19 28 27
  22844540.793    -5941677.522 6  -4266072.406 5
  25120395.062     -131001.792 3   -830391.815 1
  21857145.433    21054122.703 7   3853453.391 8
  20648720.828    11688911.029 8    265743.706 9
  21371569.430    15007882.379 8  -1650594.838 9
  23613404.300    -3366405.692 6   -903311.732 4
  23010003.836    14445956.789 6  -4126027.053 5
 94  5 15 15 13  0.0010000  0  7 31  2 29 18 19 28 27
  22836679.156    -5982971.150 6  -4298249.235 5
  25104604.364     -213984.797 3   -895053.798 1
  21871030.860    21127110.379 7   3910326.876 8
  20653766.875    11715430.817 8    286408.464 9
  21369208.145    14995476.584 8  -1660261.692 9
  23615771.791    -3353955.132 6   -893609.986 4
  22999703.866    14391818.955 6  -4168212.362 5
 94  5 15 15 13 30.0010000  0  7 31  2 29 18 19 28 27
  22828902.630    -6023818.985 6  -4330078.704 5
  25088841.756     -296829.390 3   -959607.986 2
  21884998.071    21200508.358 7   3967520.084 8
  20658909.934    11742460.699 8    307470.703 9
  21366882.625    14983253.374 8  -1669786.268 9
  23618250.595    -3340951.910 6   -883477.628 4
  22989422.514    14337787.011 6  -4210315.146 5
 94  5 15 15 14  0.0010000  0  7 31  2 29 18 19 28 27
  22821217.240    -6064205.225 6  -4361548.468 5
  25073090.061     -379551.650 3  -1024066.782 2
  21899042.269    21274303.282 7   4025022.594 8
  20664150.726    11770004.301 8    328933.255 9
  21364592.990    14971216.715 8  -1679165.478 9
  23620835.496    -3327389.905 6   -872909.810 4
  22979157.680    14283851.385 6  -4252342.888 6
 94  5 15 15 14 30.0010000  0  7 31  2 29 18 19 28 27
  22813623.137    -6104118.384 6  -4392649.627 5
  25057383.634     -462151.488 4  -1088430.198 2
  21913159.525    21348488.370 7   4082829.104 8
  20669490.869    11798064.174 8    350798.075 9
  21362337.082    14959369.299 8  -1688397.232 9
  23623519.508    -3313262.894 6   -861901.738 4
  22968914.461    14230024.213 6  -4294286.113 6
 94  5 15 15 15  0.0010000  0  7 31  2 29 18 19 28 27
  22806121.341    -6143562.730 6  -4423385.457 5
  25041685.812     -544617.696 4  -1152689.485 2
  21927352.929    21423074.113 7   4140947.861 8
  20674928.115    11826634.348 8    373060.533 9
  21360121.496    14947718.600 8  -1697475.704 9
  23626311.925    -3298576.762 6   -850458.002 4
  22958693.757    14176328.159 6  -4336127.175 6
 94  5 15 15 15 30.0010000  0  7 31  2 29 18 19 28 27
  22798706.694    -6182516.441 6  -4453738.976 5
  25026030.260     -626923.343 4  -1216823.693 2
  21941619.753    21498054.344 7   4199373.974 8
  20680459.706    11855705.200 8    395713.146 9
  21357943.204    14936276.653 8  -1706391.495 9
  23629218.113    -3283332.924 6   -838579.699 4
  22948501.563    14122763.913 6  -4377865.530 6
 94  5 15 15 16  0.0010000  0  7 31  2 29 18 19 28 27
  22791387.920    -6220976.953 6  -4483708.183 5
  25010398.421     -709062.220 4  -1280827.966 2
  21955959.785    21573413.185 7   4258095.113 8
  20686082.523    11885256.178 8    418739.875 9
  21355806.253    14925043.789 8  -1715144.383 9
  23632214.239    -3267541.847 6   -826274.966 4
  22938335.751    14069331.120 6  -4419501.447 6
 94  5 15 15 16 30.0010000  0  7 31  2 29 18 19 28 27
  22784161.543    -6258956.564 6  -4513302.664 5
  24994797.432     -791035.593 4  -1344703.245 3
  21970374.047    21649165.725 7   4317123.006 8
  20691798.486    11915277.926 8    442133.429 9
  21353707.166    14914012.066 8  -1723740.526 9
  23635327.763    -3251215.817 6   -813553.374 4
  22928188.765    14016033.500 6  -4461032.062 6
 94  5 15 15 17  0.0010000  0  7 31  2 29 18 19 28 27
  22777021.926    -6296456.213 6  -4542523.146 6
  24979227.111     -872853.094 4  -1408457.079 3
  21984865.474    21725317.261 7   4376461.858 8
  20697602.168    11945779.545 8    465900.923 9
  21351643.095    14903178.512 8  -1732182.260 9
  23638533.414    -3234369.025 6   -800426.016 4
  22918075.566    13962859.028 6  -4502466.700 6
 94  5 15 15 17 30.0010000  0  7 31  2 29 18 19 28 27
  22769977.373    -6333477.669 6  -4571371.015 6
  24963682.033     -954540.444 4  -1472109.494 3
  21999435.808    21801857.578 7   4436103.630 8
  20703494.199    11976743.410 8    490028.598 9
  21349619.346    14892530.345 8  -1740479.540 9
  23641831.311    -3217008.040 6   -786897.988 5
  22907969.263    13909775.407 6  -4543830.554 6
 94  5 15 15 18  0.0010000  0  7 31  2 29 18 19 28 27
  22763018.740    -6370039.387 6  -4599860.652 6
  24948161.837    -1036110.215 5  -1535670.279 3
  22014074.763    21878796.707 7   4496056.186 8
  20709475.209    12008180.434 8    514524.974 9
  21347626.476    14882062.881 8  -1748636.000 9
  23645244.118    -3199117.570 6   -772957.341 5
  22897888.801    13856772.098 6  -4585131.811 6
 94  5 15 15 18 30.0010000  0  7 31  2 29 18 19 28 27
  22756150.795    -6406139.532 6  -4627990.608 6
  24932667.004    -1117546.548 5  -1599127.138 3
  22028798.230    21956162.938 7   4556341.524 8
  20715553.531    12040113.123 8    539407.576 9
  21345671.079    14871780.322 8  -1756648.375 9
  23648751.630    -3180683.893 6   -758593.461 4
  22887819.222    13803856.940 6  -4626364.381 6
 94  5 15 15 19  0.0010000  0  7 31  2 29 18 19 28 27
  22749372.367    -6441758.938 6  -4655745.997 5
  24917194.955    -1198821.343 4  -1662458.055 3
  22043599.973    22033954.552 7   4616958.361 8
  20721726.677    12072552.957 8    564685.357 9
  21343749.500    14861704.836 8  -1764499.403 9
  23652365.088    -3161676.674 6   -743782.665 5
  22877763.554    13751030.530 6  -4667527.803 6
 94  5 15 15 19 30.0010000  0  7 31  2 29 18 19 28 27
  22742687.895    -6476898.275 6  -4683127.263 5
  24901763.378    -1279924.252 4  -1725655.086 2
  22058480.232    22112154.716 7   4677893.509 8
  20727994.108    12105489.564 8    590350.243 9
  21341872.409    14851830.464 8  -1772193.727 9
  23656088.331    -3142071.156 6   -728505.608 5
  22867724.854    13698293.869 6  -4708621.279 6
 94  5 15 15 20  0.0010000  0  7 31  2 29 18 19 28 27
  22736088.773    -6511552.260 6  -4710130.346 5
  24886361.151    -1360836.758 5  -1788703.761 2
  22073436.758    22190748.095 7   4739135.065 7
  20734359.572    12138942.765 8    616417.658 9
  21340033.722    14842161.167 8  -1779728.233 9
  23659942.762    -3121861.910 6   -712758.156 5
  22857718.171    13645676.192 6  -4749622.055 6
 94  5 15 15 20 30.0010000  0  7 31  2 29 18 19 28 27
  22729590.292    -6545703.876 6  -4736741.988 5
  24871000.804    -1441555.191 4  -1851601.165 2
  22088460.257    22269712.326 7   4800665.592 7
  20740821.418    12172904.407 8    642881.272 9
  21338230.500    14832682.809 8  -1787113.956 9
  23663892.708    -3101071.800 6   -696558.070 4
  22847727.108    13593190.729 6  -4790519.798 6
 94  5 15 15 21  0.0010000  0  7 31  2 29 18 19 28 27
  22723189.963    -6579345.340 6  -4762956.115 5
  24855684.678    -1522094.040 4  -1914358.665 2
  22103556.636    22349024.144 7   4862466.959 7
  20747377.370    12207371.763 8    669738.930 9
  21336463.374    14823397.010 8  -1794349.648 9
  23667960.022    -3079693.656 6   -679899.782 5
  22837764.105    13540836.013 6  -4831315.664 6
 94  5 15 15 21 30.0010000  0  7 31  2 29 18 19 28 27
  22716884.308    -6612496.054 6  -4788787.821 5
  24840388.877    -1602477.833 4  -1976995.312 2
  22118710.935    22428671.235 7   4924529.582 7
  20754036.030    12242333.146 8    696981.567 9
  21334725.417    14814280.066 8  -1801453.756 9
  23672137.390    -3057763.138 6   -662811.091 5
  22827827.634    13488609.223 6  -4872011.839 6
 94  5 15 15 22  0.0010000  0  7 31  2 29 18 19 28 27
  22710670.240    -6645153.992 6  -4814235.554 5
  24825121.196    -1682701.966 4  -2039507.552 2
  22133933.886    22508673.282 7   4986868.817 7
  20760781.900    12277796.656 8    724615.442 9
  21333028.322    14805347.378 8  -1808414.302 9
  23676413.030    -3035295.030 6   -645303.489 4
  22817914.187    13436514.304 6  -4912605.259 6
 94  5 15 15 22 30.0010000  0  7 31  2 29 18 19 28 27
  22704543.681    -6677320.404 6  -4839300.297 5
  24809877.050    -1762777.974 4  -2101904.397 2
  22149227.169    22589043.893 7   5049495.227 7
  20767623.673    12313751.475 8    752632.174 9
  21331366.242    14796601.302 8  -1815229.436 9
  23680793.658    -3012282.467 6   -627371.615 5
  22808019.417    13384528.929 6  -4953113.330 6
 94  5 15 15 23  0.0010000  0  7 31  2 29 18 19 28 27
  22698519.352    -6708995.865 6  -4863982.448 5
  24794667.079    -1842700.992 4  -2164181.999 2
  22164594.261    22669793.276 7   5112416.789 7
  20774561.111    12350211.673 8    781042.704 9
  21329740.948    14788061.841 8  -1821883.547 9
  23685280.472    -2988703.246 6   -608998.197 5
  22798144.853    13332651.568 6  -4993537.214 6
 94  5 15 15 23 30.0010000  0  8 31  2 29 18 19 28 27 16
  22692584.571    -6740185.603 6  -4888286.137 5
  24779490.356    -1922458.636 4  -2226330.756 2
  22180036.900    22750926.625 7   5175637.553 7
  20781592.803    12387173.377 8    809844.009 9
  21328153.846    14779726.346 8  -1828378.741 9
  23689872.782    -2964569.556 6   -590192.783 4
  22788297.750    13280882.352 6  -5033876.860 6
  25267253.135    -2258846.86815  -1799313.360 2
 94  5 15 15 24  0.0010000  0  8 31  2 29 18 19 28 27 16
  22686741.406    -6770882.571 6  -4912205.866 5
  24764344.031    -2002043.406 4  -2288344.818 2
  22195547.472    22832445.767 7   5239158.939 7
  20788724.715    12424633.905 8    839034.023 9
  21326607.907    14771599.686 8  -1834711.211 9
  23694574.487    -2939865.913 6   -570943.189 4
  22778466.026    13229218.390 6  -5074134.476 6
  25256640.811    -2314641.596 5  -1842789.710 2
 94  5 15 15 24 30.0010000  0  8 31  2 29 18 19 28 27 16
  22680995.374    -6801083.073 6  -4935738.695 5
  24749242.586    -2081445.384 4  -2350216.420 2
  22211130.774    22914341.882 7   5302974.053 7
  20795948.035    12462604.699 8    868621.631 9
  21325099.891    14763672.844 8  -1840887.967 9
  23699386.276    -2914591.428 6   -551248.787 5
  22768659.815    13177668.457 6  -5114303.240 6
  25246105.025    -2370028.087 5  -1885947.971 2
 94  5 15 15 25  0.0010000  0  8 31  2 29 18 19 28 27 16
  22675341.917    -6830788.355 6  -4958885.647 5
  24734168.332    -2160653.537 4  -2411936.997 2
  22226785.067    22996607.606 7   5367077.173 7
  20803267.917    12501072.344 8    898596.423 9
  21323627.580    14755934.447 8  -1846917.896 9
  23704298.316    -2888770.952 6   -531128.951 5
  22758869.283    13126224.898 6  -5154389.100 6
  25235638.941    -2425007.328 5  -1928788.929 2
 94  5 15 15 25 30.0010000  0  8 31  2 29 18 19 28 27 16
  22669789.641    -6859994.357 6  -4981643.572 5
  24719131.911    -2239665.223 4  -2473504.536 2
  22242517.306    23079256.433 7   5431478.826 7
  20810682.384    12540021.399 8    928946.306 9
  21322185.818    14748375.447 8  -1852808.025 9
  23709313.274    -2862422.680 6   -510597.834 4
  22749096.348    13074883.192 6  -5194395.600 6
  25225244.716    -2479575.821 5  -1971309.770 2
 94  5 15 15 26  0.0010000  0  8 31  2 29 18 19 28 27 16
  22664321.157    -6888705.018 6  -5004015.502 5
  24704128.678    -2318490.520 4  -2534926.751 2
  22258316.128    23162290.762 7   5496180.849 7
  20818183.312    12579443.003 8    959664.421 9
  21320782.220    14740976.980 8  -1858573.060 9
  23714423.836    -2835564.908 6   -489669.697 4
  22739344.999    13023628.376 6  -5234334.410 6
  25214947.805    -2533727.666 5  -2013506.021 2
 94  5 15 15 26 30.0010000  0  8 31  2 29 18 19 28 27 16
  22658956.191    -6916908.270 6  -5025992.048 5
  24689168.704    -2397136.414 4  -2596209.225 2
  22274188.790    23245715.795 7   5561187.334 7
  20825771.868    12619336.509 8    990750.262 9
  21319401.046    14733742.788 8  -1864210.096 9
  23719625.715    -2808205.200 6   -468350.436 5
  22729607.200    12972458.734 6  -5274206.836 6
  25204725.482    -2587455.129 5  -2055371.525 2
 94  5 15 15 27  0.0010000  0  8 31  2 29 18 19 28 27 16
  22653685.810    -6944591.724 6  -5047563.571 5
  24674235.262    -2475612.014 5  -2657358.966 2
  22290140.807    23329538.870 7   5626503.991 7
  20833455.939    12659698.773 8   1022201.346 9
  21318058.755    14726691.009 8  -1869704.995 9
  23724933.900    -2780325.044 6   -446625.705 4
  22719881.513    12921369.310 6  -5314016.781 6
  25194567.194    -2640746.163 4  -2096897.038 3
 94  5 15 15 27 30.0010000  0  8 31  2 29 18 19 28 27 16
  22648518.257    -6971752.344 6  -5068727.681 6
  24659327.033    -2553933.487 5  -2718388.655 2
  22306166.782    23413751.812 7   5692124.427 7
  20841230.187    12700550.165 8   1054033.588 9
  21316754.598    14719832.303 8  -1875049.441 9
  23730334.901    -2751907.350 6   -424482.026 5
  22710181.339    12870375.198 6  -5353752.424 6
  25184534.639    -2693597.555 5  -2138079.919 3
 94  5 15 15 28  0.0010000  0  8 31  2 29 18 19 28 27 16
  22643450.805    -6998383.753 6  -5089479.424 6
  24644457.717    -2632088.964 5  -2779288.954 2
  22322263.718    23498340.002 7   5758037.247 7
  20849100.488    12741911.231 8   1086262.968 9
  21315489.744    14713184.585 8  -1880229.474 9
  23735855.879    -2722925.183 6   -401898.510 5
  22700497.862    12819489.558 6  -5393403.563 6
  25174545.915    -2746003.729 5  -2178915.873 3
 94  5 15 15 28 30.0010000  0  8 31  2 29 18 19 28 27 16
  22638479.617    -7024488.202 6  -5109820.527 6
  24629619.909    -2710086.728 5  -2840066.390 2
  22338423.701    23583272.719 7   5824218.561 7
  20857070.291    12783787.591 8   1118893.890 9
  21314267.370    14706758.677 8  -1885236.695 9
  23741481.275    -2693352.287 6   -378854.705 5
  22690835.102    12768720.053 6  -5432964.189 6
  25164668.832    -2797978.499 4  -2219415.748 3
 94  5 15 15 29  0.0010000  0  8 31  2 29 18 19 28 27 16
  22633611.946    -7050081.998 6  -5129763.749 6
  24614802.457    -2787920.188 5  -2900715.805 2
  22354651.617    23668533.212 7   5890655.269 7
  20865137.946    12826179.914 8   1151926.852 9
  21313086.187    14700547.951 8  -1890076.211 9
  23747225.358    -2663189.306 6   -355351.102 5
  22681194.975    12718068.465 6  -5472432.939 6
  25154862.951    -2849521.848 4  -2259579.341 3
 94  5 15 15 29 30.0010000  0  8 31  2 29 18 19 28 27 16
  22628841.109    -7075163.152 6  -5149307.497 6
  24600020.800    -2865585.934 5  -2961234.506 2
  22370935.294    23754116.419 7   5957343.414 6
  20873301.534    12869079.205 8   1185354.843 9
  21311941.790    14694534.055 8  -1894762.364 9
  23753070.831    -2632453.120 6   -331400.831 5
  22671583.449    12667541.878 6  -5511804.309 6
  25145122.904    -2900641.491 4  -2299412.804 3
 94  5 15 15 30  0.0010000  0  8 31  2 29 18 19 28 27 16
  22624165.006    -7099734.501 6  -5168453.986 6
  24585274.579    -2943080.314 5  -3021619.701 2
  22387285.315    23840025.218 7   6024285.294 6
  20881552.572    12912460.364 8   1219158.332 9
  21310828.540    14688695.455 8  -1899311.927 9
  23759033.673    -2601150.984 6   -307009.549 5
  22661990.600    12617138.129 7  -5551079.925 6
  25135487.394    -2951341.813 5  -2338919.527 3
 94  5 15 15 30 30.0010000  0  8 31  2 29 18 19 28 27 16
  22619586.936    -7123787.741 6  -5187196.774 6
  24570561.424    -3020413.564 5  -3081879.333 3
  22403695.534    23926273.359 7   6091491.576 7
  20889899.034    12956316.573 8   1253331.987 9
  21309750.247    14683029.773 8  -1903726.748 9
  23765089.931    -2569295.364 6   -282187.011 5
  22652422.065    12566857.776 7  -5590259.428 6
  25125903.119    -3001623.226 4  -2378099.826 3
 94  5 15 15 31  0.0010000  0  8 31  2 29 18 19 28 27 16
  22615113.703    -7147311.497 7  -5205526.976 6
  24555878.849    -3097579.195 5  -3142008.343 3
  22420177.974    24012891.394 7   6158986.105 6
  20898332.795    13000635.570 8   1287866.242 9
  21308705.050    14677524.599 8  -1908016.483 9
  23771254.653    -2536910.763 6   -256952.252 5
  22642875.713    12516696.107 7  -5629346.428 6
  25116426.050    -3051482.487 4  -2416951.192 3
 94  5 15 15 31 30.0010000  0  8 31  2 29 18 19 28 27 16
  22610738.951    -7170289.971 6  -5223432.260 6
  24541223.105    -3174575.607 5  -3202005.489 3
  22436736.531    24099891.499 7   6226778.366 7
  20906855.505    13045417.918 8   1322761.567 9
  21307685.216    14672173.782 8  -1912185.948 9
  23777515.129    -2503990.768 6   -231300.315 5
  22633355.474    12466650.329 7  -5668343.126 6
  25107013.256    -3100922.163 5  -2455475.588 3
 94  5 15 15 32  0.0010000  0  8 31  2 29 18 19 28 27 16
  22606470.206    -7192717.655 6  -5240908.365 6
  24526610.471    -3251381.474 5  -3261854.200 3
  22453366.858    24187285.181 7   6294877.305 7
  20915471.121    13090690.045 8   1358038.517 9
  21306701.148    14666992.771 8  -1916223.107 9
  23783890.725    -2470528.682 6   -205225.961 5
  22623855.291    12416725.119 7  -5707245.867 6
  25097687.492    -3149936.691 4  -2493668.672 3
 94  5 15 15 32 30.0010000  0  8 31  2 29 18 19 28 27 16
  22602312.085    -7214592.616 6  -5257953.793 6
  24512031.264    -3327988.180 5  -3321547.663 3
  22470072.972    24275075.264 7   6363285.140 6
  20924182.280    13136470.194 8   1393711.345 9
  21305750.656    14661997.669 8  -1920115.405 9
  23790356.379    -2436531.476 6   -178734.655 5
  22614373.065    12366910.905 7  -5746062.135 6
  25088436.167    -3198528.596 4  -2531532.472 2
 94  5 15 15 33  0.0010000  0  8 31  2 29 18 19 28 27 16
  22598248.518    -7235917.962 6  -5274570.952 6
  24497493.398    -3404382.331 5  -3381075.557 3
  22486853.046    24363253.028 7   6431995.060 6
  20932991.741    13182760.239 8   1429781.485 9
  21304834.820    14657181.436 8  -1923868.313 9
  23796920.575    -2402004.808 6   -151830.758 5
  22604916.382    12317196.343 7  -5784800.737 6
  25079281.135    -3246677.327 4  -2569050.936 2
 94  5 15 15 33 30.0010000  0  8 31  2 29 18 19 28 27 16
  22594292.787    -7256710.324 6  -5290772.770 6
  24482996.274    -3480556.037 5  -3440431.645 3
  22503699.973    24451794.750 7   6500988.549 6
  20941898.425    13229575.015 8   1466260.528 9
  21303953.940    14652562.343 8  -1927467.618 9
  23803598.422    -2366945.066 6   -124511.500 5
  22595474.658    12267580.877 7  -5823462.138 6
  25070190.109    -3294372.674 4  -2606216.126 2
 94  5 15 15 34  0.0010000  0  8 31  2 29 18 19 28 27 16
  22590433.049    -7276982.498 6  -5306569.268 6
  24468542.770    -3556515.856 5  -3499621.066 3
  22520620.019    24540688.122 7   6570256.055 6
  20950905.690    13276906.752 8   1503142.370 9
  21303116.709    14648159.239 8  -1930898.600 9
  23810368.755    -2331364.725 6    -96786.560 5
  22586051.762    12218062.577 7  -5862047.816 6
  25061212.224    -3341614.283 5  -2643027.696 2
 94  5 15 15 34 30.0010000  0  8 31  2 29 18 19 28 27 16
  22586674.910    -7296744.539 6  -5321968.260 6
  24454131.057    -3632283.418 5  -3558660.656 3
  22537597.086    24629917.922 7   6639785.724 6
  20960005.440    13324724.770 8   1540403.134 9
  21302321.150    14643970.170 8  -1934162.824 9
  23817238.619    -2295261.399 6    -68654.121 5
  22576640.647    12168632.239 6  -5900564.957 6
  25052313.484    -3388386.340 5  -2679473.416 2
 94  5 15 15 35  0.0010000  0  8 31  2 29 18 19 28 27 16
  22583011.716    -7315986.813 6  -5336962.219 6
  24439745.696    -3707859.402 5  -3617551.017 3
  22554637.619    24719472.120 7   6709568.163 6
  20969194.049    13373017.281 8   1578033.660 9
  21301562.645    14639994.093 8  -1937261.070 9
  23824213.680    -2258625.830 6    -40106.942 5
  22567254.385    12119303.541 7  -5939002.894 6
  25043502.764    -3434688.004 4  -2715552.650 2
 94  5 15 15 35 30.0010000  0  8 31  2 29 18 19 28 27 16
  22579455.069    -7334706.687 6  -5351549.147 6
  24425392.982    -3783242.117 5  -3676290.763 3
  22571741.678    24809352.609 7   6779604.863 6
  20978473.855    13421780.792 8   1616031.167 9
  21300849.499    14636242.066 8  -1940184.726 9
  23831285.664    -2221439.362 6    -11130.495 5
  22557893.605    12070107.357 7  -5977337.576 6
  25034780.812    -3480533.821 5  -2751276.604 2
 94  5 15 15 36  0.0010000  0  8 31  2 29 18 19 28 27 16
  22575992.316    -7352885.823 6  -5365714.698 6
  24411093.901    -3858448.899 5  -3734893.371 3
  22588909.264    24899562.081 7   6849897.911 6
  20987841.799    13471004.246 8   1654387.100 9
  21300169.689    14632686.193 8  -1942955.528 9
  23838467.912    -2183698.341 6     18278.074 5
  22548557.888    12021042.963 6  -6015569.556 7
  25026142.502    -3525928.952 4  -2786649.432 2
 94  5 15 15 36 30.0010000  0  8 31  2 29 18 19 28 27 16
  22572639.677    -7370502.912 6  -5379442.279 6
  24396808.131    -3933466.766 5  -3793348.835 3
  22606137.587    24990103.880 7   6920449.930 6
  20997296.744    13520696.883 8   1693108.613 9
  21299528.613    14629311.775 8  -1945584.956 9
  23845759.045    -2145387.002 6     48131.055 5
  22539250.681    11972118.618 7  -6053692.428 7
  25017582.438    -3570864.351 5  -2821664.024 2
 94  5 15 15 37  0.0010000  0  8 31  2 29 18 19 28 27 16
  22569396.672    -7387553.252 6  -5392728.265 6
  24382575.095    -4008282.547 5  -3851646.820 3
  22623431.384    25080981.359 7   6991263.505 6
  21006848.012    13570875.602 8   1732208.889 9
  21298919.945    14626120.242 8  -1948071.859 9
  23853153.156    -2106508.704 6     78425.814 4
  22529964.550    11923347.760 6  -6091695.686 7
  25009123.914    -3615347.717 5  -2856326.427 2
 94  5 15 15 37 30.0010000  0  8 31  2 29 18 19 28 27 16
  22566259.044    -7404040.573 6  -5405575.523 6
  24368374.076    -4082903.164 5  -3909792.706 3
  22640787.059    25172195.054 7   7062339.073 6
  21016487.568    13621534.971 8   1771683.707 9
  21298346.891    14623103.401 8  -1950422.640 9
  23860660.439    -2067073.936 6    109154.169 4
  22520712.175    11874706.905 7  -6129597.639 7
  25000754.338    -3659372.672 4  -2890631.549 2
 94  5 15 15 38  0.0010000  0  8 31  2 29 18 19 28 27 16
  22563227.513    -7419959.746 7  -5417980.058 6
  24354212.510    -4157336.103 5  -3967792.348 3
  22658206.350    25263741.790 7   7133674.153 6
  21026219.251    13672672.431 8   1811531.053 9
  21297807.804    14620257.839 8  -1952639.959 9
  23868272.469    -2027093.840 5    140307.486 4
  22511473.351    11826166.333 6  -6167421.456 7
  24992456.982    -3702931.254 5  -2924573.280 2
 94  5 15 15 38 30.0010000  0  8 31  2 29 18 19 28 27 16
  22560303.637    -7435326.069 6  -5429953.814 6
  24340081.312    -4231569.496 5  -4025636.546 3
  22675692.974    25355614.333 7   7205263.102 6
  21036037.724    13724276.829 8   1851742.260 9
  21297300.466    14617606.451 8  -1954705.962 9
  23875979.024    -1986573.032 6    171882.105 4
  22502255.243    11777729.307 6  -6205164.584 7
  24984263.564    -3746026.659 5  -2958154.153 2
 94  5 15 15 39  0.0010000  0  8 31  2 29 18 19 28 27 16
  22557484.299    -7450143.121 6  -5441499.573 6
  24325996.673    -4305608.336 5  -4083329.107 3
  22693239.467    25447819.003 7   7277110.844 6
  21045949.582    13776363.028 8   1892328.884 9
  21296837.796    14615163.663 8  -1956609.444 9
  23883794.913    -1945515.001 6    203875.358 4
  22493054.582    11729390.441 6  -6242831.214 7
  24976150.821    -3788654.041 5  -2991370.300 2
 94  5 15 15 39 30.0010000  0  8 31  2 29 18 19 28 27 16
  22554767.669    -7464405.431 6  -5452613.036 6
  24311943.662    -4379467.736 5  -4140881.824 3
  22710844.689    25540351.690 7   7349214.194 6
  21055952.517    13828925.590 8   1933286.700 9
  21296410.232    14612918.905 8  -1958358.597 9
  23891711.742    -1903916.374 6    236289.865 4
  22483879.164    11681139.171 7  -6280429.612 7
  24968124.687    -3830813.254 5  -3024221.593 2
 94  5 15 15 40  0.0010000  0  8 31  2 29 18 19 28 27 16
  22552161.034    -7478109.378 6  -5463291.431 6
  24297920.240    -4453150.235 5  -4198296.724 3
  22728517.575    25633211.431 7   7421572.384 6
  21066048.298    13881979.360 8   1974627.273 9
  21296019.932    14610872.878 8  -1959952.911 9
  23899728.133    -1861770.778 5    269130.576 4
  22474715.348    11632997.691 7  -6317942.444 7
  24960188.701    -3872501.705 5  -3056706.059 2
 94  5 15 15 40 30.0010000  0  8 31  2 29 18 19 28 27 16
  22549662.444    -7491246.622 6  -5473528.253 6
  24283937.650    -4526652.499 5  -4255571.195 3
  22746249.939    25726408.814 7   7494193.699 6
  21076241.182    13935536.882 8   2016360.397 9
  21295670.674     2510218.12618      -747.796
  23907850.350    -1819077.383 6    302398.144 4
  22465576.715    11584979.566 7  -6355359.154 7
  24952335.218    -3913717.473 4  -3088822.258 2
 94  5 15 15 41  0.0020000  0  8 31  2 29 18 19 28 27 16
  22547268.661    -7503807.432 6  -5483315.886 6
  24269978.983    -4599982.149 5  -4312711.139 3
  22764053.594    25819956.173 7   7567087.688 6
  21086527.751    13989606.637 8   2058492.659 9
  21295351.425     2508551.603 8     -2049.988 1
  23916077.224    -1775843.126 6    336087.145 4
  22456463.504    11537072.780 7  -6392689.113 7
  24944594.696    -3954461.760 4  -3120571.008 3
 94  5 15 15 41 30.0020000  0  8 31  2 29 18 19 28 27 16
  22544994.105    -7515784.672 7  -5492648.793 6
  24256061.118    -4673115.776 5  -4369698.347 3
  22781921.374    25913847.655 7   7640249.835 6
  21096911.212    14044165.241 8   2101005.826 9
  21295067.462     2507056.676 8     -3214.979 5
  23924411.515    -1732067.797 6    370197.792 4
  22447364.473    11489287.486 7  -6429924.394 7
  24936927.924    -3994735.197 5  -3151952.851 3
 94  5 15 15 42  0.0020000  0  8 31  2 29 18 19 28 27 16
  22542821.749    -7527194.760 7  -5501539.757 6
  24242186.693    -4746043.689 5  -4426525.253 3
  22799852.620    26008079.492 7   7713677.213 6
  21107384.072    14099208.416 8   2143896.592 9
  21294815.306     2505730.342 8     -4248.472 7
  23932842.098    -1687760.555 6    404722.895 4
  22438299.259    11441609.575 7  -6467076.003 7
  24929349.530    -4034558.738 5  -3182984.113 3
 94  5 15 15 42 30.0020000  0  8 31  2 29 18 19 28 27 16
  22540756.269    -7538053.446 7  -5510001.067 6
  24228348.903    -4818757.747 5  -4483185.540 3
  22817847.273    26102651.558 6   7787369.672 6
  21117949.718    14154724.665 8   2187155.976 9
  21294593.250     2504564.928 8     -5156.600 8
  23941372.753    -1642939.575 6    439648.321 4
  22429236.293    11394017.214 7  -6504160.954 7
  24921845.875    -4073951.066 5  -3213679.431 3
 94  5 15 15 43  0.0020000  0  8 31  2 29 18 19 28 27 16
  22538792.449    -7548372.148 7  -5518041.617 6
  24214548.287    -4891252.690 5  -4539675.063 3
  22835909.289    26197553.775 7   7861319.412 6
  21128602.633    14210707.401 8   2230778.875 9
  21294399.764     2503555.616 8     -5943.078 9
  23949999.430    -1597607.291 6    474972.141 4
  22420200.518    11346508.303 7  -6541180.883 7
  24914439.442    -4112905.044 5  -3244033.169 3
 94  5 15 15 43 30.0020000  0  8 31  2 29 18 19 28 27 16
  22536932.057    -7558144.077 6  -5525656.100 6
  24200799.625    -4963518.523 5  -4595986.071 3
  22854025.178    26292784.411 6   7935525.047 6
  21139346.265    14267169.601 8   2274775.362 9
  21294240.514     2502718.787 8     -6595.157 9
  23958723.901    -1551755.984 5    510700.434 4
  22411177.005    11299100.995 7  -6578121.651 7
  24907112.964    -4151400.820 4  -3274029.882 3
 94  5 15 15 44  0.0020000  0  8 31  2 29 18 19 28 27 16
  22535177.401    -7567366.393 7  -5532842.314 6
  24187083.850    -5035568.625 5  -4652128.970 3
  22872214.515    26388350.582 7   8009992.157 6
  21150185.231    14324125.854 8   2319156.814 9
  21294120.177     2502068.973 8     -7101.519 9
  23967543.975    -1505379.817 5    546837.664 4
  22402176.846    11251805.659 7  -6614975.128 7
  24899876.664    -4189424.412 5  -3303658.636 3
 94  5 15 15 44 30.0020000  0  8 31  2 29 18 19 28 27 16
  22533520.868    -7576034.614 6  -5539596.769 6
  24173412.535    -5107411.704 5  -4708110.561 3
  22890461.233    26484242.907 6   8084713.395 6
  21161115.784    14381565.715 8   2363915.149 9
  21294029.400     2501605.746 8     -7462.462 9
  23976472.693    -1458485.244 6    583378.860 4
  22393199.501    11204632.612 7  -6651733.354 7
  24892735.428    -4226956.913 5  -3332904.723 3
 94  5 15 15 45  0.0020000  0  8 31  2 29 18 19 28 27 16
  22531985.871    -7584133.730 6  -5545907.727 6
  24159783.610    -5179048.692 5  -4763931.560 3
  22908766.621    26580443.718 6   8159675.025 6
  21172139.123    14439482.661 8   2409045.195 9
  21293979.035     2501342.240 8     -7667.786 9
  23985493.119    -1411063.005 6    620331.250 4
  22384247.218    11157598.043 7  -6688383.658 7
  24885692.254    -4263986.334 5  -3361758.771 3
 94  5 15 15 45 30.0020000  0  8 31  2 29 18 19 28 27 16
  22530550.524    -7591669.071 6  -5551779.452 6
  24146190.390    -5250479.829 5  -4819592.165 3
  22927131.727    26676933.287 6   8234861.657 6
  21183245.414    14497863.521 7   2454536.751 9
  21293969.112     2501283.198 8     -7713.799 9
  23994624.077    -1363112.599 6    657695.163 4
  22375329.921    11110701.356 7  -6724926.517 8
  24878735.360    -4300537.940 5  -3390240.539 3
 94  5 15 15 46  0.0020000  0  8 31  2 29 18 19 28 27 16
  22529224.213    -7598639.463 6  -5557210.902 6
  24132640.760    -5321705.168 5  -4875092.392 3
  22945548.907    26773709.319 7   8310271.493 6
  21194444.971    14556698.188 7   2500381.922 9
  21293995.943     2501429.359 8     -7599.923 9
  24003843.745    -1314629.460 5    695474.178 4
  22366424.167    11063933.738 7  -6761368.806 8
  24871877.098    -4336622.684 5  -3418358.556 3
 94  5 15 15 46 30.0020000  0  8 31  2 29 18 19 28 27 16
  22528003.068    -7605043.115 6  -5562200.763 6
  24119125.727    -5392714.175 5  -4930424.065 3
  22964010.666    26870753.363 6   8385890.173 6
  21205722.864    14615979.547 7   2546575.136 9
  21294059.949     2501776.294 8     -7329.574 9
  24013171.637    -1265630.645 5    733655.050 4
  22357546.233    11017285.188 7  -6797718.338 8
  24865086.589    -4372248.549 5  -3446118.927 3
 94  5 15 15 47  0.0020000  0  8 31  2 29 18 19 28 27 16
  22526897.074    -7610881.581 6  -5566750.215 6
  24105655.752    -5463507.700 5  -4985587.829 3
  22982532.324    26968066.063 6   8461718.232 6
  21217088.835    14675711.852 7   2593119.761 9
  21294168.324     2502328.120 8     -6899.581 9
  24022594.384    -1216108.890 5    772243.404 4
  22348689.644    10970744.553 7  -6833983.745 8
  24858400.018    -4407416.987 5  -3473522.902 3
 94  5 15 15 47 30.0020000  0  8 31  2 29 18 19 28 27 16
  22525892.919    -7616154.107 7  -5570858.671 6
  24092222.531    -5534095.385 5  -5040591.194 3
  23001103.657    27065662.867 6   8537767.642 6
  21228542.436    14735893.224 7   2640014.312 9
  21294312.974     2503073.712 8     -6318.608 9
  24032116.962    -1166062.862 5    811240.304 4
  22339850.114    10924289.379 7  -6870182.565 8
  24851795.680    -4442119.048 5  -3500563.487 3
 94  5 15 15 48  0.0020000  0  8 31  2 29 18 19 28 27 16
  22524997.079    -7620849.993 6  -5574517.806 6
  24078832.871    -5604486.166 5  -5095441.110 4
  23019732.401    27163561.972 6   8614052.607 6
  21240081.328    14796529.597 8   2687263.408 9
  21294484.455     2504002.138 8     -5595.163 9
  24041736.912    -1115505.880 5    850635.314 4
  22331026.952    10877915.634 7  -6906317.953 8
  24845279.751    -4476331.734 5  -3527222.720 3
 94  5 15 15 48 30.0020000  0  8 31  2 29 18 19 28 27 16
  22524215.220    -7624961.005 6  -5577721.184 6
  24065474.868    -5674663.191 5  -5150124.490 4
  23038422.152    27261771.102 6   8690579.163 6
  21251710.457    14857637.561 8   2734879.977 9
  21294698.327     2505117.346 8     -4726.167 9
  24051454.924    -1064426.208 5    890437.613 4
  22322225.165    10831644.378 7  -6942373.467 8
  24838868.179    -4510037.107 5  -3553486.665 3
 94  5 15 15 49  0.0020000  0  8 31  2 29 18 19 28 27 16
  22523547.732    -7628486.505 7  -5580468.323 6
  24052157.188    -5744630.597 5  -5204644.502 4
  23057170.183    27360301.948 6   8767356.407 6
  21263429.734    14919219.487 8   2782865.868 9
  21294946.465     2506419.299 8     -3711.674 9
  24061280.472    -1012814.547 5    930654.437 4
  22313440.047    10785486.059 7  -6978340.980 8
  24832547.325    -4543230.820 5  -3579351.851 3
 94  5 15 15 49 30.0020000  0  8 31  2 29 18 19 28 27 16
  22522986.221    -7631421.571 7  -5582755.372 6
  24038878.960    -5814389.726 5  -5259002.201 4
  23075981.680    27459156.066 6   8844385.554 5
  21275237.390    14981278.363 8   2831223.419 9
  21295228.810     2507907.715 8     -2551.863 9
  24071197.397     -960685.315 5    971274.631 4
  22304681.221    10739462.482 7  -7014203.497 8
  24826332.418    -4575922.641 5  -3604826.008 3
 94  5 15 15 50  0.0020000  0  8 31  2 29 18 19 28 27 16
  22522539.710    -7633773.202 7  -5584587.829 6
  24025652.297    -5883930.843 5  -5313190.099 4
  23094851.757    27558323.407 6   8921658.757 5
  21287142.508    15043822.063 8   2879958.744 9
  21295548.658     2509591.192 8     -1240.079 9
  24081214.272     -908051.681 6   1012287.841 4
  22295952.523    10693601.110 7  -7049939.626 8
  24820202.232    -4608131.344 5  -3629923.693 3
 94  5 15 15 50 30.0020000  0  8 31  2 29 18 19 28 27 16
  22522201.844    -7635542.861 7  -5585966.781 6
  24012455.313    -5953253.727 5  -5367207.889 4
  23113782.541    27657790.093 6   8999165.217 5
  21299133.397    15106847.667 8   2929069.592 9
  21295909.129     2511474.990 8       227.824 9
  24091323.424     -854908.044 5   1053698.430 4
  22287260.071    10647906.296 7  -7085545.958 8
  24814163.182    -4639869.093 5  -3654654.382 3
 94  5 15 15 51  0.0020000  0  8 31  2 29 18 19 28 27 16
  22521975.801    -7636743.808 7  -5586902.583 6
  23999303.268    -6022373.301 5  -5421067.269 4
  23132764.770    27757552.737 6   9076902.297 5
  21311213.354    15170339.247 7   2978543.517 9
  21296304.016     2513551.300 8      1845.716 9
  24101531.387     -801273.865 5   1095491.266 4
  22278591.092    10602358.372 7  -7121037.857 8
  24808213.561    -4671145.993 5  -3679025.976 3
 94  5 15 15 51 30.0020000  0  8 31  2 29 18 19 28 27 16
  22521848.419    -7637369.122 7  -5587389.851 6
  23986193.794    -6091279.049 6  -5474760.020 4
  23151804.799    27857617.968 6   9154875.157 5
  21323384.568    15234297.367 8   3028380.989 9
  21296735.777     2515819.982 8      3613.524 9
  24111837.472     -747140.025 6   1137673.486 4
  22269950.024    10556949.824 7  -7156421.137 8
  24802350.790    -4701953.660 5  -3703031.944 3
 94  5 15 15 52  0.0020000  0  8 31  2 29 18 19 28 27 16
  22521845.121    -7637405.542 7  -5587418.231 6
  23973124.042    -6159961.923 6  -5528279.118 4
  23170910.572    27957997.960 6   9233093.302 5
  21335648.118    15298729.364 7   3078587.738 9
  21297202.224     2518276.345 8      5527.551 9
  24122235.354     -692478.899 5   1180266.508 4
  22261332.940    10511669.184 7  -7191704.738 8
  24796586.740    -4732269.755 5  -3726654.864 3
 94  5 15 15 52 30.0020000  0  8 31  2 29 18 19 28 27 16
  22521952.777    -7636844.963 7  -5586981.419 6
  23960098.749    -6228422.692 6  -5581625.164 4
  23190071.478    28058688.016 6   9311553.019 5
  21347999.837    15363635.002 8   3129163.527 9
  21297701.708     2520908.891 8      7578.898 9
  24132743.379     -637275.029 5   1223282.471 3
  22252740.948    10466504.564 7  -7226897.946 8
  24790911.669    -4762079.520 5  -3749883.238 3
 94  5 15 15 53  0.0020000  0  8 31  2 29 18 19 28 27 16
  22522174.053    -7635691.355 7  -5586082.500 6
  23947110.181    -6296656.687 6  -5634794.457 4
  23209288.384    28159677.854 6   9390246.354 5
  21360436.667    15429006.276 7   3180102.183 9
  21298235.908     2523713.012 8      9763.914 9
  24143347.728     -581535.243 5   1266716.074 4
  22244163.406    10421442.050 7  -7262011.589 8
  24785329.114    -4791375.758 5  -3772711.502 3
 94  5 15 15 53 30.0020000  0  8 31  2 29 18 19 28 27 16
  22522508.022    -7633933.293 7  -5584712.586 6
  23934171.978    -6364662.720 6  -5687786.144 4
  23228562.041    28260957.821 6   9469165.760 5
  21372966.913    15494844.948 8   3231405.026 9
  21298803.835     2526686.645 8     12081.041 9
  24154059.792     -525263.011 5   1310564.525 4
  22235607.659    10376489.489 7  -7297039.561 8
  24779847.469    -4820158.827 5  -3795139.810 4
 94  5 15 15 54  0.0020000  0  8 31  2 29 18 19 28 27 16
  22522958.670    -7631581.481 7  -5582880.028 6
  23921275.386    -6432437.752 5  -5740597.848 4
  23247886.393    28362511.080 6   9548298.105 5
  21385580.890    15561155.546 8   3283075.604 9
  21299401.471     2529836.480 8     14535.443 9
  24164861.135     -468482.883 6   1354808.733 3
  22227078.204    10331654.080 7  -7331976.230 8
  24774476.477    -4848432.777 5  -3817171.486 4
 94  5 15 15 54 30.0020000  0  8 31  2 29 18 19 28 27 16
  22523514.575    -7628659.416 7  -5580603.089 6
  23908416.598    -6499981.345 5  -5793229.183 4
  23267257.633    28464316.751 6   9627627.125 5
  21398289.123    15627915.156 8   3335096.073 9
  21300035.772     2533172.831 8     17135.199 9
  24175757.391     -411231.710 6   1399420.043 4
  22218569.165    10286929.943 7  -7366826.189 8
  24769191.705    -4876200.572 5  -3838808.699 4
 94  5 15 15 55  0.0020000  0  8 31  2 29 18 19 28 27 16
  22524173.039    -7625170.733 6  -5577884.627 6
  23895611.862    -6567295.569 5  -5845681.808 4
  23286684.394    28566388.003 6   9707163.113 5
  21411074.791    15695113.683 8   3387458.559 9
  21300707.907     2536707.078 8     19889.151 9
  24186737.710     -353526.692 5   1444384.994 4
  22210077.333    10242317.021 7  -7401589.504 8
  24764002.238    -4903461.350 5  -3860050.871 4
 94  5 15 15 55 30.0020000  0  8 31  2 29 18 19 28 27 16
  22524949.022    -7621117.906 7  -5574726.589 6
  23882844.391    -6634381.640 5  -5897956.624 4
  23306159.901    28668739.817 6   9786917.735 5
  21423948.959    15762760.423 8   3440170.288 9
  21301420.064     2540449.053 8     22804.970 9
  24197809.675     -295368.930 5   1489702.684 4
  22201615.302    10197831.012 7  -7436253.927 8
  24758909.154    -4930215.441 5  -3880898.228 4
 94  5 15 15 56  0.0020000  0  8 31  2 29 18 19 28 27 16
  22525823.427    -7616503.856 7  -5571131.236 6
  23870122.368    -6701240.257 6  -5950054.215 4
  23325687.782    28771366.438 6   9866886.463 4
  21436905.089    15830849.000 8   3493226.293 9
  21302175.121     2544409.945 8     25891.372 9
  24208961.924     -236755.230 6   1535375.673 3
  22193168.139    10153459.129 7  -7470829.412 8
  24753917.819    -4956468.003 5  -3901354.768 4
 94  5 15 15 56 30.0020000  0  8 31  2 29 18 19 28 27 16
  22526813.941    -7611317.714 7  -5567090.093 6
  23857436.740    -6767881.427 6  -6001982.370 4
  23345269.596    28874271.949 6   9947072.531 4
  21449945.672    15899372.018 8   3546620.832 9
  21302969.661     2548589.416 8     29148.100 9
  24220205.820     -177658.869 6   1581424.807 4
  22184745.081    10109198.651 7  -7505318.071 8
  24749009.587    -4982228.177 5  -3921427.640 3
 94  5 15 15 57  0.0020000  0  8 31  2 29 18 19 28 27 16
  22527913.250    -7605536.713 7  -5562585.430 6
  23844796.831    -6834308.445 6  -6053743.662 4
  23364900.366    28977457.937 6  10027477.142 4
  21463071.994    15968346.370 8   3600367.062 9
  21303805.093     2552972.481 8     32563.461 9
  24231551.076     -118056.130 5   1627868.462 4
  22176347.054    10065054.841 7  -7539715.862 8
  24744201.156    -5007512.148 5  -3941129.412 3
 94  5 15 15 57 30.0020000  0  8 31  2 29 18 19 28 27 16
  22529127.889    -7599168.241 7  -5557623.003 6
  23832195.504    -6900530.303 6  -6105345.066 4
  23384588.097    29080900.856 6  10108081.949 4
  21476284.088    16037777.942 8   3654469.564 9
  21304678.028     2557550.414 8     36130.688 9
  24242985.580      -57937.683 5   1674713.987 4
  22167966.866    10021027.836 7  -7574022.601 8
  24739472.530    -5032335.002 5  -3960471.911 4
 94  5 15 15 58  0.0020000  0  8 31  2 29 18 19 28 27 16
  22530449.255    -7592202.735 7  -5552195.340 6
  23819630.813    -6966555.102 6  -6156792.906 4
  23404324.453    29184604.041 6  10188889.579 4
  21489583.091    16107667.609 8   3708929.018 9
  21305583.881     2562313.206 8     39841.954 9
  24254532.836        2712.092 6   1721973.526 4
  22159609.731     9977107.765 7  -7608246.027 8
  24734840.886    -5056700.901 5  -3979458.287 3
 94  5 15 15 58 30.0020000  0  8 31  2 29 18 19 28 27 16
  22531891.076    -7584641.577 7  -5546303.536 6
  23807106.683    -7032379.026 6  -6208084.269 4
  23424112.314    29288576.769 6  10269907.230 4
  21502969.694    16178011.699 8   3763742.568 9
  21306521.032     2567250.787 8     43689.415 9
  24266172.189       63903.994 5   1769655.513 4
  22151275.081     9933311.988 7  -7642372.600 8
  24730301.369    -5080590.900 5  -3998073.870 3
 94  5 15 15 59  0.0020000  0  8 31  2 29 18 19 28 27 16
  22533442.982    -7576487.305 7  -5539949.564 6
  23794625.514    -7097983.499 6  -6259204.602 4
  23443949.192    29392833.830 6  10351146.440 4
  21516442.007    16248824.759 8   3818921.561 9
  21307498.985     2572381.053 8     47687.022 9
  24277924.593      125630.382 5   1817753.968 4
  22142966.753     9889650.837 7  -7676394.277 8
  24725842.495    -5103979.075 5  -4016298.427 3
 94  5 15 15 59 30.0020000  0  8 31  2 29 18 19 28 27 16
  22535104.552    -7567739.606 7  -5533133.195 6
  23782178.371    -7163352.882 6  -6310141.757 4
  23463845.638    29497390.615 6  10432619.216 4
  21530009.235    16320106.433 8   3874465.703 9
  21308517.260     2577728.312 8     51853.711 9
  24289766.125      187875.250 5   1866256.437 4
  22134684.956     9846120.258 7  -7710314.208 9
  24721493.406    -5126846.571 5  -4034117.253 3
 94  5 15 16  0  0.0020000  0  8 31  2 29 18 19 28 27 16
  22536881.572    -7558402.934 7  -5525857.867 6
  23769787.169    -7228481.644 6  -6360891.399 4
  23483797.126    29602236.161 6  10514317.005 4
  21543654.618    16391825.584 7   3930350.729 9
  21309573.100     2583281.658 8     56180.984 9
  24301710.366      250604.835 5   1915136.657 4
  22126424.355     9802702.397 7  -7744146.310 9
  24717245.467    -5149188.688 5  -4051526.681 3
 94  5 15 16  0 30.0020000  0  8 31  2 29 18 19 28 27 16
  22538773.682    -7548484.605 7  -5518129.332 6
  23757445.283    -7293351.229 6  -6411439.120 4
  23503799.039    29707339.742 6  10596215.834 4
  21557386.162    16463972.007 8   3986568.698 9
  21310668.511     2589039.104 8     60667.300 9
  24313723.769      313789.356 5   1964371.307 4
  22118184.020     9759407.160 7  -7777882.857 9
  24713093.851    -5171001.280 5  -4068523.522 3
 94  5 15 16  1  0.0020000  0  8 31  2 29 18 19 28 27 16
  22540769.910    -7537964.816 7  -5509932.101 6
  23745151.544    -7357967.894 6  -6461789.727 4
  23523847.959    29812697.321 6  10678312.593 4
  21571200.808    16536564.590 8   4043134.320 9
  21311804.395     2595003.229 8     65314.660 9
  24325833.226      377413.687 5   2013948.677 4
  22109967.428     9716233.043 7  -7811525.021 9
  24709039.098    -5192295.742 5  -4085116.619 3
 94  5 15 16  1 30.0020000  0  8 31  2 29 18 19 28 27 16
  22542891.001    -7526825.882 7  -5501252.404 6
  23732895.788    -7422340.212 6  -6511949.939 4
  23543945.236    29918297.139 6  10760598.115 4
  21585097.328    16609593.213 8   4100039.722 9
  21312974.005     2601157.101 8     70109.876 9
  24338020.899      441480.908 5   2063871.177 4
  22101774.400     9673198.550 7  -7845058.372 9
  24705083.187    -5213080.571 5  -4101312.578 3
 94  5 15 16  2  0.0020000  0  8 31  2 29 18 19 28 27 16
  22545131.111    -7515061.511 7  -5492085.400 6
  23720697.803    -7486473.598 6  -6561924.014 4
  23564084.004    30024126.429 6  10843062.421 4
  21599073.083    16683053.968 8   4157281.846 9
  21314180.370     2607489.961 8     75044.566 9
  24350302.676      506014.960 5   2114157.449 4
  22093621.484     9630329.188 7  -7878463.077 9
  24701229.715    -5233346.588 5  -4117104.287 3
 94  5 15 16  2 30.0020000  0  8 31  2 29 18 19 28 27 16
  22547491.107    -7502665.077 7  -5482425.844 6
  23708534.803    -7550379.276 6  -6611720.592 4
  23584265.972    30130191.646 6  10925710.605 4
  21613138.775    16756956.567 8   4214868.252 9
  21315419.412     2614005.141 8     80121.338 9
  24362677.509      571033.270 5   2164821.021 4
  22085493.361     9587627.962 7  -7911736.751 9
  24697472.206    -5253100.606 5  -4132497.030 3
 94  5 15 16  3  0.0020000  0  8 31  2 29 18 19 28 27 16
  22549970.210    -7489624.336 7  -5472264.236 6
  23696415.393    -7614066.503 6  -6661346.952 4
  23604506.340    30236521.872 6  11008565.281 4
  21627284.992    16831297.440 8   4272796.179 9
  21316696.828     2620710.981 8     85346.655 9
  24375140.571      636541.985 5   2215866.788 3
  22077400.314     9545097.402 7  -7944877.442 9
  24693816.507    -5272333.922 5  -4147484.037 3
 94  5 15 16  3 30.0020000  0  8 31  2 29 18 19 28 27 16
  22552568.392    -7475956.984 7  -5461614.366 6
  23684347.457    -7677506.245 6  -6710780.523 4
  23624782.863    30343126.883 6  11091634.068 4
  21641513.862    16906066.204 8   4331057.521 9
  21318010.938     2627624.353 8     90733.697 9
  24387697.558      702539.038 5   2267293.046 4
  22069339.104     9502739.424 7  -7977883.666 9
  24690255.692    -5291025.455 5  -4162048.860 3
 94  5 15 16  4  0.0020000  0  8 31  2 29 18 19 28 27 16
  22555291.377    -7461673.220 7  -5450484.168 6
  23672324.461    -7740683.607 6  -6760009.612 4
  23645121.113    30450012.069 6  11174921.148 4
  21655822.416    16981268.688 8   4389656.842 9
  21319368.189     2634757.526 8     96291.999 9
  24400354.586      769022.499 5   2319098.327 4
  22061309.223     9460533.937 7  -8010771.045 9
  24686802.742    -5309165.747 5  -4176184.133 3
 94  5 15 16  4 30.0020000  0  8 31  2 29 18 19 28 27 16
  22558123.636    -7446786.695 7  -5438884.286 6
  23660351.050    -7803584.508 6  -6809023.262 4
  23665516.984    30557185.889 6  11258433.158 4
  21670219.649    17056906.038 8   4448594.991 9
  21320767.860     2642120.303 8    102029.231 9
  24413090.009      835972.547 5   2371267.142 4
  22053306.324     9418474.382 7  -8043544.726 9
  24683448.604    -5326762.191 5  -4189895.680 3
 94  5 15 16  5  0.0020000  0  8 31  2 29 18 19 28 27 16
  22561068.227    -7431316.891 7  -5426829.916 6
  23648430.972    -7866211.124 6  -6857823.219 4
  23685970.774    30664637.751 6  11342161.837 4
  21684689.522    17132973.859 7   4507868.574 9
  21322213.729     2649707.999 8    107941.712 9
  24425921.966      903373.900 5   2423787.702 4
  22045329.716     9376563.337 7  -8076202.695 9
  24680209.556    -5343820.147 5  -4203187.625 3
 94  5 15 16  5 30.0020000  0  8 31  2 29 18 19 28 27 16
  22564121.943    -7415272.841 7  -5414328.081 6
  23636565.037    -7928570.923 6  -6906415.258 4
  23706459.460    30772336.030 6  11426082.491 4
  21699250.322    17209478.688 7   4567482.706 9
  21323698.571     2657508.337 8    114019.895 9
  24438833.997      971247.910 5   2476676.521 4
  22037382.548     9334790.269 7  -8108753.139 9
  24677061.196    -5360349.308 5  -4216067.465 3
 94  5 15 16  6  0.0020000  0  8 31  2 29 18 19 28 27 16
  22567285.653    -7398650.111 7  -5401375.311 6
  23624748.357    -7990690.884 6  -6954820.380 4
  23727002.408    30880269.178 6  11510186.177 4
  21713891.526    17286411.863 7   4627430.594 9
  21325217.529     2665504.827 8    120250.922 9
  24451851.615     1039604.145 5   2529941.067 3
  22029458.673     9293154.418 7  -8141196.637 9
  24674005.382    -5376377.561 5  -4228557.044 3
 94  5 15 16  6 30.0020000  0  8 31  2 29 18 19 28 27 16
  22570557.738    -7381441.465 6  -5387965.991 6
  23612966.334    -8052586.256 6  -7003050.491 4
  23747582.771    30988433.297 6  11594469.870 4
  21728613.014    17363775.306 7   4687713.767 9
  21326776.090     2673696.592 8    126634.105 9
  24464943.192     1108449.173 5   2583586.526 3
  22021561.840     9251664.170 7  -8173526.702 9
  24671058.661    -5391910.748 5  -4240660.825 3
 94  5 15 16  7  0.0020000  0  8 31  2 29 18 19 28 27 16
  22573950.309    -7363635.724 6  -5374091.400 6
  23601227.720    -8114281.410 6  -7051124.632 4
  23768206.723    31096817.892 6  11678925.307 4
  21743414.577    17441568.529 7   4748331.825 9
  21328371.256     2682070.061 8    133158.883 9
  24478140.776     1177791.751 5   2637619.708 4
  22013690.579     9210305.990 7  -8205753.832 9
  24668188.718    -5406955.598 5  -4252384.110 3
 94  5 15 16  7 30.0020000  0  8 31  2 29 18 19 28 27 16
  22577452.305    -7345229.356 7  -5359748.799 6
  23589527.630    -8175768.943 6  -7099036.978 5
  23788869.259    31205425.449 6  11763554.521 4
  21758300.712    17519790.177 7   4809283.710 9
  21329999.609     2690631.762 8    139830.332 9
  24491431.265     1247626.148 5   2692036.101 4
  22005845.760     9169069.568 7  -8237886.103 9
  24665421.574    -5421516.515 5  -4263730.268 3
 94  5 15 16  8  0.0020000  0  8 31  2 29 18 19 28 27 16
  22581062.046    -7326235.019 6  -5344948.006 6
  23577861.686    -8237045.850 6  -7146785.175 5
  23809586.566    31314269.492 6  11848368.001 4
  21773264.703    17598438.396 7   4870568.007 9
  21331667.024     2699386.933 8    146652.546 9
  24504806.685     1317926.346 5   2746815.449 3
  21998021.567     9127952.856 7  -8269925.095 9
  24662737.952    -5435607.408 5  -4274710.232 3
 94  5 15 16  8 30.0020000  0  8 31  2 29 18 19 28 27 16
  22584788.886    -7306652.336 7  -5329688.789 6
  23566248.176    -8298106.015 6  -7194364.521 5
  23830340.898    31423354.559 5  11933369.265 4
  21788318.421    17677530.742 7   4932198.376 9
  21333369.516     2708340.566 8    153629.398 9
  24518267.517     1388678.042 5   2801946.600 3
  21990217.399     9086945.627 7  -8301878.789 9
  24660149.634    -5449214.552 5  -4285313.200 3
 94  5 15 16  9  0.0020000  0  8 31  2 29 18 19 28 27 16
  22588630.696    -7286481.357 7  -5313971.158 6
  23554670.641    -8358933.592 6  -7241762.612 5
  23851154.619    31532689.390 5  12018565.176 4
  21803452.754    17757075.703 7   4994181.440 9
  21335113.378     2717505.090 8    160770.580 9
  24531820.744     1459872.165 5   2857422.552 3
  21982437.036     9046058.744 7  -8333738.693 9
  24657658.358    -5462329.156 5  -4295532.429 3
 94  5 15 16  9 30.0020000  0  8 31  2 29 18 19 28 27 16
  22592577.374    -7265734.179 7  -5297804.524 6
  23543142.002    -8419522.814 6  -7288974.967 5
  23872000.538    31642269.970 5  12103952.562 4
  21818676.844    17837066.291 7   5056511.723 9
  21336901.341     2726890.259 8    168083.691 9
  24545446.221     1531493.191 5   2913231.098 3
  21974680.595     9005300.292 7  -8365498.539 9
  24655256.151    -5474942.751 5  -4305361.198 3
 94  5 15 16 10  0.0020000  0  8 31  2 29 18 19 28 27 16
  22596633.476    -7244410.038 7  -5281188.337 6
  23531657.133    -8479877.777 6  -7336004.805 5
  23892901.678    31752088.977 5  12189525.742 4
  21833980.560    17917494.360 7   5119182.900 9
  21338726.237     2736486.436 8    175561.217 9
  24559157.829     1603539.799 5   2969371.245 3
  21966950.177     8964679.353 7  -8397151.220 9
  24652949.698    -5487037.103 5  -4314785.394 3
 94  5 15 16 10 30.0020000  0  8 31  2 29 18 19 28 27 16
  22600803.769    -7222498.353 7  -5264114.297 6
  23520215.164    -8539999.681 6  -7382853.003 5
  23913834.537    31862132.966 5  12275274.256 4
  21849365.219    17998330.301 7   5182171.911 9
  21340595.353     2746298.057 8    183206.632 9
  24572945.434     1676008.086 5   3025840.036 3
  21959248.808     8924204.268 7  -8428690.233 9
  24650753.898    -5498593.623 5  -4323790.503 3
 94  5 15 16 11  0.0020000  0  8 31  2 29 18 19 28 27 16
  22605090.621    -7199987.488 7  -5246573.376 6
  23508822.481    -8599867.273 6  -7429503.070 5
  23934823.846    31972403.562 5  12361199.324 4
  21864819.640    18079558.852 7   5245466.838 8
  21342503.862     2756328.791 8    191022.776 9
  24586820.458     1748916.407 5   3082651.708 3
  21951580.537     8883900.876 7  -8460095.473 9
  24648657.120    -5509604.142 5  -4332370.104 3
 94  5 15 16 11 30.0020000  0  8 31  2 29 18 19 28 27 16
  22609485.099    -7176872.759 7  -5228561.910 6
  23497476.985    -8659473.241 6  -7475949.243 5
  23955852.758    32082897.137 5  12447298.137 4
  21880353.237    18161175.933 7   5309064.511 8
  21344452.033     2766568.141 8    199001.487 9
  24600786.830     1822279.000 5   3139817.319 3
  21943944.493     8843773.598 7  -8491363.464 9
  24646667.607    -5520066.043 5  -4340522.240 3
 94  5 15 16 12  0.0020000  0  8 31  2 29 18 19 28 27 16
  22614003.001    -7153147.164 7  -5210074.444 6
  23486186.921    -8718811.695 6  -7522186.977 5
  23976918.605    32193608.260 6  12533566.490 4
  21895958.963    18243185.868 7   5372968.332 8
  21346437.859     2777006.322 8    207135.136 9
  24614835.554     1896107.755 5   3197346.171 3
  21936341.577     8803820.764 7  -8522495.536 9
  24644774.298    -5529991.071 5  -4348256.061 3
 94  5 15 16 12 30.0020000  0  8 31  2 29 18 19 28 27 16
  22618631.917    -7128797.940 7  -5191101.021 6
  23474947.672    -8777886.746 6  -7568219.476 5
  23998023.634    32304535.352 5  12620003.091 4
  21911643.295    18325606.326 7   5437192.012 8
  21348463.107     2787653.973 8    215431.992 9
  24628968.610     1970408.184 5   3255242.592 3
  21928771.008     8764042.882 7  -8553491.282 9
  24642990.982    -5539381.664 5  -4355573.400 3
 94  5 15 16 13  0.0020000  0  8 31  2 29 18 19 28 27 16
  22623384.557    -7103827.683 7  -5171643.678 6
  23463760.587    -8836693.880 6  -7614043.166 5
  24019176.300    32415671.981 5  12706602.990 4
  21927409.530    18408462.877 7   5501755.486 8
  21350527.088     2798506.958 8    223888.851 9
  24643202.666     2045184.452 5   3313509.800 3
  21921235.305     8724431.667 7  -8584357.160 9
  24641301.562    -5548242.360 5  -4362477.819 3
 94  5 15 16 13 30.0020000  0  8 31  2 29 18 19 28 27 16
  22628255.645    -7078230.599 7  -5151697.914 6
  23452617.601    -8895236.882 6  -7659661.090 5
  24040365.481    32527009.933 5  12793359.770 4
  21943262.735    18491770.249 7   5566670.280 8
  21352637.297     2809584.237 8    232520.499 9
  24657519.584     2120425.049 5   3372138.792 3
  21913726.463     8684976.360 7  -8615101.528 9
  24639711.373    -5556573.644 5  -4368969.748 3
 94  5 15 16 14  0.0020000  0  8 31  2 29 18 19 28 27 16
  22633250.007    -7051996.722 7  -5131255.948 6
  23441523.721    -8953510.592 6  -7705069.154 5
  24061589.468    32638546.036 6  12880270.928 4
  21959202.610    18575522.124 7   5631931.421 8
  21354791.665     2820902.339 8    241339.780 9
  24671926.291     2196113.324 5   3431116.656 3
  21906246.461     8645675.984 7  -8645725.219 9
  24638227.220    -5564380.870 5  -4375053.312 3
 94  5 15 16 14 30.0020000  0  8 31  2 29 18 19 28 27 16
  22638361.858    -7025132.366 7  -5110322.680 6
  23430490.939    -9011513.700 6  -7750266.343 5
  24082850.809    32750282.670 6  12967338.324 3
  21975223.549    18659708.176 7   5697530.862 8
  21356990.553     2832456.561 8    250343.058 9
  24686396.643     2272231.522 5   3490429.537 3
  21898797.788     8606526.990 7  -8676230.918 9
  24636845.447    -5571666.717 5  -4380730.608 3
 94  5 15 16 15  0.0020000  0  8 31  2 29 18 19 28 27 16
  22643587.241    -6997654.209 7  -5088911.149 6
  23419507.292    -9069229.008 6  -7795239.305 5
  24104152.413    32862227.100 5  13054567.728 3
  21991322.344    18744308.813 7   5763453.413 8
  21359231.382     2844234.417 8    259520.600 9
  24700968.685     2348776.292 5   3550074.747 3
  21891376.845     8567527.692 7  -8706619.977 9
  24635564.554    -5578443.134 5  -4386010.967 3
 94  5 15 16 15 30.0020000  0  8 31  2 29 18 19 28 27 16
  22648935.238    -6969574.760 7  -5067031.072 6
  23408579.707    -9126667.323 6  -7839996.416 5
  24125502.582    32974389.835 5  13141967.163 3
  22007495.248    18829312.196 7   5829689.774 8
  21361513.012     2856227.520 8    268865.872 9
  24715623.590     2425744.743 5   3610050.121 3
  21883983.513     8528683.969 7  -8736887.812 9
  24634364.844    -5584717.178 5  -4390899.833 3
 94  5 15 16 16  0.0020000  0  8 31  2 29 18 19 28 27 16
  22654385.435    -6940908.769 7  -5044693.949 6
  23397699.250    -9183835.834 6  -7884543.280 6
  24146881.742    33086781.661 5  13229545.130 3
  22023745.588    18914709.262 7   5896232.882 8
  21363833.766     2868417.878 8    278364.833 9
  24730346.098     2503149.422 5   3670365.462 3
  21876622.499     8490000.760 7  -8767030.567 9
  24633274.439    -5590475.274 5  -4395386.679 3
 94  5 15 16 16 30.0020000  0  8 31  2 29 18 19 28 27 16
  22659950.183    -6911669.099 7  -5021909.770 6
  23386865.470    -9240752.591 6  -7928893.974 6
  24168319.001    33199410.071 5  13317307.474 3
  22040070.846    19000501.841 7   5963084.196 8
  21366188.096     2880792.539 8    288007.420 9
  24745159.802     2581006.701 5   3731033.467 3
  21869291.165     8451465.102 7  -8797058.336 9
  24632278.978    -5595701.116 5  -4399458.783 3
 94  5 15 16 17  0.0020000  0  8 31  2 29 18 19 28 27 16
  22665625.464    -6881848.809 7  -4998673.180 6
  23376079.387    -9297433.948 6  -7973061.240 6
  24189795.203    33312276.507 5  13405255.219 3
  22056471.173    19086685.172 7   6030240.000 8
  21368579.031     2893367.584 8    297806.154 9
  24760061.316     2659327.801 5   3792062.810 3
  21861986.572     8413082.122 7  -8826967.150 9
  24631377.982    -5600390.238 5  -4403112.629 3
 94  5 15 16 17 30.0020000  0  8 31  2 29 18 19 28 27 16
  22671413.317    -6851438.736 7  -4974977.037 6
  23365333.986    -9353902.922 6  -8017063.020 6
  24211319.492    33425371.099 5  13493380.818 3
  22072945.278    19173254.404 7   6097696.507 8
  21371010.947     2906150.595 8    307766.931 9
  24775056.126     2738106.609 5   3853448.901 3
  21854713.607     8374860.099 8  -8856750.544 9
  24630596.243    -5604539.030 5  -4406345.461 3
 94  5 15 16 18  0.0020000  0  8 31  2 29 18 19 28 27 16
  22677309.995    -6820428.927 6  -4950813.546 6
  23354635.352    -9410150.048 6  -8060891.927 6
  24232881.375    33538689.641 5  13581680.877 3
  22089489.774    19260205.729 7   6165450.747 8
  21373484.445     2919151.986 8    317897.869 9
  24790140.693     2817333.588 5   3915184.189 3
  21847471.370     8336798.524 8  -8886408.909 9
  24629904.412    -5608139.858 5  -4409151.333 3
 94  5 15 16 18 30.0020000  0  8 31  2 29 18 19 28 27 16
  22683329.048    -6788820.911 7  -4926183.921 6
  23343974.283    -9466170.050 6  -8104543.870 6
  24254483.580    33652217.032 5  13670143.694 3
  22106112.277    19347534.147 7   6233498.823 8
  21376004.680     2932388.436 8    328211.986 9
  24805285.578     2896999.289 5   3977261.321 3
  21840259.533     8298911.055 8  -8915931.616 9
  24629331.808    -5611206.987 5  -4411541.287 3
 94  5 15 16 19  0.0020000  0  8 31  2 29 18 19 28 27 16
  22689454.677    -6756609.972 6  -4901084.492 6
  23333359.381    -9521937.916 6  -8147999.326 6
  24276125.928    33765938.799 5  13758757.977 3
  22122801.693    19435250.992 7   6301849.576 8
  21378570.544     2945876.161 8    338721.899 9
  24820532.963     2977085.889 5   4039666.388 3
  21833088.947     8261223.396 8  -8945298.627 9
  24628846.235    -5613737.877 5  -4413513.428 3
 94  5 15 16 19 30.0020000  0  8 31  2 29 18 19 28 27 16
  22695702.352    -6723802.889 7  -4875520.543 6
  23322795.984    -9577433.681 6  -8191242.755 6
  24297802.481    33879843.238 5  13847514.555 3
  22139568.726    19523369.955 7   6370513.638 8
  21381187.072     2959609.081 8    349422.854 9
  24835848.850     3057579.900 5   4102388.990 3
  21825955.356     8223730.607 8  -8974513.784 9
  24628468.196    -5615725.088 5  -4415061.921 3
 94  5 15 16 20  0.0020000  0  8 31  2 29 18 19 28 27 16
  22702055.314    -6690415.029 6  -4849504.010 6
  23312288.199    -9632651.603 6  -8234269.690 6
  24319512.042    33993903.442 5  13936392.558 3
  22156416.162    19611893.489 7   6439492.982 8
  21383842.394     2973569.795 8    360301.332 9
  24851237.586     3138468.481 5   4165418.991 3
  21818850.784     8186406.541 8  -9003597.473 9
  24628187.710    -5617182.955 5  -4416197.911 3
 94  5 15 16 20 30.0020000  0  8 31  2 29 18 19 28 27 16
  22708517.640    -6656455.601 7  -4823042.132 6
  23301832.427    -9687610.129 6  -8277094.507 6
  24341243.368    34108106.301 5  14025381.721 3
  22173333.870    19700811.819 7   6508779.947 7
  21386538.577     2987738.791 8    371342.099 9
  24866701.211     3219735.907 4   4228744.196 3
  21811779.549     8149230.201 8  -9032566.044 9
  24628008.764    -5618129.598 5  -4416935.601 3
 94  5 15 16 21  0.0020000  0  8 31  2 29 18 19 28 27 16
  22715087.292    -6621913.697 7  -4796126.378 6
  23291419.436    -9742316.137 6  -8319722.514 6
  24362997.838    34222448.561 5  14114479.471 3
  22190334.561    19790126.095 7   6578375.417 7
  21389269.657     3002095.908 8    382529.454 9
  24882244.251     3301365.908 5   4292351.995 3
  21804725.073     8112179.855 8  -9061436.442 9
  24627925.152    -5618577.635 5  -4417284.734 3
 94  5 15 16 21 30.0020000  0  8 31  2 29 18 19 28 27 16
  22721774.013    -6586779.631 7  -4768749.175 6
  23281057.919    -9796777.963 6  -8362160.293 6
  24384786.693    34336934.102 5  14203688.895 3
  22207396.919    19879807.328 7   6648256.856 7
  21392037.611     3016629.439 8    393854.274 9
  24897845.840     3383366.443 5   4356248.446 3
  21797698.028     8075242.280 8  -9090218.967 9
  24627927.131    -5618551.356 5  -4417264.261 3
 94  5 15 16 22  0.0020000  0  8 31  2 29 18 19 28 27 16
  22728575.644    -6551046.880 7  -4740905.480 6
  23270742.001    -9850996.916 6  -8404408.823 6
  24406599.533    34451579.882 5  14293023.120 3
  22224530.718    19969843.644 7   6718414.965 7
  21394837.642     3031355.095 8    405328.797 9
  24913518.300     3465747.757 5   4420441.617 3
  21790693.407     8038435.016 8  -9118899.962 9
  24628020.666    -5618040.224 5  -4416865.991 3
 94  5 15 16 22 30.0020000  0  8 31  2 29 18 19 28 27 16
  22735492.246    -6514699.154 7  -4712582.581 6
  23260470.571    -9904962.526 7  -8446459.909 6
  24428448.017    34566418.834 5  14382507.954 3
  22241731.220    20060228.536 7   6788844.712 7
  21397682.403     3046298.910 8    416973.314 9
  24929275.332     3548523.180 5   4484941.959 3
  21783719.725     8001795.668 8  -9147450.088 9
  24628216.371    -5617031.986 5  -4416080.355 3
 94  5 15 16 23  0.0020000  0  8 31  2 29 18 19 28 27 16
  22742530.774    -6477728.543 6  -4683774.316 6
  23250253.494    -9958660.931 7  -8488302.807 6
  24450342.430    34681453.851 5  14472145.527 3
  22258999.026    20150965.236 7   6859548.593 7
  21400572.972     3061481.590 8    428803.964 9
  24945105.633     3631712.777 5   4549764.980 3
  21776784.386     7965353.796 8  -9175846.343 9
  24628502.882    -5615517.307 5  -4414900.058 3
 94  5 15 16 23 30.0020000  0  8 31  2 29 18 19 28 27 16
  22749680.884    -6440142.209 6  -4654486.253 6
  23240085.224   -10012088.956 7  -8529935.018 6
  24472277.645    34796699.337 5  14561947.105 3
  22276331.826    20242060.745 7   6930532.044 7
  21403509.709     3076921.310 8    440834.898 9
  24961024.912     3715339.056 5   4614928.259 3
  21769893.117     7929128.356 8  -9204073.964 9
  24628889.315    -5613467.299 5  -4413302.663 3
 94  5 15 16 24  0.0020000  0  8 31  2 29 18 19 28 27 16
  22756951.750    -6401945.424 6  -4624722.545 6
  23229973.074   -10065246.024 7  -8571356.101 6
  24494252.702    34912163.828 5  14651919.335 3
  22293740.954    20333547.740 7   7001820.553 7
  21406499.869     3092634.424 8    453078.874 9
  24977015.302     3799402.016 4   4680431.816 3
  21763045.107     7893136.991 8  -9232119.175 9
  24629388.079    -5610858.016 5  -4411269.472 3
 94  5 15 16 24 30.0020000  0  8 31  2 29 18 19 28 27 16
  22764336.538    -6363140.765 7  -4594485.150 6
  23219906.943   -10118132.817 7  -8612566.565 6
  24516256.899    35027829.646 5  14742048.472 3
  22311229.197    20425438.569 7   7073423.730 7
  21409539.224     3108611.607 8    465528.613 9
  24993088.735     3883898.586 4   4746273.265 3
  21756239.369     7857371.184 8  -9259988.635 9
  24629995.279    -5607708.965 5  -4408815.712 3
 94  5 15 16 25  0.0020000  0  8 31  2 29 18 19 28 27 16
  22771831.379    -6323745.247 7  -4563787.357 6
  23209890.247   -10170766.155 7  -8653579.550 6
  24538300.128    35143673.818 5  14832316.525 3
  22328794.307    20517743.221 7   7145349.397 7
  21412624.838     3124831.431 8    478167.427 9
  25009261.519     3968822.607 5   4812447.772 3
  21749466.668     7821802.061 8  -9287704.832 9
  24630693.436    -5604027.958 5  -4405947.353 3
 94  5 15 16 25 30.0020000  0  8 31  2 29 18 19 28 27 16
  22779437.144    -6283773.065 7  -4532640.195 6
  23199922.508   -10223150.475 7  -8694398.483 6
  24560378.764    35259697.548 5  14922724.534 3
  22346437.993    20610459.477 7   7217595.775 7
  21415757.400     3141279.169 8    490983.845 9
  25025508.561     4054155.979 5   4878941.272 3
  21742730.481     7786407.372 8  -9315285.099 9
  24631483.659    -5599827.332 5  -4402674.204 3
 94  5 15 16 26  0.0020000  0  8 31  2 29 18 19 28 27 16
  22787150.804    -6243231.389 6  -4501049.311 6
  23190002.675   -10275280.672 7  -8735019.399 6
  24582492.954    35375890.012 5  15013264.016 3
  22364156.716    20703575.727 7   7290153.807 7
  21418925.456     3157936.102 8    503963.247 9
  25041806.898     4139878.073 5   4945737.715 3
  21736030.119     7751174.806 8  -9342739.043 9
  24632384.775    -5595128.975 5  -4399013.157 3
 94  5 15 16 26 30.0020000  0  8 31  2 29 18 19 28 27 16
  22794973.318    -6202115.452 7  -4469010.928 6
  23180131.169   -10327151.512 7  -8775438.227 6
  24604638.803    35492253.824 5  15103936.987 3
  22381953.746    20797087.222 7   7363019.850 7
  21422133.655     3174793.090 8    517098.561 9
  25058183.121     4225987.038 5   5012835.558 3
  21729356.470     7716103.776 8  -9370067.114 9
  24633376.248    -5589935.572 5  -4394966.360 3
 94  5 15 16 27  0.0020000  0  8 31  2 29 18 19 28 27 16
  22802910.504    -6160418.429 7  -4436519.753 6
  23170308.889   -10378755.349 7  -8815648.991 6
  24626805.757    35608804.135 5  15194755.299 3
  22399822.426    20890988.622 7   7436189.714 7
  21425380.258     3191851.272 8    530390.643 9
  25074652.669     4312474.274 5   5080228.151 3
  21722714.208     7681204.366 8  -9397261.474 9
  24634448.636    -5584230.447 4  -4390520.847 3
 94  5 15 16 27 30.0020000  0  8 31  2 29 18 19 28 27 16
  22810956.154    -6118133.680 6  -4403570.610 6
  23160545.878   -10430075.329 7  -8855638.566 6
  24649026.374    35725550.776 4  15285726.580 3
  22417761.557    20985265.703 7   7509652.327 7
  21428668.382     3209128.881 8    543853.702 9
  25091174.711     4399331.241 5   5147908.845 3
  21716106.842     7646491.855 8  -9424310.181 9
  24635643.939    -5577996.234 5  -4385663.037 3
 94  5 15 16 28  0.0020000  0  8 31  2 29 18 19 28 27 16
  22819121.241    -6075239.132 6  -4370146.292 6
  23150835.840   -10481106.078 7  -8895402.763 6
  24671277.930    35842482.446 4  15376842.053 3
  22435771.738    21079916.209 7   7583405.944 7
  21431998.086     3226643.999 8    557501.847 9
  25107778.357     4486563.188 5   5215881.805 3
  21709542.407     7611985.124 8  -9451198.540 9
  24636940.421    -5571216.632 5  -4380380.211 3
 94  5 15 16 28 30.0020000  0  8 31  2 29 18 19 28 27 16
  22827401.749    -6031718.997 7  -4336234.517 6
  23141178.326   -10531853.740 7  -8934946.387 6
  24693560.814    35959594.645 4  15468098.165 3
  22453854.470    21174944.826 7   7657454.187 7
  21435383.403     3244416.581 8    571350.600 9
  25124449.635     4574179.912 5   5284154.520 3
  21703014.995     7577685.347 8  -9477925.643 9
  24638325.582    -5563893.512 5  -4374673.926 3
 94  5 15 16 29  0.0020000  0  8 31  2 29 18 19 28 27 16
  22835800.224    -5987584.024 6  -4301843.625 6
  23131576.453   -10582312.784 7  -8974265.083 6
  24715885.758    36076874.927 5  15559485.254 3
  22472007.923    21270335.030 7   7731784.151 7
  21438814.258     3262449.726 8    585402.392 9
  25141196.462     4662182.421 5   5352727.859 3
  21696526.078     7543578.690 8  -9504502.255 9
  24639820.407    -5556026.991 5  -4368544.168 3
 94  5 15 16 29 30.0020000  0  8 31  2 29 18 19 28 27 16
  22844316.429    -5942840.236 7  -4266978.355 6
  23122023.776   -10632494.514 7  -9013367.730 6
  24738229.920    36194305.644 5  15650989.591 3
  22490222.413    21366068.977 7   7806382.003 7
  21442294.518     3280735.424 8    599650.987 9
  25158032.237     4750572.725 5   5421603.405 3
  21690071.936     7509659.677 8  -9530932.647 9
  24641424.597    -5547633.137 5  -4362003.537 3
 94  5 15 16 30  0.0020000  0  8 31  2 29 18 19 28 27 16
  22852942.867    -5897488.259 6  -4231639.164 6
  23112529.649   -10682402.878 7  -9052257.349 6
  24760602.741    36311878.851 5  15742604.960 3
  22508512.091    21462155.231 7   7881254.346 7
  21445821.187     3299263.382 8    614088.356 9
  25174926.501     4839360.435 4   5490788.570 2
  21683648.882     7475923.387 8  -9557220.663 9
  24643118.364    -5538726.047 5  -4355062.968 3
 94  5 15 16 30 30.0020000  0  8 31  2 29 18 19 28 27 16
  22861685.804    -5851548.671 7  -4195842.083 6
  23103084.807   -10732029.743 7  -9090927.612 6
  24783009.619    36429597.706 5  15834333.803 3
  22526861.368    21558592.968 7   7956400.573 7
  21449387.518     3318019.976 8    628703.872 9
  25191887.349     4928546.979 5   5560284.531 2
  21677263.872     7442370.749 8  -9583365.584 9
  24644907.196    -5529300.755 5  -4347718.606 3
 94  5 15 16 31  0.0020000  0  8 31  2 29 18 19 28 27 16
  22870534.568    -5805043.119 6  -4159604.008 6
  23093697.856   -10781375.490 7  -9129378.818 6
  24805430.018    36547455.920 5  15926171.301 3
  22545274.741    21655366.807 7   8031808.723 7
  21453000.917     3336993.796 8    643488.669 9
  25208936.696     5018114.356 5   5630077.268 3
  21670912.589     7409003.682 8  -9609365.894 9
  24646815.375    -5519341.893 5  -4339958.467 3
 94  5 15 16 31 30.0020000  0  8 31  2 29 18 19 28 27 16
  22879495.695    -5757973.016 7  -4122926.012 6
  23084358.421   -10830449.378 7  -9167618.206 6
  24827885.702    36665453.505 5  16018117.273 3
  22563754.728    21752481.576 7   8107482.491 7
  21456652.808     3356193.982 8    658449.851 9
  25226039.376     5108059.931 4   5700164.680 2
  21664602.498     7375836.151 7  -9635210.716 9
  24648795.684    -5508855.391 5  -4331787.186 3
 94  5 15 16 32  0.0020000  0  8 31  2 29 18 19 28 27 16
  22888557.761    -5710345.800 6  -4085813.915 6
  23075071.750   -10879256.282 7  -9205649.534 6
  24850369.327    36783586.164 5  16110168.631 3
  22582302.857    21849941.994 7   8183425.618 6
  21460352.157     3375624.576 8    673590.564 9
  25243227.257     5198373.562 4   5770538.891 2
  21658331.559     7342867.043 8  -9660900.922 9
  24650893.871    -5497840.285 5  -4323203.992 3
 94  5 15 16 32 30.0020000  0  8 31  2 29 18 19 28 27 16
  22897722.387    -5662164.671 7  -4048270.186 6
  23065833.766   -10927802.318 7  -9243477.593 6
  24872866.893    36901856.720 5  16202327.328 2
  22600916.431    21947743.733 7   8259634.723 6
  21464093.058     3395294.703 8    688917.919 9
  25260496.502     5289035.382 4   5841184.481 2
  21652091.679     7310105.590 7  -9686429.328 9
  24653097.196    -5486295.209 5  -4314207.863 3
 94  5 15 16 33  0.0020000  0  8 31  2 29 18 19 28 27 16
  22907001.773    -5613405.488 7  -4010276.038 6
  23056644.797   -10976093.536 7  -9281107.103 6
  24895410.086    37020273.586 5  16294600.073 2
  22619594.790    22045902.397 7   8336121.935 6
  21467887.291     3415227.590 8    704450.032 9
  25277804.090     5380045.606 5   5912101.486 2
  21645902.224     7277557.730 7  -9711791.293 9
  24655388.810    -5474227.510 5  -4304804.482 3
 94  5 15 16 33 30.0020000  0  8 31  2 29 18 19 28 27 16
  22916395.649    -5564049.783 7  -3971817.063 6
  23047500.887   -11024126.912 7  -9318535.682 6
  24917960.355    37138840.458 4  16386989.741 2
  22638343.451    22144433.241 7   8412899.155 6
  21471732.459     3435433.419 8    720194.826 9
  25295186.057     5471417.192 4   5983300.078 2
  21639752.011     7245233.224 8  -9736979.224 9
  24657783.522    -5461649.243 5  -4295003.254 3
 94  5 15 16 34  0.0020000  0  8 31  2 29 18 19 28 27 16
  22925899.370    -5514093.957 7  -3932890.450 6
  23038408.362   -11071903.963 7  -9355764.537 6
  24940567.165    37257554.207 5  16479493.807 2
  22657165.920    22243332.245 7   8489963.271 6
  21475627.003     3455901.354 8    736143.857 9
  25312652.116     5563140.032 5   6054772.359 2
  21633640.622     7213120.238 8  -9762002.325 9
  24660271.649    -5448560.671 5  -4284804.408 3
 94  5 15 16 34 30.0020000  0  8 31  2 29 18 19 28 27 16
  22935518.901    -5463541.108 7  -3893498.615 6
  23029370.009   -11119418.079 7  -9392788.515 6
  24963181.709    37376409.859 4  16572108.434 2
  22676052.935    22342590.767 7   8567307.527 6
  21479571.942     3476629.626 8    752295.757 9
  25330162.783     5655209.441 4   6126514.738 2
  21627566.527     7181210.340 8  -9786867.182 9
  24662860.987    -5434966.147 5  -4274211.256 3
 94  5 15 16 35  0.0020000  0  8 31  2 29 18 19 28 27 16
  22945253.971    -5412396.746 7  -3853645.879 6
  23020378.214   -11166661.524 7  -9429601.575 6
  24985820.476    37495407.307 4  16664833.608 2
  22695007.104    22442198.098 7   8644923.584 6
  21483565.237     3497612.788 8    768646.267 9
  25347760.660     5747641.893 5   6198539.964 2
  21621532.035     7149499.754 8  -9811576.727 9
  24665550.485    -5420862.215 5  -4263221.216 3
 94  5 15 16 35 30.0020000  0  8 31  2 29 18 19 28 27 16
  22955098.106    -5360673.762 7  -3813342.276 5
  23011443.409   -11213619.695 7  -9466192.334 6
  25008489.883    37614544.819 5  16757667.874 2
  22714024.408    22542139.368 7   8722799.846 6
  21487604.671     3518845.121 8    785190.944 9
  25365415.109     5840444.743 4   6270853.825 2
  21615536.126     7117991.226 8  -9836128.840 9
  24668326.893    -5406237.047 5  -4251825.015 3
 94  5 15 16 36  0.0020000  0  8 31  2 29 18 19 28 27 16
  22965045.610    -5308388.362 6  -3772600.410 5
  23002562.657   -11260285.007 7  -9502554.910 6
  25031191.757    37733819.880 4  16850609.343 2
  22733103.500    22642403.383 7   8800927.599 6
  21491693.990     3540324.068 8    801927.787 9
  25383128.706     5933613.022 4   6343452.448 3
  21609580.359     7086685.368 8  -9860523.014 9
  24671213.025    -5391089.372 5  -4240021.622 3
 94  5 15 16 36 30.0020000  0  8 31  2 29 18 19 28 27 16
  22975101.428    -5255540.303 6  -3731420.112 5
  22993738.536   -11306651.572 7  -9538684.680 6
  25053915.485    37853235.358 4  16943660.183 2
  22752248.456    22742992.310 7   8879308.537 6
  21495829.027     3562054.509 8    818860.584 9
  25400948.369     6027158.906 5   6416345.280 3
  21603663.805     7055592.615 8  -9884751.135 9
  24674189.424    -5375410.918 5  -4227804.662 3
 94  5 15 16 37  0.0020000  0  8 31  2 29 18 19 28 27 16
  22985265.772    -5202127.752 6  -3689799.953 5
  22984968.977   -11352722.057 7  -9574583.747 6
  25076675.369    37972803.993 4  17036830.414 2
  22771448.724    22843911.600 7   8957946.891 6
  21500011.012     3584038.249 8    835990.767 9
  25418813.152     6121083.300 4   6489533.079 2
  21597788.052     7024717.875 8  -9908809.379 9
  24677274.318    -5359193.089 5  -4215167.428 3
 94  5 15 16 37 30.0020000  0  8 31  2 29 18 19 28 27 16
  22995538.310    -5148147.585 7  -3647737.523 5
  22976259.796   -11398510.086 7  -9610262.712 6
  25099452.880    38092515.845 5  17130112.221 2
  22790720.283    22945174.359 7   9036852.878 6
  21504240.034     3606264.371 8    853309.814 9
  25436761.397     6215370.369 5   6563003.503 3
  21591954.571     6994055.318 8  -9932702.278 9
  24680469.117    -5342445.944 5  -4202117.709 3
 94  5 15 16 38  0.0020000  0  8 31  2 29 18 19 28 27 16
  23005919.883    -5093600.156 6  -3605233.033 5
  22967593.336   -11444033.942 7  -9645735.818 7
  25122250.868    38212366.365 5  17223502.081 2
  22810052.579    23046782.448 7   9116027.962 6
  21508515.015     3628718.663 8    870806.659 9
  25454768.221     6310001.785 5   6636742.224 3
  21586157.814     6963593.772 8  -9956438.530 9
  24683752.863    -5325183.690 5  -4188666.617 3
 94  5 15 16 38 30.0020000  0  8 31  2 29 18 19 28 27 16
  23016404.135    -5038485.289 7  -3562286.407 5
  22958982.307   -11489302.752 7  -9681010.207 7
  25145086.269    38332347.218 5  17316993.486 2
  22829456.016    23148728.594 7   9195466.470 6
  21512828.519     3651398.550 8    888479.309 9
  25472830.566     6404958.695 5   6710734.554 3
  21580396.283     6933336.870 8  -9980015.359 9
  24687133.113    -5307409.201 5  -4174816.388 3
 94  5 15 16 39  0.0020000  0  8 31  2 29 18 19 28 27 16
  23027000.239    -4982815.550 7  -3518907.400 5
  22950411.661   -11534321.672 7  -9716089.878 7
  25167943.945    38452438.267 5  17410570.726 2
  22848916.085    23251000.754 7   9275159.018 6
  21517188.760     3674308.879 8    906331.508 9
  25490966.451     6500225.752 4   6784968.575 3
  21574677.891     6903278.564 8 -10003437.409 9
  24690607.468    -5289145.075 5  -4160584.603 3
 94  5 15 16 39 30.0020000  0  8 31  2 29 18 19 28 27 16
  23037699.742    -4926591.200 7  -3475096.247 5
  22941892.099   -11579094.942 7  -9750978.132 7
  25190810.435    38572612.241 5  17504212.609 2
  22868438.929    23353588.630 7   9355097.577 6
  21521593.701     3697449.022 8    924362.775 9
  25509153.840     6595795.973 5   6859438.860 3
  21568997.844     6873426.701 8 -10026698.604 9
  24694166.544    -5270417.215 5  -4145991.523 3
 94  5 15 16 40  0.0020000  0  7 31  2 29 18 19 27 16
  23048502.704    -4869829.350 7  -3430866.243 5
  22933422.212   -11623610.003 7  -9785665.180 7
  25213697.161    38692860.738 5  17597912.613 2
  22888015.856    23456465.069 7   9435260.991 6
  21526041.272     3720829.566 8    942581.375 9
  21563357.039     6843781.812 8 -10049798.529 9
  24697831.657    -5251230.549 5  -4131040.865 3
 94  5 15 16 40 30.0020000  0  7 31  2 29 18 19 27 16
  23059402.258    -4812534.185 6  -3386220.674 5
  22925001.552   -11667864.101 7  -9820148.860 7
  25236586.285    38813175.381 5  17691664.082 2
  22907647.136    23559626.489 7   9515646.490 6
  21530538.548     3744459.718 8    960994.486 9
  21557755.536     6814346.548 8 -10072735.089 9
  24701562.124    -5231588.814 5  -4115735.647 3
 94  5 15 16 41  0.0020000  0  7 31  2 29 18 19 27 16
  23070414.444    -4754694.068 6  -3341150.463 5
  22916630.417   -11711856.056 7  -9854428.304 7
  25259501.551    38933564.164 5  17785473.416 2
  22927334.836    23663093.137 7   9596269.799 6
  21535081.034     3768326.291 8    979591.798 9
  21552192.857     6785110.459 8 -10095516.460 9
  24705385.797    -5211492.753 5  -4100076.425 3
 94  5 15 16 41 30.0020000  0  7 31  2 29 18 19 27 16
  23081523.374    -4696299.752 6  -3295648.416 5
  22908313.245   -11755580.987 7  -9888499.649 7
  25282425.931    39054043.861 4  17879353.442 2
  22947084.834    23766875.177 7   9677138.882 6
  21539662.762     3792421.335 8    998367.150 9
  21546669.721     6756090.711 8 -10118129.258 9
  24709300.997    -5190922.109 5  -4084047.340 3
 94  5 15 16 42  0.0020000  0  7 31  2 29 18 19 27 16
  23092739.749    -4637361.889 6  -3249722.812 5
  22900038.074   -11799047.379 7  -9922369.558 7
  25305363.262    39174616.170 4  17973305.766 2
  22966894.939    23870966.157 7   9758248.680 6
  21544290.088     3816738.765 8   1017315.784 9
  21541186.547     6727270.821 8 -10140586.323 9
  24713306.554    -5169860.182 5  -4067635.492 3
 94  5 15 16 42 30.0020000  0  7 31  2 29 18 19 27 16
  23104061.891    -4577870.970 6  -3203366.277 5
  22891818.934   -11842259.650 7  -9956041.459 7
  25328337.077    39295287.214 4  18067334.946 2
  22986762.995    23975380.444 7   9839610.426 6
  21548960.945     3841274.792 8   1036434.758 9
  21535743.185     6698665.551 8 -10162876.140 9
  24717413.291    -5148291.639 5  -4050828.857 3
 94  5 15 16 43  0.0020000  0  7 31  2 29 18 19 27 16
  23115485.123    -4517825.745 6  -3156577.802 5
  22883643.953   -11885207.442 7  -9989507.238 7
  25351310.623    39416062.128 4  18161445.155 2
  23006687.172    24080107.453 7   9921215.822 6
  21553672.063     3866042.471 8   1055734.245 9
  21530341.974     6670282.822 8 -10184992.548 9
  24721619.199    -5126200.227 5  -4033614.777 3
 94  5 15 16 43 30.0020000  0  7 31  2 29 18 19 27 16
  23127015.171    -4457240.863 6  -3109368.830 5
  22875520.297   -11927895.109 7 -10022770.346 7
  25374318.525    39536935.808 4  18255632.192 2
  23026671.667    24185118.473 7  10003042.520 6
  21558438.194     3891072.464 8   1075238.124 9
  21524982.165     6642128.244 8 -10206931.195 9
  24725927.007    -5103574.197 5  -4015984.125 3
 94  5 15 16 44  0.0020000  0  7 31  2 29 18 19 27 16
  23138643.400    -4396123.169 6  -3061744.658 5
  22867441.789   -11970332.677 7 -10055838.566 7
  25397340.037    39657906.706 4  18349895.052 2
  23046703.829    24290400.293 7  10085080.274 6
  21563250.223     3916362.169 8   1094944.389 9
  21519667.294     6614189.466 8 -10228701.654 9
  24730331.408    -5080421.654 5  -3997943.187 3
 94  5 15 16 44 30.0020000  0  7 31  2 29 18 19 27 16
  23150378.566    -4334464.988 6  -3013699.360 5
  22859414.577   -12012523.011 7 -10088714.138 7
  25420373.542    39778978.277 4  18444236.326 2
  23066795.140    24395950.141 7  10167326.868 6
  21568110.698     3941905.806 8   1114848.504 9
  21514393.825     6586464.386 8 -10250305.618 9
  24734841.695    -5056760.812 5  -3979506.195 3
 94  5 15 16 45  0.0020000  0  7 31  2 29 18 19 27 16
  23162212.304    -4272262.376 7  -2965229.787 5
  22851436.020   -12054471.136 7 -10121400.986 7
  25443434.297    39900149.314 4  18538655.125 2
  23086928.212    24501768.005 6  10249782.281 6
  21573022.257     3967711.061 8   1134956.492 9
  21509150.815     6558938.705 8 -10271754.202 9
  24739423.364    -5032611.995 4  -3960688.967 3
 94  5 15 16 45 30.0020000  0  7 31  2 29 18 19 27 16
  23174155.556    -4209510.380 7  -2916332.148 5
  22843495.807   -12096167.589 7 -10153891.699 7
  25466517.837    40021438.579 4  18633166.118 2
  23107119.024    24607880.341 6  10332467.193 5
  21577985.412     3993779.419 8   1155269.481 9
  21503960.148     6531629.575 8 -10293034.045 9
  24744109.390    -5007978.429 4  -3941494.001 3
 94  5 15 16 46  0.0020000  0  6 31  2 18 19 27 16
  23186202.026    -4146204.197 6  -2867002.661 5
  22835614.053   -12137599.206 7 -10186176.083 7
  23127376.660    24714306.157 7  10415396.350 5
  21582991.106     4020103.024 8   1175781.379 9
  21498803.868     6504538.174 8 -10314144.226 9
  24748890.210    -4982880.238 5  -3921937.002 3
 94  5 15 16 46 30.0020000  0  6 31  2 18 19 27 16
  23198349.677    -4082361.383 6  -2817255.023 5
  22827782.845   -12178751.115 7 -10218242.493 7
  23147684.422    24821044.109 7  10498568.732 5
  21588051.993     4046697.405 8   1196504.260 9
  21493688.719     6477662.059 8 -10335086.674 9
  24753758.210    -4957326.904 5  -3902025.301 3
 94  5 15 16 47  0.0020000  0  6 31  2 18 19 27 16
  23210600.995    -4018007.453 6  -2767109.117 5
  22820006.198   -12219613.140 7 -10250083.021 7
  23168057.897    24928081.354 7  10581974.342 5
  21593163.124     4073566.280 8   1217441.044 9
  21488617.610     6451015.374 8 -10355850.316 9
  24758706.254    -4931307.786 5  -3881750.723 3
 94  5 15 16 47 30.0020000  0  6 31  2 18 19 27 16
  23222939.553    -3953152.456 6  -2716572.755 5
  22812283.845   -12260180.911 7 -10281694.245 7
  23188477.181    25035409.486 7  10665606.615 5
  21598330.287     4100698.623 8   1238583.127 9
  21483589.191     6424599.789 8 -10376433.880 9
  24763747.025    -4904816.605 5  -3861108.258 3
 94  5 15 16 48  0.0020000  0  6 31  2 18 19 27 16
  23235377.043    -3887792.964 6  -2665643.311 5
  22804621.179   -12300450.099 7 -10313072.831 7
  23208956.724    25143010.897 7  10749451.810 5
  21603540.920     4128079.839 8   1259919.129 9
  21478606.220     6398403.311 8 -10396846.724 9
  24768868.679    -4877851.471 4  -3840096.496 3
 94  5 15 16 48 30.0020000  0  6 31  2 18 19 27 16
  23247910.496    -3821933.950 6  -2614324.627 5
  22797012.567   -12340436.546 7 -10344231.076 7
  23229477.068    25250860.097 7  10833490.099 5
  21608791.275     4155685.899 8   1281430.343 9
  21473660.934     6372418.896 8 -10417094.322 9
  24774091.543    -4850408.401 5  -3818712.291 3
 94  5 15 16 49  0.0020000  0  6 31  2 18 19 27 16
  23260537.035    -3755566.590 6  -2562609.808 5
  22789455.458   -12380163.565 7 -10375187.183 7
  23250049.246    25358942.194 7  10917709.871 5
  21614084.441     4183491.016 8   1303096.658 9
  21468758.578     6346650.257 8 -10437173.773 9
  24779409.472    -4822495.963 4  -3796962.391 3
 94  5 15 16 49 30.0020000  0  6 31  2 18 19 27 16
  23273269.191    -3688680.697 6  -2510490.957 5
  22781943.948   -12419636.298 7 -10405945.146 7
  23270657.279    25467259.216 6  11002112.700 5
  21619411.363     4211490.896 8   1324914.723 9
  21463894.685     6321089.389 8 -10457091.330 9
  24784812.751    -4794135.668 5  -3774863.493 3
 94  5 15 16 50  0.0020000  0  6 31  2 18 19 27 16
  23286091.704    -3621283.260 6  -2457973.487 5
  22774477.497   -12458860.933 7 -10436509.769 7
  23291315.918    25575804.775 7  11086693.620 5
  21624780.916     4239702.666 8   1346897.914 9
  21459072.373     6295750.200 8 -10476836.158 9
  24790287.141    -4765328.771 4  -3752416.557 3
 94  5 15 16 50 30.0020000  0  6 31  2 18 19 27 16
  23299011.320    -3553376.575 6  -2405059.199 5
  22767057.484   -12497853.985 7 -10466893.958 7
  23312015.597    25684594.518 7  11171464.803 5
  21630196.397     4268159.556 8   1369072.105 9
  21454296.829     6270664.917 8 -10496383.113 9
  24795855.666    -4736067.516 5  -3729615.635 3
 94  5 15 16 51  0.0030000  0  6 31  2 18 19 27 16
  23312032.985    -3484957.262 6  -2351745.467 5
  22759685.408   -12536605.443 7 -10497089.895 7
  23332769.660    25793654.793 7  11256446.821 5
  21635661.403     4296891.447 8   1391460.579 9
  21449573.839     6245850.001 8 -10515719.422 9
  24801512.420    -4706349.914 4  -3706459.099 3
 94  5 15 16 51 30.0030000  0  6 31  2 18 19 27 16
  23325150.404    -3416029.739 6  -2298035.737 5
  22752360.099   -12575100.092 7 -10527085.708 7
  23353573.577    25902994.401 7  11341646.459 5
  21641185.979     4325918.657 8   1414079.188 9
  21444903.103     6221299.417 8 -10534849.747 9
  24807263.009    -4676169.565 5  -3682941.934 3
 94  5 15 16 52  0.0030000  0  6 31  2 18 19 27 16
  23338363.757    -3346589.056 6  -2243926.148 5
  22745081.108   -12613346.698 7 -10556888.234 7
  23374434.636    26012620.495 7  11427069.322 5
  21646767.425     4355251.226 8   1436935.719 9
  21440281.142     6197004.599 8 -10553780.768 9
  24813094.542    -4645506.424 5  -3659048.612 3
 94  5 15 16 52 30.0030000  0  6 31  2 18 19 27 16
  23351674.212    -3276640.181 6  -2189420.546 5
  22737854.971   -12651341.035 7 -10586494.203 7
  23395350.166    26122527.708 6  11512711.261 5
  21652404.722     4384863.440 8   1460010.170 9
  21435699.114     6172934.916 8 -10572536.361 9
  24819013.554    -4614382.840 5  -3634796.491 3
 94  5 15 16 53  0.0030000  0  6 31  2 18 19 27 16
  23365081.021    -3206183.802 6  -2134519.498 5
  22730674.881   -12689060.545 7 -10615886.019 7
  23416314.383    26232703.942 6  11598562.817 5
  21658090.136     4414744.910 8   1483294.421 9
  21431154.051     6149053.050 8 -10591145.596 9
  24825021.215    -4582800.309 5  -3610186.750 3
 94  5 15 16 53 30.0030000  0  6 31  2 18 19 27 16
  23378588.380    -3135218.273 6  -2079221.712 5
  22723547.375   -12726516.171 7 -10645072.200 7
  23437332.802    26343135.939 6  11684613.676 5
  21663824.267     4444885.946 8   1506780.922 9
  21426645.232     6125348.770 8 -10609616.469 9
  24831116.146    -4550757.669 5  -3585218.528 3
 94  5 15 16 54  0.0030000  0  6 31  2 18 19 27 16
  23392185.767    -3063766.174 6  -2023544.771 5
  22716468.826   -12763725.093 7 -10674066.157 7
  23458389.055    26453798.896 6  11770844.494 5
  21669604.685     4475255.223 8   1530445.271 9
  21422168.851     6101825.959 8 -10627945.942 9
  24837303.952    -4518266.197 5  -3559900.506 3
 94  5 15 16 54 30.0030000  0  6 31  2 18 19 27 16
  23405870.393    -2991829.991 6  -1967490.602 5
  22709433.177   -12800677.468 7 -10702860.193 7
  23479488.688    26564684.108 6  11857248.524 5
  21675426.504     4505842.295 8   1554279.349 9
  21417731.533     6078504.337 8 -10646118.626 9
  24843570.784    -4485333.983 5  -3534239.005 3
 94  5 15 16 55  0.0030000  0  6 31  2 18 19 27 16
  23419654.640    -2919413.307 6  -1911062.056 5
  22702446.513   -12837390.045 7 -10731467.377 7
  23500632.960    26675783.306 6  11943819.267 5
  21681285.378     4536644.154 8   1578280.782 9
  21413335.047     6055409.852 8 -10664114.341 9
  24849918.350    -4451954.206 5  -3508228.877 3
 94  5 15 16 55 30.0030000  0  6 31  2 18 19 27 16
  23433522.710    -2846517.750 6  -1854260.343 5
  22695506.078   -12873873.367 7 -10759895.937 7
  23521817.435    26787096.422 6  12030556.700 5
  21687187.453     4567656.632 8   1602446.329 9
  21408990.214     6032576.861 8 -10681906.299 9
  24856357.292    -4418137.823 5  -3481878.458 3
 94  5 15 16 56  0.0030000  0  6 31  2 18 19 27 16
  23447488.422    -2773136.402 6  -1797080.109 5
  22688610.492   -12910116.576 7 -10788137.372 7
  23543033.777    26898615.193 6  12117454.385 5
  21693130.358     4598889.353 8   1626783.497 9
  21404696.107     6010019.049 8 -10699483.823 9
  24862870.943    -4383886.812 5  -3455189.417 3
 94  5 15 16 56 30.0030000  0  6 31  2 18 19 27 16
  23461547.249    -2699251.284 6  -1739507.295 5
  22681762.333   -12946108.579 7 -10816183.066 8
  23564299.855    27010352.904 6  12204522.702 5
  21699126.208     4630381.270 8   1651322.650 9
  21400457.791     5987740.984 8 -10716843.355 9
  24869474.621    -4349198.730 5  -3428159.749 3
 94  5 15 16 57  0.0030000  0  6 31  2 18 19 27 16
  23475702.849    -2624871.638 6  -1681549.184 5
  22674958.303   -12981858.550 7 -10844040.190 8
  23585602.807    27122314.815 6  12291765.679 5
  21705173.441     4662155.473 8   1676081.746 9
  21396270.050     5965734.929 8 -10733990.943 9
  24876158.224    -4314080.220 5  -3400794.714 3
 94  5 15 16 57 30.0030000  0  6 31  2 18 19 27 16
  23489949.826    -2550006.126 6  -1623212.452 5
  22668200.681   -13017369.812 7 -10871711.284 8
  23606949.919    27234484.102 6  12379170.278 5
  21711272.869     4694217.598 8   1701065.207 9
  21392129.587     5943975.701 8 -10750946.186 9
  24882918.874    -4278541.596 5  -3373102.282 3
 94  5 15 16 58  0.0030000  0  6 31  2 18 19 27 16
  23504284.912    -2474670.145 6  -1564509.101 5
  22661488.388   -13052644.948 7 -10899198.395 8
  23628334.384    27346852.471 6  12466729.986 5
  21717425.809     4726560.134 8   1726267.163 9
  21388032.773     5922445.615 8 -10767722.875 9
  24889765.534    -4242575.067 5  -3345076.441 3
 94  5 15 16 58 30.0030000  0  6 31  2 18 19 27 16
  23518703.670    -2398881.680 6  -1505453.177 5
  22654819.115   -13087682.204 7 -10926500.136 8
  23649757.943    27459439.531 6  12554460.109 5
  21723630.883     4759169.246 7   1751676.853 9
  21383980.209     5901142.734 8 -10784322.512 9
  24896688.911    -4206177.774 5  -3316714.950 3
 94  5 15 16 59  0.0030000  0  6 31  2 18 19 27 16
  23533215.274    -2322650.956 6  -1446052.644 5
  22648194.871   -13122482.035 7 -10953616.887 8
  23671222.394    27572239.342 6  12642355.999 5
  21729881.796     4792018.722 7   1777273.832 9
  21379967.906     5880065.320 8 -10800746.471 9
  24903699.797    -4169344.249 5  -3288013.513 3
 94  5 15 16 59 30.0030000  0  6 31  2 18 19 27 16
  23547801.316    -2245977.802 6  -1386307.346 5
  22641618.534   -13157046.759 7 -10980550.420 8
  23692721.200    27685244.984 6  12730412.307 5
  21736175.129     4825084.930 8   1803039.692 9
  21376000.932     5859211.872 8 -10816995.921 9
  24910794.416    -4132068.231 5  -3258967.280 3
 94  5 15 17  0  0.0030000  0  6 31  2 18 19 27 16
  23562481.164    -2168855.303 6  -1326211.883 5
  22635088.964   -13191363.403 8 -11007290.641 8
  23714270.012    27798472.593 6  12818641.559 5
  21742508.155     4858371.457 7   1828977.234 9
  21372079.887     5838604.754 8 -10833053.415 9
  24917970.908    -4094351.604 5  -3229577.760 3
 94  5 15 17  0 30.0030000  0  6 31  2 18 19 27 16
  23577240.096    -2091278.522 6  -1265762.510 5
  22628607.001   -13225424.740 8 -11033831.939 8
  23735864.453    27911927.391 6  12907047.823 5
  21748886.389     4891884.866 7   1855091.563 9
  21368202.701     5818241.412 8 -10848920.968 9
  24925221.178    -4056221.851 4  -3199866.307 3
 94  5 15 17  1  0.0030000  0  7 31  2 18 19 27  7 16
  23592091.545    -2013244.272 6  -1204956.627 5
  22622176.483   -13259233.167 7 -11060176.159 8
  23757494.659    28025583.284 6  12995610.793 5
  21755307.764     4925630.134 7   1881386.559 9
  21364372.193     5798118.046 8 -10864601.508 9
  24753157.935     -649922.11615   -183366.255
  24932562.736    -4017696.075 5  -3169846.254 3
 94  5 15 17  1 30.0030000  0  7 31  2 18 19 27  7 16
  23607026.006    -1934761.862 6  -1143801.494 5
  22615788.056   -13292788.461 7 -11086323.140 8
  23779158.321    28139431.335 6  13084323.504 4
  21761773.987     4959607.766 7   1907862.617 9
  21360592.589     5778240.745 8 -10880090.314 9
  24734709.547     -746850.417 5   -258902.068
  24939965.871    -3978794.012 5  -3139532.952 3
 94  5 15 17  2  0.0030000  0  7 31  2 18 19 27  7 16
  23622040.721    -1855835.110 6  -1082300.174 5
  22609451.223   -13326088.764 7 -11112271.423 8
  23800857.359    28253468.054 6  13173183.213 4
  21768284.940     4993824.088 7   1934524.667 9
  21356857.865     5758612.213 8 -10895385.282 9
  24716261.368     -843741.978 5   -334402.455 1
  24947436.669    -3939520.066 5  -3108929.945 3
 94  5 15 17  2 30.0030000  0  7 31  2 18 19 27  7 16
  23637148.073    -1776466.137 6  -1020454.241 5
  22603165.084   -13359141.029 7 -11138026.419 8
  23822595.161    28367698.507 6  13262193.933 4
  21774843.919     5028288.569 7   1961380.087 9
  21353167.240     5739230.481 8 -10910487.940 9
  24697838.822     -940589.319 5   -409867.907 1
  24954985.983    -3899851.635 4  -3078019.477 3
 94  5 15 17  3  0.0030000  0  7 31  2 18 19 27  7 16
  23652333.670    -1696667.534 6   -958273.541 5
  22596917.919   -13391967.514 7 -11163605.496 8
  23844362.911    28482096.519 6  13351335.175 4
  21781451.045     5063007.531 7   1988433.800 9
  21349530.248     5720106.376 8 -10925389.842 9
  24679422.541    -1037397.106 5   -485302.499 2
  24962618.489    -3859768.606 4  -3046786.027 3
 94  5 15 17  3 30.0030000  0  7 31  2 18 19 27  7 16
  23667606.387    -1616437.147 6   -895756.387 5
  22590707.838   -13424572.953 7 -11189012.302 8
  23866162.050    28596676.520 6  13440618.218 4
  21788107.817     5097999.024 7   2015699.890 9
  21345940.113     5701242.315 8 -10940089.105 9
  24661011.597    -1134167.039 5   -560707.546 2
  24970311.463    -3819260.814 5  -3015221.545 3
 94  5 15 17  4  0.0030000  0  7 31  2 18 19 27  7 16
  23682950.634    -1535772.993 6   -832901.231 5
  22584542.367   -13456961.984 7 -11214250.508 8
  23888004.179    28711437.589 6  13530042.395 4
  21794820.140     5133269.919 7   2043183.680 9
  21342400.134     5682630.829 8 -10954591.567 9
  24642605.479    -1230910.972 5   -636092.366 2
  24978113.592    -3778325.098 4  -2983323.559 3
 94  5 15 17  4 30.0030000  0  7 31  2 18 19 27  7 16
  23698383.950    -1454688.789 6   -769718.773 5
  22578422.883   -13489133.212 7 -11239318.980 8
  23909872.899    28826367.334 6  13619597.957 4
  21801583.248     5168814.843 7   2070881.004 9
  21338903.175     5664258.554 8 -10968907.612 9
  24624185.241    -1327627.708 5   -711456.039 2
  24985971.452    -3736984.062 4  -2951109.840 3
 94  5 15 17  5  0.0030000  0  7 31  2 18 19 27  7 16
  23713893.083    -1373183.965 6   -706208.520 5
  22572343.062   -13521084.402 8 -11264216.001 8
  23931772.888    28941457.378 6  13709278.437 4
  21808398.190     5204624.541 7   2098784.640 9
  21335451.035     5646120.254 8 -10983041.358 9
  24605797.951    -1424307.652 5   -786790.980 2
  24993920.389    -3695248.870 4  -2918588.891 3
 94  5 15 17  5 30.0030000  0  7 31  2 18 19 27  7 16
  23729483.970    -1291245.155 6   -642360.119 5
  22566309.889   -13552797.775 8 -11288927.715 8
  23953710.172    29056729.075 6  13799100.486 4
  21815262.838     5240685.498 7   2126884.074 9
  21332044.073     5628214.338 8 -10996994.031 9
  24587398.998    -1520923.621 5   -862076.078 2
  25001943.255    -3653122.194 4  -2885762.979 3
 94  5 15 17  6  0.0030000  0  7 31  2 18 19 27  7 16
  23745163.296    -1208860.426 6   -578164.276 4
  22560318.117   -13584268.595 8 -11313450.426 8
  23975681.031    29172174.746 6  13889058.086 4
  21822166.009     5276978.606 7   2155164.391 9
  21328680.672     5610543.975 8 -11010763.148 9
  24569043.815    -1617440.650 5   -937284.116 2
  25010025.210    -3610599.439 4  -2852628.415 3
 94  5 15 17  6 30.0030000  0  7 31  2 18 19 27  7 16
  23760923.325    -1126025.947 6   -513617.961 5
  22554375.661   -13615501.037 8 -11337787.376 8
  23997679.832    29287789.171 6  13979147.184 4
  21829114.808     5313496.901 7   2183620.209 9
  21325363.678     5593114.051 8 -11024344.907 9
  24550695.107    -1713845.766 5  -1012404.934 2
  25018201.030    -3567678.958 4  -2819183.869 3
 94  5 15 17  7  0.0030000  0  7 31  2 18 19 27  7 16
  23776774.252    -1042735.833 6   -448716.572 5
  22548481.291   -13646488.095 8 -11361933.141 8
  24019716.826    29403577.946 6  14069372.154 4
  21836106.748     5350248.089 7   2212257.474 9
  21322098.668     5575954.538 8 -11037715.954 9
  24532376.979    -1810130.644 5  -1087432.020 3
  25026446.372    -3524348.278 4  -2785419.751 2
 94  5 15 17  7 30.0030000  0  7 31  2 18 19 27  7 16
  23792709.630     -958979.225 6   -383451.713 4
  22542633.420   -13677205.610 8 -11385868.852 8
  24041786.917    29519559.708 6  14159747.472 4
  21843152.140     5387255.837 7   2241094.648 9
  21318889.630     5559087.112 8 -11050859.400 9
  24514069.673    -1906287.389 5  -1162359.307 3
  25034774.546    -3480602.396 4  -2751332.106 2
 94  5 15 17  8  0.0030000  0  7 31  2 18 19 27  7 16
  23808739.682     -874768.563 6   -317833.066 4
  22536842.808   -13707651.505 8 -11409592.927 8
  24063895.082    29635731.615 6  14250270.969 4
  21850247.209     5424535.920 7   2270144.041 9
  21315732.246     5542512.670 8 -11063774.580 9
  24495800.140    -2002329.212 5  -1237197.061 3
  25043165.467    -3436449.552 4  -2716927.323 3
 94  5 15 17  8 30.0030000  0  7 31  2 18 19 27  7 16
  23824840.846     -790122.416 6   -251875.014 5
  22531103.402   -13737812.763 8 -11433095.170 8
  24086037.034    29752109.426 6  14340954.919 4
  21857398.158     5462120.753 7   2299430.909 9
  21312641.206     5526248.397 8 -11076448.026 9
  24477542.180    -2098268.626 5  -1311954.989 3
  25051647.525    -3391889.779 4  -2682205.448 2
 94  5 15 17  9  0.0030000  0  7 31  2 18 19 27  7 16
  23841035.005     -705050.336 6   -185585.114 4
  22525415.319   -13767692.014 8 -11456377.709 8
  24108226.532    29868702.777 6  14431806.825 4
  21864610.715     5500019.367 7   2328962.277 9
  21309603.858     5510282.257 8 -11088889.173 9
  24459306.345    -2194115.686 5  -1386640.918 3
  25060208.699    -3346921.658 4  -2647165.395 2
 94  5 15 17  9 30.0030000  0  7 31  2 18 19 27  7 16
  23857306.780     -619543.789 6   -118956.674 4
  22519779.761   -13797304.781 8 -11479452.587 8
  24130453.715    29985507.547 6  14522823.464 3
  21871881.641     5538234.399 7   2358740.213 9
  21306618.555     5494598.799 8 -11101110.058 9
  24441081.571    -2289865.263 5  -1461250.925 3
  25068836.036    -3301552.717 4  -2611812.999 2
 94  5 15 17 10  0.0030000  0  7 31  2 18 19 27  7 16
  23873658.510     -533607.355 6    -51993.238 4
  22514192.859   -13826651.446 8 -11502320.103 8
  24152715.523    30102501.867 6  14613987.796 4
  21879216.124     5576767.964 7   2388766.331 9
  21303688.144     5479206.058 8 -11113104.398 9
  24422879.223    -2385516.620 5  -1535784.425 3
  25077543.028    -3255779.174 4  -2576145.363 2
 94  5 15 17 10 30.0030000  0  7 31  2 18 19 27  7 16
  23890094.002     -447227.680 6     15315.576 4
  22508666.544   -13855719.840 8 -11524970.798 8
  24175016.394    30219688.192 6  14705301.757 3
  21886606.847     5615615.675 7   2419037.272 9
  21300816.552     5464119.643 8 -11124860.055 9
  24404701.187    -2481057.428 5  -1610231.732 3
  25086337.560    -3209582.152 4  -2540147.763 2
 94  5 15 17 11  0.0030000  0  7 31  2 18 19 27  7 16
  23906621.920     -360396.377 6     82976.297 4
  22503184.749   -13884518.666 8 -11547411.428 8
  24197350.513    30337044.444 6  14796748.079 3
  21894054.681     5654749.657 7   2449531.243 9
  21298006.237     5449340.702 8 -11136376.110 9
  24386545.666    -2576480.349 5  -1684587.166 3
  25095200.234    -3162966.857 4  -2503824.153 2
 94  5 15 17 11 30.0030000  0  7 31  2 18 19 27  7 16
  23923224.906     -273121.035 6    150983.024 4
  22497757.696   -13913039.581 8 -11569635.529 9
  24219709.844    30454557.504 6  14888316.656 4
  21901554.409     5694170.982 7   2480249.141 9
  21295255.132     5434889.979 8 -11147636.432 9
  24368410.560    -2671756.585 5  -1758828.340 3
  25104156.564    -3115935.024 4  -2467176.004 2
 94  5 15 17 12  0.0030000  0  7 31  2 18 19 27  7 16
  23939920.918     -185413.439 6    219326.569 4
  22492386.765   -13941275.559 8 -11591637.571 8
  24242106.169    30572239.277 6  14980016.692 3
  21909112.297     5733868.887 7   2511182.559 9
  21292566.233     5420770.325 8 -11158638.758 9
  24350307.173    -2766879.491 5  -1832950.065 3
  25113185.024    -3068472.663 4  -2430192.449 2
 94  5 15 17 12 30.0030000  0  7 31  2 18 19 27  7 16
  23956692.807      -97270.793 6    288009.150 4
  22487063.020   -13969240.995 8 -11613428.811 9
  24264532.504    30690103.342 6  15071858.709 3
  21916715.843     5773831.871 7   2542322.525 9
  21289943.289     5406970.756 8 -11169391.672 9
  24332240.061    -2861827.160 5  -1906935.217 3
  25122296.946    -3020588.639 4  -2392880.197 2
 94  5 15 17 13  0.0030000  0  7 31  2 18 19 27  7 16
  23973555.113       -8685.912 6    357036.286 4
  22481791.320   -13996940.447 8 -11635012.787 9
  24286998.201    30808158.681 6  15163849.799 3
  21924373.712     5814096.522 7   2573697.556 9
  21287377.695     5393492.672 8 -11179894.071 9
  24314213.480    -2956573.623 5  -1980763.551 3
  25131496.437    -2972296.078 4  -2355249.707 2
 94  5 15 17 13 30.0030000  0  7 31  2 18 19 27  7 16
  23990491.348       80348.128 6    426413.411 4
  22476574.032   -14024368.400 8 -11656385.226 9
  24309503.681    30926414.464 6  15255997.082 3
  21932100.353     5854684.747 7   2605324.733 9
  21284870.471     5380326.507 8 -11190153.435 9
  24296219.367    -3051121.885 5  -2054437.490 3
  25140768.238    -2923599.812 4  -2317304.610 2
 94  5 15 17 14  0.0030000  0  7 31  2 18 19 27  7 16
  24007523.158      169837.103 6    496145.066 4
  22471408.518   -14051521.360 8 -11677543.365 9
  24332042.048    31044866.703 6  15348297.426 3
  21939888.301     5895593.562 7   2637201.710 9
  21282426.323     5367467.025 8 -11200173.800 9
  24278260.090    -3145496.855 5  -2127976.376 3
  25150105.424    -2874515.238 4  -2279056.905 2
 94  5 15 17 14 30.0030000  0  7 31  2 18 19 27  7 16
  24024632.943      259775.258 6    566226.710 4
  22466289.561   -14078400.620 8 -11698488.227 9
  24354614.471    31163490.352 6  15440731.395 3
  21947736.658     5936841.212 7   2669342.709 8
  21280036.078     5354922.074 8 -11209949.083 9
  24260336.429    -3239704.200 6  -2201384.627 3
  25159507.785    -2825062.157 4  -2240522.057 2
 94  5 15 17 15  0.0030000  0  7 31  2 18 19 27  7 16
  24041831.676      350148.385 6    636647.281 4
  22461230.204   -14105001.910 8 -11719216.508 9
  24377219.452    31282264.486 6  15533282.571 3
  21955649.770     5978435.073 7   2701753.496 9
  21277709.598     5342699.857 8 -11219472.898 9
  24242432.763    -3333769.964 5  -2274682.575 3
  25168985.964    -2775238.224 4  -2201698.310 2
 94  5 15 17 15 30.0030000  0  7 31  2 18 19 27  7 16
  24059109.405      440942.096 6    707395.610 4
  22456225.469   -14131308.191 8 -11739714.900 9
  24399850.335    31401185.799 6  15625948.455 3
  21963628.536     6020348.128 7   2734413.001 8
  21275446.825     5330808.425 8 -11228738.947 9
  24224556.768    -3427715.666 5  -2347887.003 3
  25178547.244    -2725020.124 4  -2162567.339 2
 94  5 15 17 16  0.0030000  0  7 31  2 18 19 27  7 16
  24076462.262      532142.242 6    778460.618 4
  22451273.137   -14157318.895 8 -11759982.969 9
  24422509.489    31520261.798 6  15718734.859 3
  21971660.666     6062567.840 7   2767311.458 8
  21273251.385     5319262.508 8 -11237735.769 9
  24206703.108    -3521533.479 5  -2420991.721 3
  25188182.484    -2674397.078 4  -2123120.879 2
 94  5 15 17 16 30.0030000  0  7 31  2 18 19 27  7 16
  24093894.954      623744.879 6    849839.257 4
  22446379.265   -14183036.150 8 -11780022.382 9
  24445200.720    31639509.700 6  15811655.190 3
  21979753.803     6105104.399 7   2800456.809 8
  21271119.710     5308072.174 8 -11246455.503 9
  24188877.419    -3615205.118 5  -2493982.533 3
  25197896.929    -2623350.746 5  -2083344.558 2
 94  5 15 17 17  0.0030000  0  7 31  2 18 19 27  7 16
  24111406.760      715759.534 6    921538.951 4
  22441541.034   -14208454.236 8 -11799828.685 9
  24467931.883    31758950.749 5  15904726.047 3
  21987908.368     6147957.821 7   2833849.081 8
  21269060.736     5297236.336 8 -11254899.012 9
  24171086.055    -3708718.581 5  -2566850.114 3
  25207700.652    -2571872.868 4  -2043231.943 2
 94  5 15 17 17 30.0030000  0  7 31  2 18 19 27  7 16
  24128990.637      808184.351 6    993558.262 4
  22436760.154   -14233583.122 8 -11819409.638 9
  24490694.795    31878597.409 5  15997957.128 3
  21996120.223     6191116.879 7   2867479.495 8
  21267062.139     5286737.826 8 -11263079.682 9
  24153322.453    -3802064.103 5  -2639586.817 3
  25217560.106    -2519981.507 5  -2002797.182 2
 94  5 15 17 18  0.0030000  0  7 31  2 18 19 27  7 16
  24146659.805      901024.684 6   1065901.339 4
  22432030.179   -14258446.359 8 -11838783.570 9
  24513502.585    31998445.000 5  16091344.729 3
  22004395.184     6234595.205 7   2901358.698 8
  21265128.988     5276578.020 8 -11270996.410 9
  24135591.738    -3895219.345 5  -2712175.228 4
  25227517.653    -2467696.417 5  -1962055.597 2
 94  5 15 17 18 30.0030000  0  7 31  2 18 19 27  7 16
  24164403.831      994276.655 6   1138565.165 4
  22427347.990   -14283056.613 8 -11857960.391 9
  24536342.843    32118461.337 5  16184863.887 3
  22012730.884     6278392.406 7   2935486.359 8
  21263252.976     5266727.870 8 -11278671.851 9
  24117902.993    -3988187.533 5  -2784617.917 4
  25237534.948    -2415040.464 5  -1921024.970 2
 94  5 15 17 19  0.0030000  0  8 31  2 18 19 27  7 16 26
  24182225.324     1087938.161 6   1211548.127 4
  22422710.141   -14307414.755 8 -11876940.750 9
  24559204.866    32238620.433 5  16278494.213 3
  22021121.085     6322490.775 7   2969848.711 8
  21261435.994     5257172.838 8 -11286117.339 9
  24100246.746    -4080971.212 5  -2856916.783 4
  25247628.720    -2362026.470 5  -1879715.442 2
  25915980.840    -1849085.80214  -1728529.903 2
 94  5 15 17 19 30.0030000  0  8 31  2 18 19 27  7 16 26
  24200124.313     1182012.061 5   1284852.444 4
  22418126.644   -14331510.500 8 -11895716.648 9
  24582095.010    32358914.477 5  16372229.764 3
  22029566.838     6366881.888 7   3004439.167 8
  21259675.703     5247935.708 8 -11293315.106 9
  24082623.507    -4173562.510 5  -2929065.832 3
  25257781.672    -2308631.487 4  -1838109.039 2
  25900044.083    -1932792.522 5  -1793755.932 2
 94  5 15 17 20  0.0030000  0  8 31  2 18 19 27  7 16 26
  24218110.331     1276506.427 6   1358484.339 4
  22413597.170   -14355325.582 8 -11914273.854 9
  24605014.713    32479331.650 6  16466061.193 3
  22038075.698     6411578.521 7   3039267.709 8
  21257989.160     5239044.003 8 -11300243.716 9
  24065047.874    -4265946.196 5  -3001053.043 3
  25268024.201    -2254835.087 4  -1796189.778 2
  25884167.614    -2016300.246 5  -1858826.836 2
 94  5 15 17 20 30.0030000  0  8 31  2 18 19 27  7 16 26
  24236169.739     1371419.582 6   1432442.597 4
  22409115.452   -14378846.218 8 -11932601.602 9
  24627952.283    32599856.866 6  16559976.828 3
  22046635.972     6456571.804 7   3074327.395 8
  21256363.056     5230498.482 8 -11306902.546 9
  24047504.349    -4358127.871 6  -3072882.845 4
  25278336.612    -2200639.602 4  -1753959.641 2
  25868299.119    -2099609.797 5  -1923743.333 3
 94  5 15 17 21  0.0030000  0  8 31  2 18 19 27  7 16 26
  24254312.819     1466739.197 6   1506717.631 4
  22404696.272   -14402080.003 8 -11950705.847 9
  24650907.062    32720501.587 6  16653985.660 3
  22055253.566     6501852.344 7   3109610.911 8
  21254806.953     5222321.260 8 -11313274.424 9
  24029998.748    -4450106.857 5  -3144554.709 4
  25288722.622    -2146048.800 4  -1711421.384 2
  25852494.540    -2182712.120 5  -1988498.375 3
 94  5 15 17 21 30.0030000  0  8 31  2 18 19 27  7 16 26
  24272526.320     1562468.099 6   1581311.533 4
  22400328.205   -14425032.836 8 -11968591.178 9
  24673891.370    32841286.497 6  16748103.651 3
  22063926.352     6547439.067 7   3145133.003 8
  21253319.983     5214521.203 8 -11319352.392 9
  24012538.775    -4541870.515 5  -3216058.845 3
  25299180.552    -2091069.433 5  -1668580.352 2
  25836722.729    -2265591.510 5  -2053079.675 3
 94  5 15 17 22  0.0030000  0  8 31  2 18 19 27  7 16 26
  24290827.900     1658600.452 6   1656219.793 4
  22396014.042   -14447718.651 8 -11986268.418 9
  24696900.591    32962209.049 6  16842328.917 3
  22072662.394     6593347.861 7   3180906.078 8
  21251903.523     5207081.489 8 -11325149.573 9
  23995121.103    -4633420.562 6  -3287396.470 4
  25309708.633    -2035731.780 4  -1625460.223 2
  25820994.837    -2348239.987 5  -2117481.014 3
 94  5 15 17 22 30.0030000  0  8 31  2 18 19 27  7 16 26
  24309188.719     1755123.068 6   1731432.201 4
  22391744.158   -14470149.033 8 -12003746.633 9
  24719942.460    33083274.069 6  16936665.200 3
  22081464.120     6639575.580 7   3216927.673 8
  21250550.650     5199986.556 8 -11330678.092 9
  23977732.871    -4724773.307 5  -3358580.331 4
  25320307.616    -1980052.320 4  -1582073.649 2
  25805320.368    -2430662.137 4  -2181706.095 2
 94  5 15 17 23  0.0030000  0  8 31  2 18 19 27  7 16 26
  24327631.291     1852014.258 6   1806931.776 4
  22387520.652   -14492341.404 8 -12021039.393 9
  24743007.352    33204485.777 6  17031115.732 3
  22090317.292     6686115.913 7   3253192.848 8
  21249267.268     5193225.033 8 -11335946.819 9
  23960384.481    -4815947.354 6  -3429624.982 4
  25330983.015    -1924042.080 5  -1538429.396 2
  25789668.204    -2512872.065 5  -2245765.700 2
 94  5 15 17 23 30.0030000  0  8 31  2 18 19 27  7 16 26
  24346131.994     1949253.229 6   1882702.366 4
  22383342.744   -14514297.276 8 -12038147.859 9
  24766095.149    33325820.803 6  17125662.444 3
  22099230.001     6732966.402 7   3289699.700 8
  21248038.299     5186769.522 8 -11340977.090 9
  23943067.509    -4906956.775 6  -3500541.396 4
  25341682.159    -1867711.649 4  -1494535.591 2
  25774066.285    -2594882.744 5  -2309670.084 3
 94  5 15 17 24  0.0030000  0  8 31  2 18 19 27  7 16 26
  24364698.440     2046826.399 5   1958733.356 4
  22379208.876   -14536016.398 8 -12055071.850 9
  24789201.293    33447262.589 5  17220292.314 2
  22108207.197     6780110.420 7   3326435.288 8
  21246869.438     5180618.248 8 -11345770.301 9
  23925778.059    -4997812.879 6  -3571338.285 4
  25352470.520    -1811053.333 4  -1450386.298 2
  25758492.217    -2676698.640 5  -2373422.677 3
 94  5 15 17 24 30.0030000  0  8 31  2 18 19 27  7 16 26
  24383325.325     2144725.034 5   2035017.982 4
  22375119.767   -14557501.007 8 -12071813.096 9
  24812330.581    33568800.531 5  17314997.111 2
  22117227.112     6827525.380 7   3363381.988 8
  21245754.750     5174763.207 8 -11350332.680 9
  23908519.456    -5088522.001 6  -3642020.635 5
  25363318.360    -1754069.866 4  -1405983.700 2
  25742960.659    -2758334.251 5  -2437034.856 2
 94  5 15 17 25  0.0030000  0  8 31  2 18 19 27  7 16 26
  24402024.700     2242956.197 6   2111561.700 4
  22371080.363   -14578746.722 8 -12088368.192 9
  24835480.165    33690434.064 5  17409776.405 2
  22126304.228     6875218.718 7   3400545.620 8
  21244696.723     5169209.829 8 -11354659.979 9
  23891283.998    -5179064.740 6  -3712573.355 5
  25374221.752    -1696757.826 4  -1361324.983 2
  25727454.524    -2839779.917 5  -2500498.949 2
 94  5 15 17 25 30.0030000  0  8 31  2 18 19 27  7 16 26
  24420777.318     2341529.898 5   2188372.331 4
  22367081.522   -14599760.447 8 -12104742.523 9
  24858635.954    33812149.350 5  17504619.345 2
  22135430.360     6923191.982 7   3437927.364 8
  21243696.735     5163956.193 8 -11358753.730 9
  23874089.822    -5269441.293 6  -3782996.612 5
  25385191.817    -1639123.725 5  -1316415.356 2
  25711997.794    -2921028.968 5  -2563809.816 2
 94  5 15 17 26  0.0030000  0  8 31  2 18 19 27  7 16 26
  24439610.760     2440467.983 5   2265466.908 4
  22363123.991   -14620540.272 8 -12120934.587 9
  24881824.271    33933949.754 5  17599528.605 2
  22144616.211     6971453.771 7   3475533.934 8
  21242758.984     5159029.985 8 -11362592.332 9
  23856922.176    -5359648.932 6  -3853288.211 5
  25396220.612    -1581169.626 4  -1271256.396 2
  25696578.719    -3002068.950 5  -2626957.899 2
 94  5 15 17 26 30.0030000  0  8 31  2 18 19 27  7 16 26
  24458505.359     2539779.527 5   2342852.478 4
  22359220.244   -14641062.914 8 -12136926.266 9
  24905019.484    34055846.774 5  17694513.139 2
  22153858.723     7020031.007 7   3513386.312 8
  21241890.185     5154456.535 8 -11366156.079 9
  23839792.605    -5449658.603 6  -3923425.567 5
  25407308.976    -1522899.030 4  -1225850.805 2
  25681202.364    -3082883.109 5  -2689929.928 2
 94  5 15 17 27  0.0030000  0  8 31  2 18 19 27  7 16 26
  24477480.273     2639460.831 6   2420526.190 4
  22355365.602   -14661321.868 8 -12152712.458 9
  24928235.622    34177847.027 5  17789578.157 2
  22163166.229     7068935.424 7   3551493.622 8
  21241091.568     5150254.843 8 -11369430.128 9
  23822703.835    -5539459.668 6  -3993400.390 4
  25418446.266    -1464310.671 4  -1180197.595 2
  25665865.911    -3163449.299 5  -2752708.729 2
 94  5 15 17 27 30.0030000  0  8 31  2 18 19 27  7 16 26
  24496514.816     2739507.970 5   2498484.967 4
  22351561.056   -14681308.580 8 -12168286.518 9
  24951469.657    34299947.223 5  17884720.994 2
  22172532.405     7118161.233 7   3589851.371 8
  21240364.572     5146438.720 8 -11372403.735 9
  23805652.660    -5629052.690 6  -4063213.095 4
  25429663.870    -1405403.749 4  -1134296.195 2
  25650580.213    -3243766.870 5  -2815293.841 2
 94  5 15 17 28  0.0030000  0  8 31  2 18 19 27  7 16 26
  24515624.306     2839904.863 5   2576716.277 4
  22347811.702   -14701012.075 8 -12183639.894 9
  24974716.643    34422153.090 5  17979946.242 2
  22181960.129     7167700.513 7   3628453.395 8
  21239710.275     5143015.227 8 -11375071.401 9
  23788652.119    -5718413.693 6  -4132844.991 4
  25440942.902    -1346173.908 4  -1088143.112 2
  25635344.880    -3323833.618 5  -2877683.477 2
 94  5 15 17 28 30.0030000  0  8 31  2 18 19 27  7 16 26
  24534781.314     2940627.613 5   2655201.488 4
  22344114.691   -14720438.103 8 -12198777.060 9
  24997995.708    34544472.343 5  18075259.800 2
  22191444.752     7217544.127 7   3667292.553 8
  21239131.465     5139970.030 8 -11377444.281 9
  23771694.838    -5807535.842 6  -4202290.783 4
  25452267.622    -1286618.329 4  -1041736.213 2
  25620153.317    -3403660.343 5  -2939886.065 2
 94  5 15 17 29  0.0030000  0  8 31  2 18 19 27  7 16 26
  24554010.272     3041679.890 5   2733943.476 4
  22340468.286   -14739604.158 8 -12213711.648 9
  25021293.089    34666907.334 5  18170663.523 2
  22200986.697     7267689.997 7   3706367.244 8
  21238623.827     5137293.366 8 -11379530.001 9
  23754772.333    -5896430.145 6  -4271559.026 4
  25463656.767    -1226735.350 4   -995074.210 2
  25605015.657    -3483262.871 5  -3001914.062 2
 94  5 15 17 29 30.0030000  0  8 31  2 18 19 27  7 16 26
  24573305.455     3143061.110 5   2812941.811 4
  22336869.127   -14758522.170 8 -12228452.961 9
  25044616.133    34789446.314 5  18266148.295 2
  22210589.439     7318139.205 7   3745678.297 8
  21238183.072     5134972.957 8 -11381338.128 9
  23737902.742    -5985093.343 6  -4340647.159 4
  25475122.630    -1166530.489 4   -948161.405 2
  25589909.924    -3562653.624 5  -3063776.881 2
 94  5 15 17 30  0.0030000  0  8 31  2 18 19 27  7 16 26
  24592658.077     3244774.113 5   2892198.675 4
  22333314.158   -14777196.961 8 -12243004.735 9
  25067957.164    34912099.311 5  18361721.932 3
  22220248.782     7368903.323 7   3785234.719 8
  21237805.093     5133005.317 8 -11382871.354 9
  23721072.753    -6073518.113 6  -4409549.510 4
  25486644.643    -1105999.588 4   -900994.618 2
  25574838.038    -3641817.596 5  -3125463.031 2
 94  5 15 17 30 30.0030000  0  8 31  2 18 19 27  7 16 26
  24612077.134     3346824.462 5   2971718.366 4
  22329807.066   -14795637.101 8 -12257373.674 9
  25091317.442    35034861.579 5  18457380.694 3
  22229966.015     7419992.310 7   3825044.306 8
  21237500.025     5131389.073 8 -11384130.780 9
  23704293.159    -6161710.363 6  -4478270.690 4
  25498217.142    -1045155.431 4   -853583.568 2
  25559819.245    -3720756.951 5  -3186974.205 2
 94  5 15 17 31  0.0030000  0  8 31  2 18 19 27  7 16 26
  24631562.594     3449220.552 5   3051507.529 4
  22326340.896   -14813848.609 8 -12271564.452 9
  25114691.181    35157712.289 5  18553108.399 3
  22239750.311     7471406.578 7   3865107.363 8
  21237256.893     5130110.752 8 -11385126.862 9
  23687554.397    -6249670.634 6  -4546811.094 4
  25509845.372     -984017.596 4   -805943.822 2
  25544833.909    -3799468.391 5  -3248307.772 2
 94  5 15 17 31 30.0030000  0  8 31  2 18 19 27  7 16 26
  24651121.054     3551954.734 5   3131560.109 4
  22322920.384   -14831825.109 8 -12285572.126 9
  25138088.334    35280643.502 5  18648898.806 3
  22249596.605     7523133.530 7   3905414.057 7
  21237075.579     5129164.228 8 -11385864.435 9
  23670859.375    -6337398.640 6  -4615170.537 5
  25521541.025     -922585.828 4   -758074.973 2
  25529911.440    -3877939.916 5  -3309454.356 2
 94  5 15 17 32  0.0030000  0  8 31  2 18 19 27  7 16 26
  24670728.350     3655016.955 5   3211868.312 3
  22319542.382   -14849570.603 8 -12299399.782 9
  25161501.465    35403659.460 5  18744755.245 3
  22259496.082     7575160.031 7   3945954.146 7
  21236959.109     5128552.361 8 -11386341.226 9
  23654207.913    -6424901.759 6  -4683354.737 5
  25533284.855     -860865.910 4   -709981.557 2
  25515019.520    -3956169.737 5  -3370412.645 2
 94  5 15 17 32 30.0030000  0  8 31  2 18 19 27  7 16 26
  24690398.633     3758400.527 5   3292426.893 3
  22316209.440   -14867090.115 8 -12313051.342 9
  25184918.554    35526741.380 5  18840663.089 3
  22269451.949     7627468.543 7   3986713.996 7
  21236905.656     5128266.952 8 -11386563.625 9
  23637598.481    -6512186.236 6  -4751368.566 5
  25545076.681     -798873.016 4   -661675.546 2
  25500176.075    -4034162.162 5  -3431185.906 2
 94  5 15 17 33  0.0030000  0  8 31  2 18 19 27  7 16 26
  24710134.540     3862101.011 5   3373232.441 3
  22312919.098   -14884372.773 8 -12326518.359 9
  25208351.741    35649882.115 5  18936616.752 2
  22279456.923     7680049.528 7   4027686.164 7
  21236914.710     5128313.617 8 -11386527.260 9
  23621031.890    -6599253.492 6  -4819213.149 5
  25556929.486     -736587.889 4   -613141.725 2
  25485380.328    -4111893.993 5  -3491756.131 2
 94  5 15 17 33 30.0030000  0  8 31  2 18 19 27  7 16 26
  24729923.960     3966099.166 5   3454269.951 3
  22309677.472   -14901415.747 8 -12339798.588 9
  25231798.689    35773073.351 5  19032609.791 2
  22289511.842     7732892.753 7   4068862.683 7
  21236990.977     5128707.849 8 -11386220.066 9
  23604505.741    -6686111.014 6  -4886894.260 5
  25568841.859     -673996.349 4   -564369.172 2
  25470636.895    -4189360.246 5  -3552119.407 2
 94  5 15 17 34  0.0030000  0  8 31  2 18 19 27  7 16 26
  24749776.097     4070395.945 5   3535540.123 3
  22306480.395   -14918215.530 8 -12352889.338 9
  25255238.682    35896304.267 4  19128633.707 2
  22299621.054     7786005.692 7   4110249.358 7
  21237136.976     5129468.491 8 -11385627.374 9
  23588014.367    -6772748.577 6  -4954404.005 5
  25580817.039     -611104.845 4   -515362.891 2
  25455953.000    -4266556.445 5  -3612272.277 2
 94  5 15 17 34 30.0030000  0  8 31  2 18 19 27  7 16 26
  24769682.496     4174995.329 5   3617046.098 3
  22303331.525   -14934757.033 8 -12365778.821 9
  25278697.262    36019561.858 4  19224678.418 2
  22309783.808     7839410.802 7   4151863.691 7
  21237352.107     5130603.554 8 -11384742.922 9
  23571573.299    -6859150.683 6  -5021730.283 5
  25592845.312     -547909.344 4   -466119.697 2
  25441320.460    -4343470.852 5  -3672205.539 2
 94  5 15 17 35  0.0030000  0  8 31  2 18 19 27  7 16 26
  24789637.341     4279884.039 5   3698777.544 3
  22300235.148   -14951038.378 8 -12378465.575 9
  25302150.596    36142845.330 4  19320743.275 2
  22320005.682     7893125.837 7   4193719.544 7
  21237639.188     5132117.539 8 -11383563.196 9
  23555181.397    -6945307.215 6  -5088865.186 5
  25604917.864     -484416.109 4   -416644.546 2
  25426734.808    -4420119.406 5  -3731931.633 3
 94  5 15 17 35 30.0030000  0  9 31  2 15 18 19 27  7 16 26
  24809648.877     4385061.527 5   3780734.031 3
  22297182.812   -14967069.824 8 -12390957.607 9
  25784361.248      190824.66013    -49418.442
  25325623.835    36266159.709 4  19416832.238 2
  22330288.653     7947164.700 7   4235827.739 7
  21237999.269     5134012.043 8 -11382086.966 9
  23538835.423    -7031210.429 6  -5155802.691 5
  25617050.345     -420649.974 4   -366956.736 2
  25412191.966    -4496515.107 5  -3791460.723 3
 94  5 15 17 36  0.0030000  0  9 31  2 15 18 19 27  7 16 26
  24829722.381     4490542.030 5   3862926.573 3
  22294179.191   -14982853.543 8 -12403256.616 9
  25773901.849      135844.160 3    -92262.307
  25349105.290    36389527.947 4  19512963.175 2
  22340636.619     8001545.408 7   4278202.287 7
  21238430.610     5136286.678 8 -11380314.535 9
  23522534.808    -7116842.661 6  -5222529.057 5
  25629246.202     -356628.051 4   -317069.552 2
  25397706.384    -4572650.345 5  -3850786.861 3
 94  5 15 17 36 30.0030000  0  9 31  2 15 18 19 27  7 16 26
  24849846.339     4596311.031 5   3945343.942 3
  22291221.229   -14998391.219 8 -12415363.889 9
  25763476.956       81063.817 4   -134948.115 1
  25372578.290    36512957.300 4  19609141.701 2
  22351047.302     8056274.226 7   4320848.106 7
  21238935.611     5138924.851 8 -11378258.824 9
  23506294.961    -7202208.904 6  -5289048.186 5
  25641469.040     -292353.169 4   -266985.330 2
  25383271.377    -4648519.240 5  -3909905.449 3
 94  5 15 17 37  0.0030000  0  9 31  2 15 18 19 27  7 16 26
  24870040.719     4702378.325 5   4027993.749 3
  22288312.103   -15013685.163 8 -12427281.246 9
  25753098.981       26489.963 5   -177473.213 1
  25396099.256    36636464.667 5  19705381.095 2
  22361529.006     8111340.989 7   4363757.238 7
  21239508.274     5141933.630 8 -11375914.341 9
  23490095.705    -7287315.508 6  -5355364.965 5
  25653748.749     -227826.348 4   -216704.752 2
  25368877.352    -4724120.105 5  -3968815.192 3
 94  5 15 17 37 30.0030000  0  9 31  2 15 18 19 27  7 16 26
  24890279.708     4808759.829 5   4110888.452 3
  22285445.577   -15028737.065 8 -12439009.989 9
  25742748.436      -27872.227 5   -219833.326 1
  25419620.103    36760058.605 5  19801687.843 2
  22372072.706     8166734.645 7   4406921.111 7
  21240151.239     5145320.086 8 -11373275.549 9
  23473952.391    -7372169.679 6  -5421485.048 5
  25666089.256     -163039.592 4   -166221.679 2
  25354551.080    -4799425.161 5  -4027494.429 3
 94  5 15 17 38  0.0030000  0  9 31  2 15 18 19 27  7 16 26
  24910581.713     4915442.294 5   4194017.553 3
  22282629.776   -15043541.008 8 -12450545.525 9
  25732446.128      -82024.356 4   -262029.785 2
  25443149.314    36883729.003 5  19898054.262 2
  22382673.188     8222439.827 7   4450327.719 7
  21240865.765     5149080.870 8 -11370345.076 9
  23457847.840    -7456775.078 6  -5487411.297 5
  25678461.331      -97986.692 4   -115531.153 2
  25340279.340    -4874435.658 5  -4085944.121 3
 94  5 15 17 38 30.0030000  0  9 31  2 15 18 19 27  7 16 26
  24930935.043     5022415.154 5   4277373.003 3
  22279859.874   -15058097.560 8 -12461888.302 9
  25722174.999     -135965.255 3   -304061.535 2
  25466687.699    37007445.094 5  19994456.202 2
  22393328.651     8278448.270 7   4493970.637 7
  21241652.690     5153207.123 8 -11367129.821 9
  23441794.343    -7541141.742 6  -5553151.518 5
  25690891.416      -32668.323 4    -64633.830 2
  25326057.425    -4949157.515 5  -4144168.926 3
 94  5 15 17 39  0.0030000  0  9 31  2 15 18 19 27  7 16 26
  24951344.883     5129677.443 5   4360954.007 3
  22277134.910   -15072421.083 8 -12473049.482 9
  25711967.036     -189696.229 4   -345929.648 2
  25490240.204    37131199.193 5  20090887.850 2
  22404040.835     8334748.322 7   4537840.782 7
  21242505.420     5157699.111 8 -11363629.582 9
  23425786.775    -7625264.911 6  -5618701.979 5
  25703378.281       32914.575 4    -13530.372 2
  25311887.975    -5023600.291 5  -4202176.240 3
 94  5 15 17 39 30.0030000  0  9 31  2 15 18 19 27  7 16 26
  24971810.365     5237221.245 5   4444754.324 3
  22274452.098   -15086521.951 8 -12484037.166 9
  25701779.009     -243212.998 5   -387630.928 2
  25513790.221    37254974.459 5  20187335.871 2
  22414813.847     8391350.815 7   4581946.603 7
  21243428.421     5162550.662 8 -11359849.156 9
  23409833.230    -7709131.629 6  -5684052.633 5
  25715899.203       98770.802 4     37786.126 2
  25297769.549    -5097764.497 5  -4259966.534 3
 94  5 15 17 40  0.0030000  0  9 31  2 15 18 19 27  7 16 26
  24992325.223     5345038.026 5   4528767.351 3
  22271810.566   -15100397.508 8 -12494849.281 9
  25691634.242     -296510.965 5   -429161.745 2
  25537349.951    37378765.491 5  20283796.273 2
  22425645.289     8448266.762 7   4626296.680 7
  21244422.502     5167759.190 8 -11355790.572 9
  23393924.953    -7792727.434 6  -5749192.197 5
  25728483.621      164904.773 4     89319.008 2
  25283717.467    -5171658.476 5  -4317546.179 3
 94  5 15 17 40 30.0030000  0  9 31  2 15 18 19 27  7 16 26
  25012900.309     5453130.334 5   4612995.089 3
  22269213.344   -15114061.350 8 -12505496.423 9
  25681530.037     -349593.101 4   -470524.404 2
  25560909.680    37502572.684 5  20380269.189 2
  22436534.800     8505500.067 7   4670894.033 7
  21245479.481     5173316.901 8 -11351459.906 9
  23378064.193    -7876052.362 6  -5814120.689 5
  25741124.071      231297.455 4    141053.511 2
  25269709.304    -5245281.897 5  -4374915.069 3
 94  5 15 17 41  0.0030000  0  9 31  2 15 18 19 27  7 16 26
  25033523.302     5561500.300 5   4697439.215 3
  22266651.768   -15127515.742 8 -12515980.357 9
  25671474.098     -402456.155 4   -511716.346 2
  25584475.436    37626414.430 5  20476769.144 2
  22447483.521     8563044.695 7   4715733.995 7
  21246608.319     5179242.447 8 -11346842.589 9
  23362260.933    -7959098.714 6  -5878832.080 6
  25753806.461      297950.166 4    192990.542 2
  25255748.689    -5318637.601 5  -4432075.336 3
 94  5 15 17 41 30.0030000  0  9 31  2 15 18 19 27  7 16 26
  25054197.050     5670138.025 5   4782091.918 3
  22264133.571   -15140751.712 8 -12526294.103 9
  25661451.317     -455100.547 4   -552737.929 2
  25608045.149    37750284.513 5  20573291.051 2
  22458496.037     8620894.083 7   4760811.410 7
  21247802.782     5185541.452 8 -11341934.290 9
  23346511.816    -8041862.428 6  -5943323.276 6
  25766554.326      364847.167 4    245117.997 2
  25241838.379    -5391717.947 5  -4489021.034 3
 94  5 15 17 42  0.0030000  0  9 31  2 15 18 19 27  7 16 26
  25074910.011     5779026.579 5   4866940.101 3
  22261658.035   -15153751.434 8 -12536423.746 9
  25651471.046     -507525.364 4   -593588.284 2
  25631623.346    37874183.370 4  20669835.472 2
  22469561.047     8679041.716 7   4806121.229 7
  21249076.960     5192218.862 8 -11336731.125 9
  23330813.334    -8124350.566 6  -6007599.708 6
  25779298.743      431964.037 4    297416.806 2
  25227984.520    -5464511.293 5  -4545743.076 3
 94  5 15 17 42 30.0030000  0  9 31  2 15 18 19 27  7 16 26
  25095682.001     5888160.669 5   4951979.625 3
  22259233.283   -15166506.295 8 -12546362.604 9
  25641555.201     -559716.591 3   -634256.734 2
  25655205.561    37998105.740 5  20766398.150 2
  22480682.477     8737495.896 7   4851669.922 7
  21250418.891     5199283.478 8 -11331226.248 9
  23315169.984    -8206553.190 6  -6071653.667 6
  25792121.136      499295.792 3    349882.939 2
  25214192.748    -5537003.709 5  -4602230.647 3
 94  5 15 17 43  0.0030000  0  9 31  2 15 18 19 27  7 16 26
  25116493.743     5997540.332 5   5037210.466 3
  22256853.951   -15179005.977 8 -12556102.599 9
  25631657.523     -611655.870 3   -674728.753 2
  25678790.773    38122047.999 4  20862976.334 2
  22491865.096     8796265.330 7   4897464.275 7
  21251841.886     5206755.809 8 -11325403.653 9
  23299589.980    -8288450.618 6  -6135469.854 6
  25804966.104      566866.897 4    402535.682 2
  25200471.906    -5609180.486 5  -4658472.248 3
 94  5 15 17 43 30.0030000  0  9 31  2 15 18 19 27  7 16 26
  25137355.971     6107160.662 5   5122628.870 3
  22254526.692   -15191251.323 8 -12565644.421 9
  25621816.446     -663342.407 4   -715003.954 2
  25702378.594    38245995.292 5  20959558.481 2
  22503109.561     8855352.368 7   4943506.088 7
  21253337.940     5214624.700 8 -11319272.050 9
  23284059.321    -8370049.958 6  -6199053.725 6
  25817880.653      634667.600 3    455367.299 2
  25186780.954    -5681030.060 5  -4714458.900 3
 94  5 15 17 44  0.0030000  0  9 31  2 15 18 19 27  7 16 26
  25158256.691     6217024.848 5   5208237.265 3
  22252236.757   -15203266.737 8 -12575007.069 9
  25612034.937     -714780.919 4   -755085.817 2
  25725964.286    38369937.001 4  21056136.258 2
  22514413.686     8914759.877 7   4989797.654 7
  21254910.202     5222878.061 8 -11312840.876 9
  23268585.054    -8451364.871 6  -6262415.951 6
  25830827.370      702691.785 4    508373.101 2
  25173176.972    -5752561.891 5  -4770197.983 3
 94  5 15 17 44 30.0030000  0  9 31  2 15 18 19 27  7 16 26
  25179222.077     6327152.242 5   5294050.786 3
  22249989.603   -15215060.122 8 -12584196.721 9
  25602304.124     -765967.650 3   -794971.515 2
  25749544.521    38493880.191 4  21152715.163 2
  22525780.766     8974487.435 7   5036338.583 7
  21256554.264     5231521.993 8 -11306105.344 9
  23253166.788    -8532389.008 6  -6325551.617 6
  25843814.170      770956.537 3    561566.267 2
  25159627.432    -5823777.238 5  -4825690.405 3
 94  5 15 17 45  0.0030000  0  8 31  2 15 18 19 27  7 26
  25200230.154     6437562.167 5   5380084.470 3
  22247788.167   -15226630.800 8 -12593212.834 9
  25592613.153     -816901.812 4   -834660.393 2
  25773134.500    38617839.373 4  21249306.546 2
  22537206.007     9034529.439 7   5083124.532 7
  21258276.781     5240563.641 8 -11299059.918 9
  23237805.302    -8613126.660 6  -6388464.051 6
  25146130.416    -5894667.846 5  -4880929.818 3
 94  5 15 17 45 30.0030000  0  8 31  2 15 18 19 27  7 26
  25221291.503     6548263.088 5   5466344.865 3
  22245630.890   -15237970.637 8 -12602049.059 9
  25582959.476     -867580.552 4   -874150.286 2
  25796732.843    38741826.208 4  21345919.467 2
  22548692.105     9094888.817 7   5130157.820 7
  21260070.260     5249998.685 8 -11291707.938 9
  23222494.512    -8693580.582 6  -6451155.389 6
  25132710.656    -5965230.750 5  -4935913.877 3
 94  5 15 17 46  0.0030000  0  8 31  2 15 18 19 27  7 26
  25242416.828     6659245.735 5   5552824.812 3
  22243517.863   -15249077.080 8 -12610703.452 9
  25573365.667     -918001.650 3   -913439.355 2
  25820336.283    38865844.623 4  21442557.006 2
  22560238.522     9155569.947 7   5177441.792 7
  21261942.793     5259826.357 8 -11284050.028 9
  23207236.005    -8773746.567 6  -6513622.376 6
  25119342.731    -6035476.523 5  -4990650.815 3
 94  5 15 17 46 30.0030000  0  8 31  2 15 18 19 27  7 26
  25263579.988     6770487.698 5   5639506.830 3
  22241450.284   -15259938.817 8 -12619167.123 9
  25563828.280     -968160.022 3   -952523.715 2
  25843928.900    38989900.442 4  21539223.693 2
  22571848.285     9216559.862 7   5224966.375 7
  21263889.076     5270051.863 8 -11276082.102 9
  23192038.716    -8853624.671 6  -6575865.036 6
  25106025.980    -6105417.776 5  -5045150.471 3
 94  5 15 17 47  0.0030000  0  8 31  2 15 18 19 27  7 26
  25284796.330     6881964.058 5   5726371.429 3
  22239429.234   -15270562.604 8 -12627445.398 9
  25554323.330    -1018052.336 4   -991400.725 2
  25867555.754    39113989.003 4  21635915.916 2
  22583508.562     9277852.816 7   5272727.094 7
  21265906.709     5280675.152 8 -11267804.218 9
  23176893.920    -8933210.784 6  -6637880.150 6
  25092775.933    -6175054.568 5  -5099412.880 3
 94  5 15 17 47 30.0030000  0  8 31  2 15 18 19 27  7 26
  25306058.121     6993648.780 5   5813398.460 3
  22237454.680   -15280951.412 8 -12635540.562 9
  25544885.893    -1067672.300 4  -1030065.656 2
  25891161.142    39238102.096 4  21732627.163 2
  22595232.486     9339457.271 7   5320730.550 7
  21268004.717     5291702.374 8 -11259211.587 9
  23161806.205    -9012494.205 6  -6699659.413 6
  25079589.921    -6244384.300 5  -5153436.029 3
 94  5 15 17 48  0.0030000  0  8 31  2 15 18 19 27  7 26
  25327348.631     7105525.755 5   5900575.314 3
  22235522.458   -15291107.753 8 -12643454.576 9
  25535492.376    -1117015.597 3  -1068514.964 1
  25914792.283    39362228.770 4  21829349.131 2
  22607013.730     9401369.291 7   5368973.663 7
  21270183.848     5303145.569 8 -11250294.812 9
  23146776.650    -9091470.318 6  -6761199.221 6
  25066450.348    -6313400.298 5  -5207214.696 3
 94  5 15 17 48 30.0030000  0  8 31  2 15 18 19 27  7 26
  25348662.736     7217582.788 5   5987892.397 2
  22233629.509   -15301040.561 8 -12651194.421 9
  25526165.234    -1166085.476 4  -1106751.187 1
  25938413.590    39486346.207 4  21926063.766 2
  22618850.705     9463579.361 7   5417449.023 7
  21272438.917     5314993.977 8 -11241062.296 9
  23131808.612    -9170135.532 6  -6822496.763 6
  25053378.887    -6382086.306 5  -5260736.243 3
 94  5 15 17 49  0.0030000  0  8 31  2 15 18 19 27  7 26
  25370024.418     7329831.581 5   6075358.933 2
  22231783.926   -15310743.342 8 -12658755.026 9
  25516877.663    -1214875.009 5  -1144768.901 1
  25962024.285    39610449.114 5  22022767.073 2
  22630751.537     9526108.709 7   5466173.172 7
  21274772.801     5327259.692 8 -11231504.601 9
  23116903.651    -9248471.477 6  -6883537.720 6
  25040377.218    -6450412.550 5  -5313977.456 3
 94  5 15 17 49 30.0030000  0  7 31  2 15 19 27  7 26
  25391431.338     7442296.019 5   6162993.527 2
  22229984.002   -15320204.934 8 -12666127.693 9
  25507645.135    -1263381.502 4  -1182566.201 1
  22642710.498     9588962.390 7   5515150.051 7
  21277187.600     5339937.602 8 -11221625.709 9
  23102056.879    -9326476.970 6  -6944321.216 6
  25027440.304    -6518383.052 5  -5366941.456 3
 94  5 15 17 50  0.0030000  0  7 31  2 15 19 27  7 26
  25412873.933     7555007.036 5   6250820.246 2
  22228230.936   -15329408.562 8 -12673299.350 9
  25498472.415    -1311600.541 4  -1220139.434 1
  22654735.023     9652139.823 7   5564379.186 7
  21279675.667     5353018.775 8 -11211432.595 9
  23087278.520    -9404148.567 7  -7004844.497 6
  25014573.271    -6585994.547 5  -5419625.682 3
 94  5 15 17 50 30.0030000  0  7 31  2 15 19 27  7 26
  25434363.327     7667979.801 5   6338850.875 2
  22226530.363   -15338352.681 8 -12680268.785 9
  25489348.441    -1359531.254 5  -1257487.959 1
  22666814.921     9715639.803 7   5613859.669 7
  21282240.242     5366504.783 8 -11200924.034 9
  23072560.089    -9481485.819 6  -7065107.261 6
  25001783.855    -6653247.686 5  -5472030.732 3
 94  5 15 17 51  0.0030000  0  7 31  2 15 19 27  7 26
  25455914.537     7781247.657 4   6427111.549 2
  22224878.807   -15347028.598 8 -12687029.247 9
  25480279.120    -1407160.215 5  -1294601.459 1
  22678963.170     9779468.522 7   5663596.321 7
  21284891.067     5380417.651 8 -11190082.822 9
  23057905.664    -9558485.913 6  -7125107.303 6
  24989051.430    -6720144.859 5  -5524158.363 3
 94  5 15 17 51 30.0030000  0  7 31  2 15 19 27  7 26
  25477539.466     7894829.334 5   6515616.692 2
  22223278.065   -15355433.043 8 -12693578.161 9
  25471277.611    -1454472.177 5  -1331467.863 2
  22691174.227     9843629.219 7   5713591.670 7
  21287617.139     5394754.075 8 -11178911.590 9
  23043321.391    -9635140.109 6  -7184837.816 6
  24976389.335    -6786670.673 6  -5575996.630 4
 94  5 15 17 52  0.0030000  0  7 31  2 15 19 27  7 26
  25499211.943     8008694.416 4   6604342.633 2
  22221725.380   -15363585.632 8 -12699930.828 9
  25462337.291    -1501471.077 4  -1368090.335 2
  22703446.321     9908127.477 7   5763850.025 7
  21290424.876     5409511.569 8 -11167412.241 9
  23028793.508    -9711455.044 6  -7244303.952 6
  24963800.091    -6852821.221 6  -5627542.498 4
 94  5 15 17 52 30.0030000  0  7 31  2 15 19 27  7 26
  25520915.148     8122800.463 5   6693256.380 2
  22220220.032   -15371515.981 8 -12706110.309 9
  25453457.888    -1548158.863 5  -1404470.367 2
  22715785.539     9972961.184 7   5814369.781 7
  21293315.984     5424689.285 8 -11155585.457 9
  23014336.197    -9787438.140 6  -7303511.541 6
  24951286.933    -6918608.387 6  -5678805.217 4
 94  5 15 17 53  0.0030000  0  7 31  2 15 19 27  7 26
  25542683.318     8237116.139 5   6782333.571 2
  22218750.059   -15379245.064 8 -12712132.975 9
  25444631.368    -1594539.391 5  -1440611.105 2
  22728187.923    10038139.951 7   5865158.417 7
  21296276.375     5440263.901 8 -11143449.378 9
  22999940.193    -9863098.867 6  -7362467.906 6
  24938832.476    -6984045.600 6  -5729795.219 4
 94  5 15 17 53 30.0030000  0  7 31  2 15 19 27  7 26
  25564463.810     8351602.129 5   6871543.311 2
  22217313.094   -15386788.226 8 -12718010.770 9
  25435856.533    -1640619.215 4  -1476517.392 2
  22740655.482    10103655.577 7   5916209.536 7
  21299317.829     5456226.306 8 -11131011.161 9
  22985603.128    -9938441.819 7  -7421176.660 6
  24926442.803    -7049152.921 6  -5780528.169 4
 94  5 15 17 54  0.0030000  0  7 31  2 15 19 27  7 26
  25586269.664     8466222.932 4   6960858.168 2
  22215912.104   -15394149.059 8 -12723746.475 9
  25427143.305    -1686406.306 4  -1512195.583 2
  22753183.509    10169492.676 7   5967511.139 7
  21302424.309     5472581.957 8 -11118266.498 9
  22971326.592   -10013483.416 7  -7479650.602 6
  24914110.450    -7113954.698 5  -5831023.044 4
 94  5 15 17 54 30.0030000  0  7 31  2 15 19 27  7 26
  25608113.172     8580986.909 5   7050284.588 2
  22214547.269   -15401319.537 8 -12729333.870 9
  25418485.928    -1731902.587 5  -1547647.211 2
  22765769.246    10235632.625 7   6019048.733 7
  21305615.509     5489328.245 8 -11105217.440 9
  22957099.131   -10088218.013 7  -7537885.315 6
  24901836.018    -7178454.552 5  -5881282.613 4
 94  5 15 17 55  0.0030000  0  7 31  2 15 19 27  7 26
  25629976.257     8695921.404 5   7139843.898 2
  22213223.325   -15408280.138 8 -12734757.703 9
  25409885.992    -1777105.221 5  -1582870.029 2
  22778412.153    10302068.359 7   6070816.845 7
  21308877.851     5506484.117 8 -11091849.225 9
  22942943.201   -10162632.118 6  -7595870.281 7
  24889620.105    -7242638.442 5  -5931296.005 4
 94  5 15 17 55 30.0030000  0  7 31  2 15 19 27  7 26
  25651886.229     8811042.414 5   7229548.497 2
  22211944.531   -15415016.230 8 -12740006.620 9
  25401335.551    -1822010.342 4  -1617861.003 2
  22791108.364    10368780.002 7   6122799.915 7
  21312222.096     5524061.164 8 -11078152.829 9
  22928844.681   -10236715.601 7  -7653597.642 7
  24877470.865    -7306482.881 5  -5981044.893 4
 94  5 15 17 56  0.0030000  0  7 31  2 15 19 27  7 26
  25673831.786     8926354.624 5   7319402.112 2
  22210708.636   -15421516.288 8 -12745071.591 9
  25392856.341    -1866615.295 4  -1652618.063 2
  22803854.790    10435775.826 7   6175004.443 7
  21315646.205     5542056.269 8 -11064130.684 9
  22914809.957   -10310461.989 6  -7711062.322 7
  24865395.225    -7369962.011 5  -6030509.135 4
 94  5 15 17 56 30.0030000  0  7 31  2 15 19 27  7 26
  25695817.456     9041871.041 5   7409414.891 2
  22209511.205   -15427790.742 8 -12749960.773 9
  25384423.299    -1910912.525 5  -1687135.376 2
  22816660.694    10503067.342 7   6227439.357 7
  21319149.070     5560467.923 7 -11049783.942 9
  22900845.175   -10383861.734 7  -7768256.897 7
  24853391.415    -7433063.782 5  -6079679.322 4
 94  5 15 17 57  0.0030000  0  7 31  2 15 19 27  7 26
  25717834.004     9157568.174 5   7499568.398 2
  22208356.285   -15433859.959 8 -12754690.036 9
  25376049.916    -1954899.179 4  -1721410.642 3
  22829518.553    10570653.321 7   6280103.764 7
  21322731.320     5579290.426 8 -11035117.056 9
  22886938.192   -10456936.903 7  -7825198.536 7
  24841450.022    -7495778.633 5  -6128548.023 4
 94  5 15 17 57 30.0030000  0  7 31  2 15 19 27  7 26
  25739869.589     9273419.923 5   7589842.466 2
  22207236.470   -15439736.455 8 -12759269.111 9
  25367738.110    -1998573.072 4  -1755442.234 2
  22842440.238    10638533.103 7   6332997.067 7
  21326391.786     5598503.417 8 -11020145.897 9
  22873092.607   -10529690.029 7  -7881889.255 7
  24829591.491    -7558104.633 5  -6177113.708 4
 94  5 15 17 58  0.0030000  0  7 31  2 15 19 27  7 26
  25761947.655     9389405.763 5   7680221.001 2
  22206153.560   -15445435.168 8 -12763709.666 9
  25359494.058    -2041938.718 4  -1789233.655 2
  22855413.457    10706712.951 7   6386124.184 7
  21330118.326     5618096.533 8 -11004878.527 9
  22859305.002   -10602127.008 7  -7938333.620 7
  24817802.813    -7620059.452 6  -6225390.154 4
 94  5 15 17 58 30.0030000  0  7 31  2 15 19 27  7 26
  25784041.669     9505516.438 5   7770696.753 2
  22205096.402   -15450978.628 8 -12768029.253 9
  25351288.768    -2085001.908 4  -1822789.343 3
  22868438.839    10775173.043 7   6439469.682 7
  21333915.678     5638053.305 8 -10989327.808 9
  22845585.780   -10674253.181 7  -7994535.812 7
  24806083.356    -7681655.970 6  -6273387.408 4
 94  5 15 17 59  0.0030000  0  7 31  2 15 19 27  7 26
  25806160.897     9621756.956 4   7861273.752 2
  22204076.867   -15456346.049 8 -12772211.661 9
  25343153.510    -2127759.311 4  -1856106.725 3
  22881518.814    10843914.515 7   6493034.440 7
  21337780.872     5658369.281 8 -10973497.184 9
  22831921.809   -10746053.865 7  -8050484.355 7
  24794430.723    -7742896.005 5  -6321106.918 4
 94  5 15 17 59 30.0030000  0  6  2 15 19 27  7 26
  22203092.529   -15461519.987 8 -12776243.303 9
  25335082.287    -2170208.584 4  -1889184.134 3
  22894656.619    10912943.838 7   6546823.491 7
  21341710.551     5679046.008 7 -10957385.447 9
  22818320.346   -10817502.173 7  -8106158.351 7
  24782835.170    -7803795.042 5  -6368560.700 4
 94  5 15 18  0  0.0030000  0  6  2 15 19 27  7 26
  22202145.724   -15466489.311 8 -12780115.495 9
  25327058.282    -2212342.547 4  -1922015.743 3
  22907848.866    10982266.675 7   6600841.249 7
  21345720.185     5700094.382 8 -10940984.139 9
  22804793.980   -10888600.948 7  -8161559.955 7
  24771311.088    -7864366.188 6  -6415758.972 4
 94  5 15 18  0 30.0030000  0  6  2 15 19 27  7 26
  22201239.692   -15471255.954 8 -12783829.753 9
  25319102.180    -2254154.604 4  -1954596.510 3
  22921091.509    11051870.219 7   6655077.771 7
  21349801.980     5721528.742 8 -10924282.044 9
  22791330.300   -10959348.612 7  -8216687.960 7
  24759849.033    -7924613.326 6  -6462704.748 4
 94  5 15 18  1  0.0030000  0  6  2 15 19 27  7 26
  22200373.891   -15475811.808 8 -12787379.771 9
  25311211.373    -2295639.736 5  -1986922.521 2
  22934394.529    11121759.864 7   6709537.187 7
  21353957.583     5743369.741 8 -10907263.093 9
  22777932.815   -11029749.909 7  -8271546.101 7
  24748441.450    -7984536.410 5  -6509398.055 4
 94  5 15 18  1 30.0030000  0  6  2 15 19 27  7 26
  22199545.564   -15480164.752 8 -12790771.672 9
  25303374.888    -2336794.407 4  -2018991.171 2
  22947747.225    11191932.152 7   6764216.876 7
  21358194.220     5765642.802 8 -10889907.464 9
  22764602.034   -11099808.783 7  -8326137.402 7
  24737105.458    -8044122.793 6  -6555828.962 4
 94  5 15 18  2  0.0030000  0  6  2 15 19 27  7 26
  22198753.663   -15484323.689 8 -12794012.395 9
  25295612.572    -2377614.917 5  -2050799.231 2
  22961152.535    11262386.163 7   6819116.062 7
  21362519.116     5788364.350 8 -10872202.380 9
  22751337.267   -11169531.409 7  -8380466.695 7
  24725832.273    -8103351.311 5  -6601981.038 4
 94  5 15 18  2 30.0030000  0  6  2 15 19 27  7 26
  22197997.946   -15488286.854 8 -12797100.584 9
  25287901.460    -2418092.834 5  -2082340.376 2
  22974617.923    11333136.633 7   6874246.250 7
  21366929.243     5811543.227 8 -10854140.917 9
  22738136.566   -11238898.465 7  -8434518.932 7
  24714632.866    -8162191.515 6  -6647830.548 4
 94  5 15 18  3  0.0040000  0  6  2 15 19 27  7 26
  22197285.969   -15492030.888 8 -12800018.005 9
  25280268.055    -2458218.958 4  -2113607.461 2
  22988144.319    11404211.355 7   6929629.106 7
  21371426.309     5835176.816 8 -10835725.133 9
  22725004.906   -11307895.651 7  -8488282.961 7
  24703523.367    -8220611.158 6  -6693352.316 4
 94  5 15 18  3 30.0040000  0  6  2 15 19 27  7 26
  22196619.620   -15495551.546 8 -12802761.374 9
  25272704.501    -2497978.644 5  -2144588.934 2
  23001726.386    11475612.127 7   6985266.070 7
  21376008.817     5859263.747 8 -10816956.107 9
  22711950.384   -11376497.466 7  -8541738.894 7
  24692491.844    -8278591.573 6  -6738531.835 4
 94  5 15 18  4  0.0040000  0  6  2 15 19 27  7 26
  22195986.308   -15498862.399 8 -12805341.261 9
  25265208.820    -2537377.661 5  -2175289.414 2
  23015376.536    11547336.545 7   7041155.183 7
  21380673.857     5883767.389 8 -10797862.360 9
  22698969.460   -11444704.333 7  -8594887.087 7
  24681535.029    -8336133.817 6  -6783369.923 4
 94  5 15 18  4 30.0040000  0  6  2 15 19 27  7 26
  22195393.829   -15501974.746 8 -12807766.464 9
  25257775.376    -2576424.171 4  -2205715.163 2
  23029087.365    11619368.641 7   7097284.070 7
  21385411.148     5908668.853 8 -10778458.635 9
  22686065.224   -11512523.268 7  -8647732.984 7
  24670667.282    -8393258.620 6  -6827882.748 4
 94  5 15 18  5  0.0040000  0  6  2 15 19 27  7 26
  22194837.863   -15504896.485 8 -12810043.154 9
  25250413.552    -2615123.496 5  -2235870.450 2
  23042849.008    11691683.911 7   7153633.593 7
  21390227.554     5933964.765 7 -10758747.550 9
  22673226.882   -11579976.757 7  -8700294.128 8
  24659874.814    -8449994.638 6  -6872092.610 4
 94  5 15 18  5 30.0040000  0  6  2 15 19 27  7 26
  22194315.745   -15507636.379 8 -12812178.130 9
  25243115.705    -2653473.570 5  -2265753.550 2
  23056658.677    11764268.314 7   7210192.824 7
  21395117.678     5959669.403 7 -10738717.984 9
  22660461.749   -11647073.351 7  -8752577.157 8
  24649143.623    -8506361.358 6  -6916014.716 4
 94  5 15 18  6  0.0040000  0  6  2 15 19 27  7 26
  22193835.268   -15510169.643 8 -12814152.103 9
  25235891.186    -2691464.172 5  -2295356.460 2
  23070527.196    11837143.631 7   7266978.747 7
  21400090.186     5985796.270 7 -10718359.393 9
  22647759.153   -11713824.277 7  -8804590.848 8
  24638489.868    -8562353.566 6  -6959645.007 4
 94  5 15 18  6 30.0040000  0  6  2 15 19 27  7 26
  22193393.044   -15512496.034 8 -12815964.873 9
  25228722.039    -2729094.950 5  -2324679.209 2
  23084449.138    11910310.291 7   7323991.691 6
  21405145.556     6012361.157 7 -10697659.485 9
  22635118.314   -11780251.843 7  -8856352.576 8
  24627904.017    -8617991.433 6  -7002999.174 4
 94  5 15 18  7  0.0040000  0  6  2 15 19 27  7 26
  22192988.624   -15514613.051 8 -12817614.496 9
  25221631.558    -2766370.442 4  -2353724.970 2
  23098430.080    11983769.441 7   7381232.553 6
  21410278.513     6039351.822 7 -10676627.824 9
  22622540.851   -11846353.629 7  -8907860.415 8
  24617386.428    -8673267.549 6  -7046071.463 4
 94  5 15 18  7 30.0040000  0  6  2 15 19 27  7 26
  22192624.286   -15516529.052 8 -12819107.487 9
  25214600.255    -2803295.723 5  -2382497.762 2
  23112464.264    12057534.537 7   7438711.810 6
  21415494.662     6066756.479 7 -10655273.549 9
  22610025.055   -11912118.918 7  -8959106.078 8
  24606937.312    -8728165.139 6  -7088848.774 4
 94  5 15 18  8  0.0040000  0  6  2 15 19 27  7 26
  22192295.533   -15518250.370 8 -12820448.785 9
  25207649.537    -2839861.675 5  -2410990.720 2
  23126561.015    12131608.186 7   7496431.497 6
  21420788.367     6094563.114 7 -10633606.056 9
  22597576.593   -11977535.244 7  -9010079.816 8
  24596567.491    -8782671.542 6  -7131321.288 4
 94  5 15 18  8 30.0040000  0  6  2 15 19 27  7 26
  22192003.446   -15519799.795 8 -12821656.140 9
  25200759.078    -2876066.188 4  -2439201.990 2
  23140711.699    12205966.150 7   7554372.734 6
  21426150.275     6122758.162 7 -10611635.902 9
  22585200.441   -12042573.674 7  -9060759.083 8
  24586268.600    -8836780.261 6  -7173483.918 4
 94  5 15 18  9  0.0040000  0  6  2 15 19 27  7 26
  22191739.928   -15521173.575 8 -12822726.599 9
  25193935.621    -2911908.503 5  -2467131.021 2
  23154916.825    12280609.694 7   7612536.504 6
  21431591.838     6151336.348 7 -10589367.195 9
  22572895.160   -12107221.023 7  -9111133.604 8
  24576049.455    -8890476.276 6  -7215324.960 4
 94  5 15 18  9 30.0040000  0  6  2 15 19 27  7 26
  22191509.088   -15522388.670 8 -12823673.427 9
  25187185.135    -2947388.132 5  -2494777.450 2
  23169173.455    12355532.748 7   7670918.086 6
  21437100.014     6180294.600 7 -10566802.332 9
  22560668.574   -12171489.629 7  -9161213.026 8
  24565909.365    -8943759.784 6  -7256844.543 4
 94  5 15 18 10  0.0040000  0  6  2 15 19 27  7 26
  22191309.336   -15523447.754 8 -12824498.681 9
  25180498.324    -2982502.081 4  -2522138.893 2
  23183481.200    12430716.811 7   7729503.034 6
  21442684.339     6209634.605 7 -10543940.004 9
  22548511.570   -12235377.573 7  -9210995.804 8
  24555850.039    -8996639.420 6  -7298049.439 4
 94  5 15 18 10 30.0040000  0  6  2 15 19 27  7 26
  22191143.131   -15524318.302 8 -12825177.033 9
  25173894.076    -3017237.768 4  -2549205.570 2
  23197841.139    12506191.775 7   7788314.664 6
  21448345.979     6239382.112 7 -10520760.161 9
  22536429.305   -12298872.871 7  -9260472.632 8
  24545861.104    -9049098.489 6  -7338926.605 4
 94  5 15 18 11  0.0040000  0  6  2 15 19 27  7 26
  22191013.111   -15524992.242 8 -12825702.189 9
  25167351.345    -3051593.644 4  -2575976.378 2
  23212263.854    12581971.982 7   7847364.127 6
  21454088.624     6269559.815 7 -10497245.074 9
  22524416.951   -12361990.947 7  -9309655.534 8
  24535964.175    -9101141.568 6  -7379479.669 5
 94  5 15 18 11 30.0040000  0  6  2 15 19 27  7 26
  22190923.623   -15525474.326 8 -12826077.842 9
  25160885.362    -3085565.271 4  -2602447.748 2
  23226738.224    12658041.680 7   7906639.181 6
  21459914.490     6300170.821 8 -10473392.365 9
  22512482.782   -12424718.115 7  -9358533.811 8
  24526136.559    -9152774.360 6  -7419712.944 5
 94  5 15 18 12  0.0040000  0  6  2 15 19 27  7 26
  22190871.819   -15525756.109 8 -12826297.420 9
  25154503.080    -3119146.220 5  -2628614.648 2
  23241272.012    12734400.825 7   7966139.793 6
  21465821.391     6331224.638 8 -10449194.599 9
  22500618.766   -12487048.285 7  -9407102.737 8
  24516386.409    -9204008.545 6  -7459635.705 5
 94  5 15 18 12 30.0040000  0  6  2 15 19 27  7 26
  22190855.301   -15525847.508 8 -12826368.616 9
  25148186.813    -3152339.617 5  -2654479.611 2
  23255851.939    12811053.004 6   8025868.710 6
  21471815.981     6362721.907 7 -10424651.286 9
  22488832.006   -12548994.845 7  -9455372.765 9
  24506718.732    -9254844.103 6  -7499247.801 5
 94  5 15 18 13  0.0040000  0  6  2 15 19 27  7 26
  22190866.123   -15525775.320 8 -12826312.390 9
  25141946.273    -3185143.897 4  -2680041.428 2
  23270495.571    12887981.370 6   8085812.853 6
  21477895.442     6394658.802 8 -10399765.402 9
  22477119.714   -12610551.118 7  -9503338.668 9
  24497114.251    -9305279.071 6  -7538547.768 5
 94  5 15 18 13 30.0040000  0  6  2 15 19 27  7 26
  22190914.270   -15525539.178 8 -12826128.386 9
  25135782.540    -3217556.118 4  -2705297.624 2
  23285187.020    12965186.426 6   8145972.609 6
  21484049.972     6427018.021 7 -10374550.441 9
  22465478.923   -12671709.299 7  -9550994.346 9
  24487597.459    -9355304.753 6  -7577528.811 5
 94  5 15 18 14  0.0040000  0  6  2 15 19 27  7 26
  22190983.222   -15525137.866 8 -12825815.658 9
  25129681.494    -3249573.266 5  -2730245.976 3
  23299933.811    13042682.276 6   8206358.951 6
  21490294.169     6459813.424 7 -10348995.608 9
  22453914.728   -12732489.312 7  -9598355.383 9
  24478153.097    -9404907.872 6  -7616180.590 5
 94  5 15 18 14 30.0040000  0  6  2 15 19 27  7 26
  22191093.696   -15524568.906 8 -12825372.329 9
  25123661.751    -3281195.882 4  -2754886.998 3
  23314740.591    13120469.930 7   8266972.660 6
  21496616.402     6493046.607 7 -10323099.646 9
  22442420.536   -12792886.353 7  -9645417.971 9
  24468803.650    -9454068.797 6  -7654487.775 5
 94  5 15 18 15  0.0040000  0  6  2 15 19 27  7 26
  22191237.236   -15523829.658 8 -12824796.294 9
  25117723.912    -3312424.856 5  -2779221.279 2
  23329589.161    13198541.898 6   8327807.927 6
  21503022.577     6526706.105 7 -10296871.481 9
  22431002.730   -12852900.284 7  -9692182.048 9
  24459527.531    -9502802.518 6  -7692462.077 5
 94  5 15 18 15 30.0040000  0  6  2 15 19 27  7 26
  22191411.386   -15522904.387 8 -12824075.294 9
  25111850.648    -3343257.283 4  -2803246.521 3
  23344503.357    13276894.319 7   8388861.741 6
  21509506.608     6560792.205 7 -10270310.904 9
  22419650.759   -12912544.252 7  -9738657.825 9
  24450336.434    -9551112.984 6  -7730106.587 5
 94  5 15 18 16  0.0040000  0  6  2 15 19 27  7 26
  22191621.600   -15521794.368 8 -12823210.348 9
  25106070.049    -3373691.672 4  -2826961.559 3
  23359462.611    13355520.524 6   8450128.867 5
  21516076.021     6595315.012 7 -10243410.019 9
  22408370.918   -12971817.479 7  -9784844.739 9
  24441218.666    -9599008.646 6  -7767427.868 5
 94  5 15 18 16 30.0040000  0  6  2 15 19 27  7 26
  22191868.359   -15520501.062 8 -12822202.582 9
  25100349.500    -3403728.734 5  -2850367.095 2
  23374478.945    13434415.834 6   8511605.690 5
  21522726.676     6630258.279 7 -10216181.501 9
  22397167.464   -13030707.629 7  -9830733.141 9
  24432184.810    -9646506.711 6  -7804439.317 5
 94  5 15 18 17  0.0040000  0  6  2 15 19 27  7 26
  22192146.657   -15519030.571 8 -12821056.745 9
  25094703.568    -3433370.471 4  -2873464.572 3
  23389543.906    13513567.766 6   8573282.493 5
  21529454.289     6665612.573 7 -10188632.727 9
  22386030.204   -13089221.435 7  -9876328.281 9
  24423215.320    -9693626.164 6  -7841155.781 5
 94  5 15 18 17 30.0040000  0  6  2 15 19 27  7 26
  22192463.687   -15517370.432 8 -12819763.132 9
  25089140.829    -3462606.693 4  -2896246.014 3
  23404656.803    13592984.179 6   8635165.373 5
  21536261.376     6701390.827 7 -10160753.584 9
  22374970.680   -13147347.825 7  -9921621.548 9
  24414328.542    -9740336.526 6  -7877553.434 5
 94  5 15 18 18  0.0040000  0  6  2 15 19 27  7 26
  22192814.984   -15515529.068 8 -12818328.305 9
  25083658.495    -3491433.082 4  -2918708.146 3
  23419819.137    13672677.812 6   8697264.269 5
  21543151.417     6737586.976 7 -10132548.810 9
  22363984.815   -13205072.757 7  -9966601.988 9
  24405520.160    -9786631.480 6  -7913627.397 5
 94  5 15 18 18 30.0040000  0  6  2 15 19 27  7 26
  22193197.999   -15513512.298 8 -12816756.791 9
  25078246.281    -3519844.479 4  -2940846.939 3
  23435036.902    13752653.751 6   8759583.154 5
  21550115.955     6774191.586 7 -10104025.748 9
  22353076.597   -13262386.338 7 -10011261.887 9
  24396787.865    -9832503.245 6  -7949371.616 5
 94  5 15 18 19  0.0040000  0  6  2 15 19 27  7 26
  22193612.432   -15511329.094 8 -12815055.595 9
  25072928.233    -3547840.510 5  -2962661.944 3
  23450307.760    13832898.622 6   8822111.573 5
  21557159.849     6811197.388 7 -10075190.092 9
  22342247.374   -13319289.817 7 -10055602.241 9
  24388143.949    -9877938.349 6  -7984775.605 5
 94  5 15 18 19 30.0040000  0  6  2 15 19 27  7 26
  22194060.562   -15508987.223 8 -12813230.760 9
  25067673.261    -3575414.270 5  -2984147.971 3
  23465629.283    13913424.505 6   8884858.962 5
  21564278.840     6848615.202 7 -10046033.366 9
  22331503.112   -13375771.739 7 -10099614.104 9
  24379580.827    -9922922.092 6  -8019827.848 5
 94  5 15 18 20  0.0040000  0  6  2 15 19 27  7 26
  22194533.934   -15506497.910 8 -12811291.044 9
  25062507.867    -3602563.331 4  -3005303.121 3
  23481013.433    13994241.584 6   8947833.284 5
  21571477.097     6886449.686 7 -10016551.966 9
  22320834.608   -13431829.855 7 -10143295.724 9
  24371111.541    -9967463.837 6  -8054535.683 5
 94  5 15 18 20 30.0040000  0  6  2 15 19 27  7 26
  22195038.724   -15503843.708 8 -12809222.830 9
  25057426.115    -3629286.363 4  -3026126.232 3
  23496443.481    14075339.886 6   9011026.713 5
  21578758.426     6924717.516 7  -9986732.893 9
  22310249.476   -13487466.947 7 -10186649.262 9
  24362714.714   -10011554.560 6  -8088892.107 5
 94  5 15 18 21  0.0040000  0  6  2 15 19 27  7 26
  22195575.653   -15501022.649 8 -12807024.611 9
  25052424.887    -3655586.326 5  -3046619.674 3
  23511928.840    14156712.531 6   9074433.926 5
  21586125.526     6963419.124 7  -9956575.827 9
  22299734.015   -13542697.620 7 -10229686.125 9
  24354410.133   -10055188.778 6  -8122892.766 5
 94  5 15 18 21 30.0040000  0  6  2 15 19 27  7 26
  22196149.306   -15498025.044 8 -12804688.804 9
  25047496.839    -3681457.385 5  -3066778.971 3
  23527468.882    14238381.932 6   9138072.398 5
  21593574.080     7002566.200 7  -9926071.615 9
  22289303.876   -13597520.491 7 -10272405.226 9
  24346197.648   -10098361.560 6  -8156533.883 5
 94  5 15 18 22  0.0040000  0  6  2 15 19 27  7 26
  22196756.115   -15494827.580 8 -12802197.277 9
  25042670.210    -3706896.055 5  -3086601.306 3
  23543062.707    14320342.705 6   9201937.891 5
  21601106.935     7042143.969 7  -9895231.820 9
  22278953.122   -13651932.005 7 -10314803.761 9
  24338072.013   -10141075.586 6  -8189817.524 5
 94  5 15 18 22 30.0040000  0  6  2 15 19 27  7 26
  22197396.832   -15491444.045 8 -12799560.758 9
  25037897.934    -3731907.450 4  -3106090.661 3
  23558714.901    14402577.513 6   9266016.912 5
  21608714.918     7082125.857 7  -9864077.112 9
  22268675.427   -13705935.551 7 -10356884.426 9
  24330030.440   -10183332.529 6  -8222744.990 5
 94  5 15 18 23  0.0040000  0  6  2 15 19 27  7 26
  22198074.843   -15487888.218 8 -12796789.978 9
  25033226.988    -3756487.544 5  -3125243.941 3
  23574415.242    14485104.576 6   9330323.689 6
  21616396.230     7122499.515 7  -9832617.139 9
  22258476.757   -13759530.390 7 -10398646.618 9
  24322070.891   -10225138.198 6  -8255320.835 5
 94  5 15 18 23 30.0040000  0  6  2 15 19 27  7 26
  22198785.471   -15484156.822 8 -12793882.405 9
  25028625.533    -3780637.879 5  -3144062.405 2
  23590180.638    14567927.250 6   9394860.781 6
  21624157.048     7163269.919 7  -9800848.004 9
  22248351.147   -13812720.025 7 -10440093.048 9
  24314204.457   -10266502.486 6  -8287552.734 5
 94  5 15 18 24  0.0040000  0  6  2 15 19 27  7 26
  22199528.686   -15480256.446 8 -12790843.144 9
  25024110.419    -3804358.509 5  -3162545.951 3
  23605998.617    14651033.325 6   9459618.705 6
  21631989.365     7204429.005 7  -9768776.014 9
  22238312.417   -13865503.919 7 -10481223.345 9
  24306415.848   -10307425.664 6  -8319440.915 5
 94  5 15 18 24 30.0040000  0  6  2 15 19 27  7 26
  22200303.170   -15476202.183 8 -12787683.982 9
  25019684.583    -3827644.202 5  -3180690.632 3
  23621864.384    14734423.820 6   9524598.269 6
  21639896.571     7246001.300 7  -9736382.045 9
  22228338.711   -13917884.818 7 -10522039.604 9
  24298710.733   -10347897.241 6  -8350977.199 5
 94  5 15 18 25  0.0040000  0  6  2 15 19 27  7 26
  22201102.746   -15471977.998 8 -12784392.405 9
  25015334.384    -3850495.466 5  -3198496.811 2
  23637784.023    14818075.067 6   9589781.018 6
  21647894.554     7288011.405 7  -9703646.910 9
  22218449.727   -13969870.288 7 -10562547.755 9
  24291090.458   -10387927.792 6  -8382169.836 5
 94  5 15 18 25 30.0040000  0  6  2 15 19 27  7 26
  22201937.938   -15467586.314 8 -12780970.310 9
  25011065.160    -3872909.513 5  -3215962.283 3
  23653746.352    14901969.016 6   9655152.872 6
  21655971.353     7330470.263 7  -9670562.106 9
  22208633.293   -14021446.581 7 -10602737.043 9
  24283558.922   -10427509.021 6  -8413012.347 5
 94  5 15 18 26  0.0040000  0  6  2 15 19 27  7 26
  22202803.769   -15463035.588 8 -12777424.286 9
  25006881.376    -3894879.587 5  -3233081.735 3
  23669753.261    14986091.266 6   9720702.631 6
  21664138.899     7373386.994 7  -9637120.502 9
  22198897.443   -14072599.750 7 -10642596.627 9
  24276112.047   -10466637.091 6  -8443501.725 5
 94  5 15 18 26 30.0040000  0  6  2 15 19 27  7 26
  22203699.968   -15458322.318 8 -12773751.613 9
  25002782.974    -3916401.887 5  -3249852.343 3
  23685808.796    15070440.722 6   9786429.445 6
  21672399.620     7416786.548 7  -9603302.677 9
  22189245.175   -14123323.617 7 -10682121.704 9
  24268755.230   -10505321.433 6  -8473645.371 5
 94  5 15 18 27  0.0040000  0  6  2 15 19 27  7 26
  22204630.015   -15453436.825 8 -12769944.746 9
  24998781.134    -3937469.754 5  -3266268.852 3
  23701896.888    15155028.773 6   9852342.156 6
  21680746.382     7460659.725 7  -9569115.806 9
  22179678.978   -14173607.059 7 -10721303.582 9
  24261478.068   -10543557.779 6  -8503439.920 5
 94  5 15 18 27 30.0040000  0  6  2 15 19 27  7 26
  22205592.288   -15448389.101 8 -12766011.445 9
  24994859.099    -3958078.311 5  -3282327.423 3
  23718052.134    15239885.703 6   9918464.389 6
  21689181.252     7504986.793 7  -9534575.257 9
  22170194.084   -14223441.249 7 -10760135.386 9
  24254285.358   -10581335.507 6  -8532877.109 5
 94  5 15 18 28  0.0040000  0  6  2 15 19 27  7 26
  22206583.102   -15443172.943 8 -12761946.910 9
  24991028.591    -3978226.879 5  -3298027.526 3
  23734249.591    15325017.442 6   9984800.759 6
  21697699.555     7549760.282 7  -9499686.832 9
  22160794.391   -14272836.309 7 -10798625.030 9
  24247185.223   -10618671.390 6  -8561969.987 5
 94  5 15 18 28 30.0040000  0  6  2 15 19 27  7 26
  22207608.602   -15437778.058 8 -12757743.095 9
  24987276.389    -3997910.431 5  -3313365.289 3
  23750508.805    15410439.688 6  10051363.499 5
  21706303.359     7594961.033 7  -9464465.477 9
  22151480.949   -14321786.557 7 -10836768.058 9
  24240164.533   -10655553.298 6  -8590709.130 5
 94  5 15 18 29  0.0040000  0  6  2 15 19 27  7 26
  22208668.219   -15432205.011 8 -12753400.465 9
  24983621.559    -4017118.809 5  -3328332.855 2
  23766815.896    15496161.917 6  10118159.978 5
  21714984.899     7640573.168 7  -9428923.582 9
  22142251.688   -14370284.614 7 -10874558.731 9
  24233238.188   -10691961.391 6  -8619079.057 5
 94  5 15 18 29 30.0040000  0  6  2 15 19 27  7 26
  22209763.211   -15426460.499 8 -12748924.233 9
  24980058.166    -4035846.441 5  -3342925.725 2
  23783183.784    15582185.329 6  10185191.169 5
  21723743.935     7686612.546 7  -9393048.746 9
  22133109.247   -14418325.821 7 -10911993.406 9
  24226400.192   -10727893.667 6  -8647078.242 5
 94  5 15 18 30  0.0040000  0  6  2 15 19 27  7 26
  22210891.510   -15420540.871 8 -12744311.536 9
  24976589.567    -4054089.278 5  -3357140.884 2
  23799611.961    15668494.220 6  10252444.794 5
  21732589.821     7733102.049 7  -9356823.171 9
  22124054.076   -14465909.292 7 -10949071.421 9
  24219650.665   -10763342.811 6  -8674700.926 5
 94  5 15 18 30 30.0040000  0  6  2 15 19 27  7 26
  22212047.989   -15414449.536 8 -12739565.044 9
  24973207.248    -4071843.569 5  -3370975.332 3
  23816087.865    15755083.716 6  10319917.064 5
  21741525.465     7780043.745 7  -9320245.241 9
  22115088.423   -14513035.203 7 -10985792.890 9
  24213008.373   -10798279.093 6  -8701923.992 5
 94  5 15 18 31  0.0040000  0  6  2 15 19 27  7 26
  22213239.874   -15408195.555 8 -12734691.815 9
  24969922.812    -4089110.580 5  -3384430.056 3
  23832617.912    15841945.755 6  10387601.720 5
  21750546.100     7827445.720 8  -9283308.641 9
  22106203.474   -14559708.615 7 -11022161.760 9
  24206450.023   -10832709.167 6  -8728752.625 5
 94  5 15 18 31 30.0040000  0  6  2 15 19 27  7 26
  22214464.856   -15401769.298 8 -12729684.343 9
  24966729.903    -4105893.011 5  -3397507.207 3
  23849199.733    15929071.269 6  10455491.694 5
  21759652.416     7875306.326 8  -9246014.665 9
  22097406.694   -14605939.191 7 -11058185.561 9
  24200000.408   -10866633.770 6  -8755187.381 5
 94  5 15 18 32  0.0040000  0  6  2 15 19 27  7 26
  22215721.016   -15395158.608 8 -12724533.151 9
  24963630.198    -4122191.448 5  -3410207.238 3
  23865819.477    16016457.973 6  10523585.166 5
  21768844.083     7923609.782 7  -9208375.620 9
  22088692.776   -14651736.433 7 -11093871.709 9
  24193643.099   -10900043.433 6  -8781220.857 5
 94  5 15 18 32 30.0040000  0  6  2 15 19 27  7 26
  22217012.852   -15388366.941 8 -12719240.947 9
  24960614.856    -4138011.346 5  -3422534.395 3
  23882502.418    16104105.344 6  10591881.766 5
  21778115.824     7972334.005 7  -9170408.723 9
  22080063.700   -14697092.060 7 -11129213.735 9
  24187378.216   -10932948.889 6  -8806861.456 5
 94  5 15 18 33  0.0040000  0  6  2 15 19 27  7 26
  22218340.303   -15381395.814 8 -12713808.901 9
  24957691.819    -4153355.128 5  -3434490.529 3
  23899235.304    16192014.523 6  10660382.368 5
  21787468.120     8021488.219 7  -9132106.737 9
  22071517.576   -14742001.177 7 -11164207.833 9
  24181208.817   -10965378.322 6  -8832131.137 5
 94  5 15 18 33 30.0040000  0  6  2 15 19 27  7 26
  22219698.753   -15374244.386 8 -12708236.362 9
  24954867.085    -4168229.110 5  -3446080.549 3
  23916017.146    16280183.511 6  10729085.409 5
  21796903.907     8071071.402 7  -9093470.513 9
  22063051.287   -14786467.521 7 -11198856.907 9
  24175120.962   -10997330.203 6  -8857028.698 5
 94  5 15 18 34  0.0040000  0  6  2 15 19 27  7 26
  22221096.325   -15366918.422 8 -12702527.818 9
  24952131.119    -4182630.942 5  -3457302.737 3
  23932841.529    16368618.750 6  10797995.946 5
  21806424.926     8121087.617 7  -9054496.857 9
  22054679.553   -14830477.166 7 -11233150.109 9
  24169138.813   -11028804.703 6  -8881554.277 5
 94  5 15 18 34 30.0040000  0  6  2 15 19 27  7 26
  22222519.230   -15359429.367 8 -12696692.192 9
  24949480.264    -4196559.478 5  -3468156.094 3
  23949724.910    16457323.215 6  10867116.260 5
  21816022.572     8171535.132 7  -9015187.137 9
  22046389.692   -14874026.312 7 -11267084.483 9
  24163239.078   -11059820.948 6  -8905722.784 5
 94  5 15 18 35  0.0040000  0  6  2 15 19 27  7 26
  22223976.371   -15351778.602 8 -12690730.559 9
  24946906.966    -4210011.083 5  -3478637.806 3
  23966650.563    16546299.475 6  10936448.346 4
  21825706.498     8222420.514 7  -8975536.212 9
  22038187.400   -14917145.781 7 -11300684.038 9
  24157421.785   -11090370.318 6  -8929527.475 5
 94  5 15 18 35 30.0040000  0  6  2 15 19 27  7 26
  22225460.344   -15343975.739 8 -12684650.414 9
  24944445.400    -4222990.701 5  -3488751.735 3
  23983635.095    16635537.431 6  11005984.350 4
  21835469.059     8273725.438 7  -8935558.352 9
  22030063.564   -14959844.823 7 -11333956.003 9
  24151699.796   -11120441.736 6  -8952959.736 5
 94  5 15 18 36  0.0040000  0  6  2 15 19 27  7 26
  22226973.277   -15336028.283 8 -12678457.584 9
  24942063.069    -4235497.508 5  -3498497.243 3
  24000663.936    16725023.006 6  11075713.308 4
  21845310.286     8325440.526 7  -8895260.912 9
  22022013.897   -15002129.907 7 -11366905.404 9
  24146068.105   -11150051.181 6  -8976032.030 5
 94  5 15 18 36 30.0040000  0  6  2 15 19 27  7 26
  22228511.212   -15327942.189 8 -12672156.737 9
  24939775.683    -4247532.238 5  -3507874.898 3
  24017734.838    16814737.793 6  11145620.858 4
  21855230.329     8377577.652 7  -8854634.604 9
  22014044.004   -15044013.927 7 -11399542.275 9
  24140524.373   -11179199.148 6  -8998744.727 5
 94  5 15 18 37  0.0040000  0  6  2 15 19 27  7 26
  22230079.276   -15319708.110 8 -12665740.573 9
  24937578.743    -4259091.777 5  -3516882.336 2
  24034850.439    16904676.646 6  11215703.056 4
  21865236.682     8430150.952 7  -8813668.420 9
  22006152.328   -15085476.924 7 -11431851.086 9
  24135061.824   -11207866.488 6  -9021082.903 5
 94  5 15 18 37 30.0040000  0  6  2 15 19 27  7 26
  22231674.742   -15311328.251 8 -12659210.803 9
  24935470.333    -4270176.132 5  -3525519.474 2
  24052006.992    16994845.440 6  11285964.392 4
  21875318.312     8483140.444 7  -8772377.933 9
  21998347.381   -15126489.002 7 -11463808.520 9
  24129699.796   -11236060.409 6  -9043052.195 5
 94  5 15 18 38  0.0040000  0  6  2 15 19 27  7 26
  22233291.732   -15302804.936 8 -12652569.273 9
  24933449.072    -4280783.857 5  -3533785.134 3
  24069207.584    17085241.442 6  11356402.791 4
  21885483.315     8536534.409 7  -8730772.260 9
  21990629.944   -15167056.730 7 -11495419.723 9
  24124421.501   -11263789.547 6  -9064659.316 5
 94  5 15 18 38 30.0040000  0  6  2 15 19 27  7 26
  22234942.689   -15294138.302 8 -12645816.040 9
  24931520.238    -4290912.190 5  -3541677.362 3
  24086461.270    17175883.771 6  11427033.127 4
  21895719.549     8590341.541 7  -8688844.635 9
  21982994.320   -15207180.546 7 -11526685.004 9
  24119234.611   -11291044.395 6  -9085896.860 5
 94  5 15 18 39  0.0040000  0  6  2 15 19 27  7 26
  22236622.187   -15285331.850 8 -12638953.880 9
  24929679.272    -4300562.036 5  -3549196.701 3
  24103754.648    17266786.473 6  11497866.382 4
  21906032.020     8644538.980 7  -8646612.884 9
  21975441.558   -15246865.372 7 -11557608.229 9
  24114140.928   -11317838.916 6  -9106775.703 5
 94  5 15 18 39 30.0040000  0  6  2 15 19 27  7 26
  22238318.712   -15276400.991 8 -12631994.771 9
  24927936.279    -4309737.501 5  -3556346.371 3
  24121103.398    17357942.488 6  11568896.943 4
  21916420.008     8699121.499 7  -8604081.074 9
  21967970.580   -15286136.961 7 -11588209.439 9
  24109122.672   -11344182.950 6  -9127303.514 5
 94  5 15 18 40  0.0040000  0  6  2 15 19 27  7 26
  22240041.020   -15267348.584 8 -12624940.951 9
  24926291.767    -4318435.613 5  -3563124.076 3
  24138498.885    17449335.523 6  11640112.285 4
  21926886.273     8754123.941 7  -8561222.050 9
  21960576.829   -15324997.791 7 -11618490.586 9
  24104199.450   -11370068.922 6  -9147474.396 5
 94  5 15 18 40 30.0040000  0  6  2 15 19 27  7 26
  22241790.669   -15258158.740 8 -12617780.028 9
  24924718.636    -4326644.251 5  -3569520.421 3
  24155931.906    17540979.196 6  11711522.889 4
  21937437.318     8809581.786 7  -8518008.146 9
  21953263.722   -15363417.209 7 -11648427.775 9
  24099367.845   -11395467.063 6  -9167265.150 5
 94  5 15 18 41  0.0040000  0  6  2 15 19 27  7 26
  22243566.429   -15248825.455 8 -12610507.330 9
  24923252.891    -4334357.230 5  -3575530.526 3
  24173415.623    17632860.418 6  11783118.566 4
  21948078.871     8865491.723 7  -8474442.000 9
  21946040.582   -15401370.556 7 -11678001.790 9
  24094626.867   -11420365.320 6  -9186666.389 5
 94  5 15 18 41 30.0040000  0  6  2 15 19 27  7 26
  22245369.171   -15239344.122 8 -12603119.282 9
  24921882.480    -4341578.006 5  -3581157.125 3
  24190943.588    17724959.686 6  11854884.184 4
  21958802.327     8921847.866 7  -8430528.141 9
  21938909.179   -15438855.421 7 -11707210.759 9
  24089986.889   -11444756.769 6  -9205672.713 5
 94  5 15 18 42  0.0040000  0  6  2 15 19 27  7 26
  22247206.090   -15229700.248 8 -12595604.584 9
  24920598.978    -4348300.419 5  -3586395.336 3
  24208509.448    17817264.164 6  11926809.690 4
  21969608.287     8978633.788 7  -8386279.397 9
  21931864.326   -15475863.728 7 -11736048.375 9
  24085442.605   -11468637.625 6  -9224281.158 5
 94  5 15 18 42 30.0040000  0  6  2 15 19 27  7 26
  22249069.839   -15219906.316 8 -12587972.945 9
  24919416.237    -4354530.931 5  -3591250.317 3
  24226114.910    17909773.725 6  11998894.988 4
  21980493.391     9035826.124 7  -8341713.954 9
  21924909.711   -15512415.891 7 -11764530.551 9
  24080991.077   -11492029.365 6  -9242508.491 5
 94  5 15 18 43  0.0040000  0  6  2 15 19 27  7 26
  22250962.429   -15209964.664 8 -12580226.216 9
  24918330.629    -4360270.991 5  -3595723.052 3
  24243754.068    18002480.016 6  12071133.595 4
  21991448.407     9093403.791 7  -8296848.280 9
  21918035.979   -15548546.542 7 -11792684.303 9
  24076625.379   -11514961.312 6  -9260377.547 5
 94  5 15 18 43 30.0040000  0  6  2 15 19 27  7 26
  22252885.268   -15199876.067 8 -12572364.966 9
  24917330.551    -4365520.651 5  -3599813.697 3
  24261436.427    18095384.306 6  12143526.516 4
  22002482.928     9151375.078 7  -8251675.879 9
  21911235.967   -15584272.468 7 -11820522.659 9
  24072345.902   -11537433.647 6  -9277888.451 5
 94  5 15 18 44  0.0040000  0  6  2 15 19 27  7 26
  22254827.533   -15189649.009 8 -12564395.832 9
  24916415.285    -4370278.974 5  -3603521.503 3
  24279153.442    18188508.792 6  12216090.966 4
  22013587.091     9209759.543 7  -8206181.518 9
  21904513.211   -15619591.298 7 -11848043.802 9
  24068161.728   -11559434.001 6  -9295031.597 5
 94  5 15 18 44 30.0040000  0  6  2 15 19 27  7 26
  22256795.161   -15179292.467 8 -12556325.789 9
  24915605.755    -4374548.839 5  -3606848.644 3
  24296921.391    18281879.731 6  12288847.471 4
  22024784.369     9268574.958 7  -8160351.349 9
  21897872.358   -15654500.702 7 -11875245.904 9
  24064064.255   -11580960.307 6  -9311805.337 5
 94  5 15 18 45  0.0040000  0  6  2 15 19 27  7 26
  22258798.794   -15168783.304 8 -12548136.839 9
  24914883.885    -4378325.751 5  -3609791.688 3
  24314738.177    18375497.153 6  12361796.006 4
  22036055.936     9327809.299 7  -8114194.744 9
  21891311.341   -15688980.795 7 -11902113.496 9
  24060069.970   -11601984.660 6  -9328187.942 5
 94  5 15 18 45 30.0040000  0  6  2 15 19 27  7 26
  22260822.723   -15158134.637 8 -12539839.175 9
  24914262.685    -4381610.350 5  -3612351.081 3
  24332601.281    18469364.021 6  12434938.913 4
  22047403.980     9387465.717 7  -8067709.252 9
  21884834.954   -15723010.322 7 -11928629.991 9
  24056166.433   -11622491.241 6  -9344167.113 5
 94  5 15 18 46  0.0040000  0  6  2 15 19 27  7 26
  22262873.963   -15147359.913 8 -12531443.295 9
  24913727.106    -4384405.132 5  -3614528.865 3
  24350513.730    18563481.343 6  12508277.070 4
  22058835.036     9447522.997 7  -8020911.395 9
  21878447.306   -15756583.889 7 -11954791.186 9
  24052357.030   -11642498.500 6  -9359757.184 5
 94  5 15 18 46 30.0040000  0  6  2 15 19 27  7 26
  22264953.144   -15136458.675 8 -12522948.826 9
  24913293.696    -4386709.446 5  -3616324.416 3
  24368455.379    18657825.624 6  12581792.014 4
  22070335.285     9507962.117 7  -7973815.990 9
  21872144.859   -15789697.244 7 -11980593.785 9
  24048640.503   -11662028.396 6  -9374975.270 5
 94  5 15 18 47  0.0040000  0  6  2 15 19 27  7 26
  22267047.404   -15125423.951 8 -12514350.340 9
  24912937.482    -4388520.530 5  -3617735.612 3
  24386457.707    18752381.019 6  12655471.453 4
  22081909.582     9568780.158 7  -7926425.338 9
  21865934.479   -15822349.646 7 -12006037.182 9
  24045014.603   -11681096.164 6  -9389833.285 5
 94  5 15 18 47 30.0040000  0  6  2 15 19 27  7 26
  22269174.521   -15114268.564 8 -12505657.835 9
  24912691.622    -4389829.715 5  -3618755.771 3
  24404491.692    18847157.115 6  12729322.923 4
  22093559.697     9629997.084 7  -7878723.868 9
  21859808.070   -15854528.026 7 -12031111.240 9
  24041465.989   -11699710.017 6  -9404337.600 5
 94  5 15 18 48  0.0040000  0  6  2 15 19 27  7 26
  22271323.314   -15102966.106 8 -12496850.719 9
  24912544.095    -4390629.585 5  -3619379.015 3
  24422571.785    18942159.490 6  12803350.639 4
  22105287.818     9691625.504 7  -7830701.750 9
  21853773.517   -15886227.312 7 -12055811.948 9
  24038018.976   -11717856.493 6  -9418477.704 6
 94  5 15 18 48 30.0040000  0  6  2 15 19 27  7 26
  22273507.152   -15091495.129 8 -12487912.299 9
  24912491.571    -4390910.661 5  -3619598.022 3
  24440696.338    19037384.747 5  12877552.079 4
  22117099.011     9753697.489 7  -7782333.992 9
  21847837.357   -15917446.257 7 -12080138.390 9
  24034656.653   -11735514.792 6  -9432237.408 6
 94  5 15 18 49  0.0040000  0  6  2 15 19 27  7 26
  22275722.049   -15079844.604 8 -12478833.978 9
  24912538.219    -4390662.941 5  -3619404.990 3
  24458853.388    19132847.569 5  12951938.628 4
  22128999.482     9816228.278 7  -7733608.713 9
  21841986.218   -15948179.719 7 -12104086.529 9
  24031398.749   -11752652.089 6  -9445591.158 6
 94  5 15 18 49 30.0040000  0  6  2 15 19 27  7 26
  22277972.920   -15068023.173 8 -12469622.457 9
  24912690.933    -4389881.394 5  -3618795.981 3
  24477063.502    19228545.293 6  13026508.171 4
  22140984.286     9879218.968 7  -7684525.098 8
  21836230.382   -15978420.891 7 -12127651.055 9
  24028238.547   -11769232.541 6  -9458510.983 6
 94  5 15 18 50  0.0040000  0  6  2 15 19 27  7 26
  22280251.553   -15056036.268 8 -12460282.016 9
  24912937.692    -4388571.383 5  -3617775.172 3
  24495319.004    19324462.145 6  13101248.507 4
  22153057.078     9942663.167 7  -7635088.073 8
  21830565.864   -16008194.276 7 -12150851.085 9
  24025191.006   -11785256.517 6  -9470997.216 6
 94  5 15 18 50 30.0040000  0  6  2 15 19 27  7 26
  22282560.255   -15043907.632 8 -12450831.129 9
  24913285.301    -4386737.007 5  -3616345.766 3
  24513609.311    19420588.791 5  13176152.290 4
  22165210.664    10006529.992 7  -7585321.756 8
  21824987.446   -16037519.503 7 -12173701.886 9
  24022243.177   -11800746.535 6  -9483067.348 6
 94  5 15 18 51  0.0040000  0  6  2 15 19 27  7 26
  22284893.539   -15031653.338 8 -12441282.331 9
  24913733.012    -4384380.422 5  -3614509.454 3
  24531946.057    19516927.085 6  13251221.055 4
  22177439.708    10070791.530 7  -7535247.880 8
  21819488.053   -16066407.724 7 -12196212.170 9
  24019396.018   -11815710.948 6  -9494727.939 6
 94  5 15 18 51 30.0040000  0  6  2 15 19 27  7 26
  22287244.362   -15019278.078 8 -12431639.263 9
  24914287.598    -4381497.026 5  -3612262.613 3
  24550322.226    19613480.513 5  13326457.400 4
  22189744.779    10135450.502 7  -7484864.290 8
  21814071.193   -16094864.743 7 -12218386.466 9
  24016646.951   -11830173.189 6  -9505997.219 6
 94  5 15 18 52  0.0040000  0  6  2 15 19 27  7 26
  22289629.750   -15006761.844 8 -12421886.363 9
  24914931.882    -4378079.428 5  -3609599.499 3
  24568736.827    19710266.115 6  13401874.633 4
  22202128.127    10200516.538 7  -7434163.526 8
  21808738.874   -16122895.693 7 -12240228.746 9
  24013987.852   -11844148.894 6  -9516887.366 6
 94  5 15 18 52 30.0040000  0  6  2 15 19 27  7 26
  22292043.829   -14994083.073 8 -12412006.817 9
  24915689.697    -4374117.890 5  -3606512.555 3
  24587201.644    19807300.040 5  13477485.415 4
  22214587.501    10266008.372 7  -7383130.971 8
  21803493.166   -16150471.999 7 -12261716.769 9
  24011419.080   -11857624.795 6  -9527388.075 6
 94  5 15 18 53  0.0040000  0  6  2 15 19 27  7 26
  22294489.026   -14981230.464 8 -12401991.786 9
  24916543.566    -4369605.552 5  -3602996.408 3
  24605713.049    19904583.394 6  13553290.562 3
  22227140.201    10331960.883 7  -7331739.440 8
  21798336.885   -16177561.021 7 -12282825.074 9
  24008956.795   -11870579.477 6  -9537482.624 6
 94  5 15 18 53 30.0040000  0  6  2 15 19 27  7 26
  22296973.047   -14968188.558 8 -12391829.272 9
  24917505.690    -4364543.153 5  -3599051.703 3
  24624274.699    20002115.560 5  13629289.552 3
  22239778.792    10398384.591 7  -7279980.748 8
  21793278.727   -16204142.027 7 -12303537.529 9
  24006590.413   -11883008.425 6  -9547167.533 6
 94  5 15 18 54  0.0040000  0  6  2 15 19 27  7 26
  22299489.924   -14954956.840 8 -12381518.838 9
  24918576.818    -4358938.168 5  -3594684.191 3
  24642881.618    20099880.413 6  13705469.908 3
  22252503.153    10465259.311 7  -7227870.642 8
  21788317.791   -16230211.027 7 -12323851.014 9
  24004328.899   -11894906.121 6  -9556438.476 6
 94  5 15 18 54 30.0040000  0  6  2 15 19 27  7 26
  22302041.038   -14941551.287 8 -12371072.952 9
  24919741.122    -4352790.374 5  -3589893.666 3
  24661527.120    20197865.477 5  13781821.794 3
  22265312.535    10532566.813 7  -7175423.292 8
  21783456.627   -16255761.907 7 -12343760.787 9
  24002163.168   -11906273.375 6  -9565296.069 6
 94  5 15 18 55  0.0040000  0  6  2 15 19 27  7 26
  22304624.680   -14927974.043 8 -12360493.293 9
  24921021.836    -4346094.179 5  -3584675.823 3
  24680211.085    20296068.799 5  13858343.802 3
  22278198.724    10600296.042 7  -7122647.287 8
  21778691.066   -16280811.005 7 -12363279.537 9
  24000098.108   -11917119.846 6  -9573747.870 6
 94  5 15 18 55 30.0040000  0  6  2 15 19 27  7 26
  22307240.639   -14914218.544 8 -12349774.718 9
  24922399.832    -4338846.493 5  -3579028.283 3
  24698936.062    20394493.367 5  13935038.239 3
  22291166.696    10668432.825 7  -7069553.725 8
  21774015.143   -16305386.972 7 -12382429.632 9
  23998138.305   -11927444.690 6  -9581793.225 6
 94  5 15 18 56  0.0040000  0  6  2 15 19 27  7 26
  22309889.875   -14900307.114 8 -12338934.652 9
  24923880.057    -4331049.514 5  -3572952.687 3
  24717723.546    20493132.931 5  14011900.087 3
  22304207.878    10736977.214 7  -7016142.560 8
  21769421.573   -16329512.677 7 -12401228.861 9
  23996266.730   -11937245.709 6  -9589430.381 6
 94  5 15 18 56 30.0040000  0  6  2 15 19 27  7 26
  22312563.004   -14886244.680 8 -12327976.910 9
  24925469.736    -4322705.547 5  -3566450.880 3
  24736530.396    20591996.569 5  14088936.615 3
  22317332.282    10805938.794 7  -6962406.305 8
  21764915.572   -16353192.672 8 -12419680.788 9
  23994503.741   -11946528.808 6  -9596663.954 6
 94  5 15 18 57  0.0040000  0  6  2 15 19 27  7 26
  22315270.969   -14872020.171 8 -12316892.889 9
  24927166.622    -4313818.511 5  -3559525.941 3
  24755380.747    20691094.896 5  14166156.022 3
  22330538.800    10875325.640 7  -6908338.688 8
  21760494.353   -16376422.407 8 -12437781.877 9
  23992834.886   -11955291.845 6  -9603492.305 5
 94  5 15 18 57 30.0040000  0  6  2 15 19 27  7 26
  22318008.434   -14857633.213 8 -12305682.276 9
  24928954.344    -4304385.238 5  -3552175.343 3
  24774290.396    20790436.775 5  14243565.176 3
  22343827.100    10945151.948 7  -6853928.603 8
  21756165.620   -16399175.404 7 -12455511.471 9
  23991268.980   -11963520.527 6  -9609904.257 6
 94  5 15 18 58  0.0040000  0  6  2 15 19 27  7 26
  22320773.180   -14843097.199 8 -12294355.501 9
  24930852.090    -4294411.229 5  -3544403.356 3
  24793236.979    20890024.253 5  14321165.746 3
  22357196.225    11015424.161 7  -6799171.064 8
  21751927.784   -16421428.933 7 -12472851.864 9
  23989802.186   -11971233.815 6  -9615914.630 6
 94  5 15 18 58 30.0040000  0  6  2 15 19 27  7 26
  22323571.473   -14828394.606 8 -12282898.951 9
  24932862.319    -4283889.236 5  -3536204.404 3
  24812236.596    20989856.356 5  14398956.858 3
  22370653.699    11086145.848 7  -6744063.283 8
  21747797.753   -16443161.024 7 -12489785.957 9
  23988429.856   -11978434.228 6  -9621525.337 6
 94  5 15 18 59  0.0040000  0  6  2 15 19 27  7 26
  22326404.182   -14813515.203 8 -12271304.601 9
  24934969.290    -4272800.510 5  -3527563.802 2
  24831277.704    21089937.023 5  14476941.716 3
  22384204.318    11157344.654 7  -6688583.751 8
  21743759.129   -16464354.917 7 -12506300.672 9
  23987162.543   -11985090.426 6  -9626712.013 6
 94  5 15 18 59 30.0040000  0  6  2 15 19 27  7 26
  22329267.919   -14798458.759 8 -12259572.323 9
  24937189.013    -4261134.890 5  -3518473.706 2
  24850367.559    21190259.771 5  14555115.184 3
  22397844.965    11229031.519 7  -6632723.899 8
  21739831.578   -16485006.750 7 -12522392.988 9
  23986000.098   -11991196.055 6  -9631469.634 6
 94  5 15 19  0  0.0040000  0  6  2 15 19 27  7 26
  22332169.311   -14783221.174 8 -12247698.875 9
  24939520.289    -4248887.559 5  -3508930.317 3
  24869511.795    21290818.190 5  14633472.289 3
  22411580.076    11301193.781 7  -6576493.599 8
  21735997.802   -16505135.192 7 -12538077.479 9
  23984944.858   -11996745.705 6  -9635794.044 6
 94  5 15 19  0 30.0040000  0  6  2 15 19 27  7 26
  22335103.350   -14767797.826 8 -12235680.701 9
  24941960.630    -4236057.584 5  -3498932.929 3
  24888678.456    21391600.571 5  14712003.945 3
  22425397.750    11373811.472 7  -6519908.435 8
  21732267.424   -16524758.694 7 -12553368.505 9
  23983995.146   -12001725.633 6  -9639674.516 6
 94  5 15 19  1  0.0040000  0  6  2 15 19 27  7 26
  22338074.173   -14752192.419 8 -12223520.644 9
  24944511.624    -4222648.912 5  -3488484.624 3
  24907898.810    21492609.898 5  14790712.397 3
  22439297.807    11446866.999 7  -6462982.087 8
  21728627.764   -16543895.593 7 -12568280.371 9
  23983159.054   -12006141.111 6  -9643115.176 6
 94  5 15 19  1 30.0040000  0  6  2 15 19 27  7 26
  22341080.822   -14736399.268 8 -12211214.283 9
  24947170.963    -4208668.252 5  -3477590.623 3
  24927170.429    21593838.615 5  14869591.822 3
  22453278.089    11520329.034 7  -6405738.964 8
  21725073.934   -16562553.111 7 -12582818.661 9
  23982421.265   -12010008.876 6  -9646129.012 6
 94  5 15 19  2  0.0040000  0  6  2 15 19 27  7 26
  22344117.449   -14720421.561 8 -12198764.134 9
  24949944.703    -4194118.370 5  -3466253.053 3
  24946468.729    21695288.432 5  14948643.505 3
  22467332.809    11594181.731 7  -6348191.451 8
  21721613.400   -16580735.468 7 -12596986.732 9
  23981790.772   -12013322.521 6  -9648711.098 6
 94  5 15 19  2 30.0040000  0  6  2 15 19 27  7 26
  22347195.269   -14704258.139 8 -12186169.264 9
  24952816.115    -4179000.933 5  -3454473.225 3
  24965825.459    21796966.132 5  15027872.774 3
  22481463.647    11668436.862 7  -6290330.341 8
  21718247.420   -16598430.920 7 -12610775.367 9
  23981257.621   -12016088.612 6  -9650866.514 6
 94  5 15 19  3  0.0040000  0  6  2 15 19 27  7 26
  22350305.825   -14687914.682 8 -12173434.105 9
  24955800.399    -4163323.962 5  -3442257.427 3
  24985208.930    21898867.468 5  15107276.330 3
  22495671.021    11743096.980 7  -6232153.675 8
  21714973.836   -16615643.107 7 -12624187.457 9
  23980842.198   -12018315.866 6  -9652602.025 6
 94  5 15 19  3 30.0040000  0  6  2 15 19 27  7 26
  22353445.702   -14671410.718 8 -12160573.884 9
  24958883.734    -4147095.747 5  -3429612.064 3
  25004642.976    22000982.720 5  15186846.534 3
  22509953.943    11818165.628 7  -6173658.696 8
  21711790.940   -16632372.075 7 -12637223.004 9
  23980522.110   -12020007.615 6  -9653920.310 5
 94  5 15 19  4  0.0040000  0  6  2 15 19 27  7 26
  22356614.148   -14654761.864 8 -12147600.742 9
  24962082.970    -4130323.103 5  -3416542.467 3
  25024113.657    22103309.032 5  15266581.254 3
  22524317.959    11893650.307 7  -6114839.482 8
  21708696.062   -16648631.685 7 -12649892.814 9
  23980299.634   -12021172.107 6  -9654827.682 5
 94  5 15 19  4 30.0040000  0  6  2 15 19 27  7 26
  22359808.287   -14637977.216 8 -12134521.811 9
  24965378.558    -4113008.359 5  -3403050.461 3
  25043627.537    22205828.977 5  15346466.831 3
  22538761.780    11969555.472 7  -6055692.655 8
  21705686.596   -16664427.120 7 -12662200.929 9
  23980176.299   -12021820.084 6  -9655332.624 5
 94  5 15 19  5  0.0040000  0  6  2 15 19 27  7 26
  22363026.379   -14621069.335 8 -12121346.844 9
  24968773.828    -4095156.051 5  -3389139.588 3
  25063177.933    22308532.081 5  15426495.117 3
  22553285.705    12045863.439 7  -5996231.908 8
  21702765.628   -16679765.342 7 -12674152.782 9
  23980154.894   -12021950.639 6  -9655434.376 5
 94  5 15 19  5 30.0040000  0  6  2 15 19 27  7 26
  22366264.347   -14604043.212 8 -12108079.746 9
  24972269.887    -4076767.049 5  -3374810.486 3
  25082749.644    22411411.615 5  15506660.955 2
  22567882.870    12122576.815 7  -5936455.299 8
  21699939.604   -16694641.186 7 -12685744.333 9
  23980219.320   -12021570.502 6  -9655138.158 5
 94  5 15 19  6  0.0040000  0  6  2 15 19 27  7 26
  22369527.708   -14586889.184 8 -12094712.974 9
  24975873.543    -4057839.459 5  -3360061.748 3
  25102352.593    22514464.826 5  15586962.010 2
  22582556.631    12199689.471 7  -5876367.551 8
  21697198.722   -16709053.694 7 -12696974.863 9
  23980388.612   -12020689.863 6  -9654451.951 5
 94  5 15 19  6 30.0040000  0  6  2 15 19 27  7 26
  22372818.260   -14569603.042 8 -12081243.245 9
  24979575.020    -4038373.098 5  -3344893.174 3
  25122007.916    22617695.464 5  15667401.359 2
  22597304.232    12277197.160 7  -5815971.972 8
  21694546.128   -16722989.891 7 -12707834.219 9
  23980656.147   -12019316.819 6  -9653382.074 5
 94  5 15 19  7  0.0040000  0  6  2 15 19 27  7 26
  22376138.222   -14552158.537 8 -12067650.149 9
  24983386.611    -4018364.030 5  -3329301.653 3
  25141679.877    22721116.477 5  15747989.069 2
  22612129.598    12355102.770 7  -5755266.346 8
  21691984.612   -16736442.731 7 -12718316.938 9
  23981004.566   -12017451.826 6  -9651928.844 5
 94  5 15 19  7 30.0040000  0  6  2 15 19 27  7 26
  22379491.161   -14534545.394 8 -12053925.633 9
  24987295.515    -3997810.944 5  -3313286.291 3
  25161398.786    22824716.356 5  15828716.146 2
  22627031.952    12433406.679 7  -5694250.356 8
  21689518.339   -16749412.397 7 -12728423.167 9
  23981459.231   -12015099.747 6  -9650096.062 5
 94  5 15 19  8  0.0040000  0  6  2 15 19 27  7 26
  22382874.079   -14516760.290 8 -12040067.105 9
  24991311.295    -3976716.119 5  -3296848.764 3
  25181149.143    22928496.767 5  15909583.877 2
  22642005.176    12512096.248 7  -5632933.835 8
  21687138.377   -16761898.944 7 -12738152.927 9
  23981990.553   -12012251.423 6  -9647876.593 5
 94  5 15 19  8 30.0040000  0  6  2 15 19 27  7 26
  22386291.953   -14498799.425 8 -12026071.627 9
  24995424.388    -3955082.567 5  -3279991.472 3
  25200929.779    23032449.035 5  15990585.554 2
  22657055.117    12591171.273 7  -5571316.955 8
  21684856.356   -16773908.715 7 -12747511.173 9
  23982638.855   -12008886.252 6  -9645254.400 5
 94  5 15 19  9  0.0040000  0  6  2 15 19 27  7 26
  22389745.172   -14480659.261 8 -12011936.442 9
  24999644.986    -3932903.592 5  -3262709.134 3
  25220741.804    23136569.241 4  16071718.115 2
  22672170.293    12670630.130 7  -5509401.007 7
  21682661.156   -16785444.517 7 -12756500.111 9
  23983375.984   -12004987.353 6  -9642216.315 5
 94  5 15 19  9 30.0040000  0  6  2 15 19 27  7 26
  22393224.533   -14462365.846 8 -11997681.856 9
  25003969.852    -3910175.359 5  -3244998.866 3
  25240587.735    23240866.096 4  16152988.226 3
  22687369.111    12750481.098 7  -5447179.499 7
  21680555.534   -16796507.602 7 -12765120.679 9
  23984223.947   -12000542.157 6  -9638752.539 5
 94  5 15 19 10  0.0040000  0  6  2 15 19 27  7 26
  22396735.013   -14443928.061 8 -11983314.742 9
  25008405.701    -3886897.462 5  -3226860.286 3
  25260468.711    23345355.028 5  16234408.078 3
  22702640.269    12830736.847 7  -5384642.594 7
  21678539.340   -16807101.786 7 -12773375.880 9
  23985174.709   -11995550.625 6  -9634863.045 5
 94  5 15 19 10 30.0040000  0  6  2 15 19 27  7 26
  22400265.639   -14425366.094 8 -11968850.889 9
  25012935.205    -3863076.614 5  -3208298.524 3
  25280392.079    23450018.986 5  16315964.282 3
  22717991.802    12911392.072 7  -5321794.404 7
  21676607.087   -16817255.938 7 -12781288.193 9
  23986223.473   -11990035.230 6  -9630565.333 5
 94  5 15 19 11  0.0040000  0  6  2 15 19 27  7 26
  22403818.539   -14406704.730 8 -11954309.573 9
  25017573.324    -3838720.090 5  -3189319.429 3
  25300334.663    23554854.397 5  16397654.118 3
  22733410.997    12992435.259 7  -5258643.901 7
  21674756.678   -16826974.977 7 -12788861.475 9
  23987369.789   -11984020.902 6  -9625878.869 5
 94  5 15 19 11 30.0040000  0  6  2 15 19 27  7 26
  22407386.189   -14387941.160 8 -11939688.615 9
  25022304.319    -3813827.491 5  -3169922.632 3
  25320316.010    23659873.170 5  16479486.844 3
  22748907.269    13073877.054 7  -5195182.789 7
  21672990.061   -16836253.676 7 -12796091.604 9
  23988606.823   -11977505.568 6  -9620802.002 5
 94  5 15 19 12  0.0040000  0  6  2 15 19 27  7 26
  22410982.949   -14369056.276 8 -11924973.133 9
  25027143.749    -3788399.999 5  -3150109.019 3
  25340340.287    23765073.033 5  16561460.651 3
  22764481.367    13155705.860 7  -5131420.130 7
  21671307.506   -16845095.705 7 -12802981.495 9
  23989944.047   -11970495.529 6  -9615339.635 5
 94  5 15 19 12 30.0040000  0  6  2 15 19 27  7 26
  22414599.616   -14350044.014 8 -11910158.395 9
  25032088.436    -3762439.688 5  -3129880.226 3
  25360391.696    23870446.409 5  16643569.684 3
  22780125.377    13237910.238 7  -5067364.825 7
  21669713.480   -16853494.486 7 -12809526.002 9
  23991371.689   -11962990.261 6  -9609491.409 5
 94  5 15 19 13  0.0040000  0  6  2 15 19 27  7 26
  22418241.704   -14330900.173 8 -11895241.131 9
  25037123.180    -3735950.757 5  -3109239.520 3
  25380483.667    23975998.964 5  16725818.290 3
  22795838.609    13320492.016 7  -5003015.435 7
  21668201.566   -16861434.391 7 -12815712.919 9
  23992894.185   -11954984.847 6  -9603253.445 5
 94  5 15 19 13 30.0040000  0  6  2 15 19 27  7 26
  22421913.113   -14311598.390 8 -11880200.784 9
  25042274.904    -3708927.666 5  -3088182.589 3
  25400598.332    24081731.475 5  16808207.124 3
  22811626.220    13403456.523 7  -4938367.799 7
  21666778.601   -16868910.617 7 -12821538.537 9
  23994515.133   -11946472.252 6  -9596620.254 5
 94  5 15 19 14  0.0040000  0  6  2 15 19 27  7 26
  22425619.986   -14292131.717 8 -11865031.967 9
  25047508.531    -3681365.851 5  -3066705.810 3
  25420760.154    24187622.860 5  16890719.850 3
  22827485.151    13486794.442 7  -4873429.197 7
  21665445.934   -16875920.328 7 -12827000.654 9
  23996230.515   -11937460.907 6  -9589598.452 5
 94  5 15 19 14 30.0040000  0  6  2 15 19 27  7 26
  22429358.728   -14272498.908 8 -11849733.689 9
  25052863.124    -3653261.587 5  -3044806.441 2
  25440933.398    24293661.108 5  16973346.903 3
  22843412.884    13570510.386 7  -4808196.020 7
  21664200.446   -16882447.641 7 -12832086.876 9
  23998037.964   -11927947.384 6  -9582185.350 6
 94  5 15 19 15  0.0040000  0  6  2 15 19 27  7 26
  22433126.490   -14252694.110 8 -11834301.382 9
  25058317.428    -3624609.039 5  -3022479.759 2
  25461132.425    24399840.560 4  17056084.053 3
  22859417.155    13654605.863 7  -4742667.113 7
  21663050.142   -16888486.238 7 -12836792.271 9
  23999944.434   -11917929.116 6  -9574378.918 6
 94  5 15 19 15 30.0040000  0  6  2 15 19 27  7 26
  22436928.877   -14232719.676 8 -11818736.906 9
  25063868.745    -3595413.427 5  -2999729.917 3
  25481362.450    24506147.630 4  17138920.580 2
  22875488.159    13739070.970 7  -4676850.186 7
  21661994.124   -16894047.741 7 -12841125.889 9
  24001946.988   -11907410.232 6  -9566182.392 6
 94  5 15 19 16  0.0040000  0  6  2 15 19 27  7 26
  22440757.077   -14212596.002 8 -11803056.131 9
  25069527.447    -3565674.263 5  -2976556.575 3
  25501617.328    24612590.133 4  17221862.708 2
  22891634.531    13823908.626 7  -4610742.976 7
  21661024.835   -16899132.148 7 -12845087.769 9
  24004049.312   -11896384.018 6  -9557590.558 6
 94  5 15 19 16 30.0040000  0  6  2 15 19 27  7 26
  22444608.571   -14192330.146 8 -11787264.566 9
  25075286.460    -3535392.893 5  -2952960.710 3
  25521909.260    24719187.008 4  17304925.013 2
  22907848.447    13909123.350 7  -4544341.935 7
  21660151.779   -16903743.832 7 -12848681.287 9
  24006239.236   -11884833.149 6  -9548589.880 6
 94  5 15 19 17  0.0040000  0  6  2 15 19 27  7 26
  22448494.211   -14171929.638 8 -11771368.087 9
  25081152.649    -3504576.820 5  -2928948.211 3
  25542228.623    24825947.935 4  17388115.284 2
  22924138.809    13994707.742 7  -4477652.833 7
  21659355.470   -16907903.529 7 -12851922.607 9
  24008538.645   -11872771.103 6  -9539190.901 6
 94  5 15 19 17 30.0040000  0  6  2 15 19 27  7 26
  22452400.716   -14151399.632 8 -11755370.688 9
  25087117.890    -3473229.141 5  -2904521.469 3
  25562575.627    24932882.600 4  17471440.819 2
  22940495.366    14080658.009 7  -4410678.635 7
  21658649.969   -16911625.439 7 -12854822.797 9
  24010928.860   -11860201.938 6  -9529396.779 6
 94  5 15 19 18  0.0040000  0  7  2 15  4 19 27  7 26
  22456330.366   -14130745.757 8 -11739276.778 9
  25093184.940    -3441353.780 5  -2879683.545 3
  26104285.819    -4549592.40615  -3325496.886 2
  25582953.780    25039982.159 4  17554894.949 2
  22956918.026    14166963.581 7  -4343427.584 7
  21658022.503   -16914907.144 7 -12857379.950 9
  24013416.148   -11847144.664 6  -9519222.277 5
 94  5 15 19 18 30.0040000  0  7  2 15  4 19 27  7 26
  22460288.526   -14109944.769 8 -11723068.222 9
  25099351.550    -3408943.121 5  -2854428.508 3
  26086755.365    -4641779.594 5  -3397330.884 2
  25603362.001    25147239.190 3  17638471.730 2
  22973404.663    14253630.913 7  -4275894.652 6
  21657483.446   -16917741.461 7 -12859588.511 9
  24015992.684   -11833601.150 6  -9508668.906 5
 94  5 15 19 19  0.0040000  0  7  2 15  4 19 27  7 26
  22464275.286   -14089002.854 8 -11706749.865 9
  25105622.849    -3376003.351 5  -2828761.128 3
  26069179.852    -4734105.692 5  -3469273.155 2
  25623791.958    25254631.076 4  17722153.542 2
  22989967.567    14340647.443 7  -4208089.621 6
  21657033.008   -16920131.345 7 -12861450.755 9
  24018660.417   -11819594.485 6  -9497754.656 5
 94  5 15 19 19 30.0040000  0  7  2 15  4 19 27  7 26
  22468285.430   -14067928.833 8 -11690328.563 9
  25111992.210    -3342537.348 5  -2802683.760 3
  26051578.078    -4826562.240 5  -3541317.050 2
  25644255.971    25362141.995 4  17805928.140 2
  23006592.168    14428009.127 7  -4140015.636 6
  21656660.876   -16922066.578 7 -12862958.720 9
  24021413.741   -11805112.180 6  -9486469.744 5
 94  5 15 19 20  0.0050000  0  7  2 15  4 19 27  7 26
  22472324.503   -14046719.144 8 -11673801.545 9
  25118458.913    -3308540.163 5  -2776192.473 3
  26033961.913    -4919150.214 5  -3613463.380 2
  25664737.462    25469772.160 5  17889795.658 2
  23023284.162    14515727.469 7  -4071663.735 6
  21656379.970   -16923535.880 7 -12864103.624 9
  24024260.331   -11790143.895 6  -9474806.157 5
 94  5 15 19 20 30.0050000  0  7  2 15  4 19 27  7 26
  22476380.635   -14025368.568 8 -11657164.740 9
  25125034.171    -3274007.311 5  -2749283.762 3
  26016325.333    -5011839.135 5  -3685688.332 2
  25685242.637    25577530.293 5  17973762.899 2
  23040044.149    14603803.030 7  -4003033.459 6
  21656189.182   -16924552.874 7 -12864896.095 9
  24027206.091   -11774668.571 6  -9462747.484 5
 94  5 15 19 21  0.0050000  0  7  2 15  4 19 27  7 26
  22480472.713   -14003884.720 8 -11640424.101 9
  25131704.703    -3238941.334 5  -2721959.659 3
  25998672.204    -5104617.133 5  -3757982.720 2
  25705777.221    25685431.367 5  18057841.526 2
  23056872.489    14692234.125 7  -3934126.167 6
  21656077.929   -16925119.229 7 -12865337.421 9
  24030253.212   -11758688.048 6  -9450295.164 5
 94  5 15 19 21 30.0050000  0  7  2 15  4 19 27  7 26
  22484588.773   -13982252.933 8 -11623568.170 9
  25138483.160    -3203335.416 5  -2694214.827 3
  25980998.779    -5197462.374 5  -3830329.494 2
  25726340.135    25793485.022 5  18142039.014 2
  23073769.782    14781043.129 7  -3864924.413 6
  21656057.064   -16925234.975 7 -12865427.604 9
  24033385.144   -11742191.117 6  -9437440.404 5
 94  5 15 19 22  0.0050000  0  7  2 15  4 19 27  7 26
  22488732.774   -13960474.749 8 -11606598.159 9
  25145361.089    -3167198.451 5  -2666056.125 3
  25963317.709    -5290382.249 5  -3902734.453 2
  25746931.590    25901688.907 5  18226353.634 2
  23090744.480    14870221.955 7  -3795434.460 6
  21656116.453   -16924921.609 7 -12865183.418 9
  24036622.812   -11725202.445 6  -9424202.506 5
 94  5 15 19 22 30.0050000  0  7  2 15  4 19 27  7 26
  22492903.397   -13938547.340 8 -11589511.876 9
  25152337.109    -3130531.945 5  -2637484.818 3
  25945627.676    -5383349.449 5  -3975176.219 2
  25767548.497    26010033.423 5  18310777.808 2
  23107781.566    14959772.725 7  -3725654.687 6
  21656261.312   -16924184.745 7 -12864609.237 9
  24039945.802   -11707733.793 6  -9410590.604 5
 94  5 15 19 23  0.0050000  0  8  9  2 15  4 19 27  7 26
  26218412.761    -1728842.93814  -1532896.726 2
  22497106.667   -13916472.500 8 -11572310.715 9
  25159414.310    -3093337.297 5  -2608502.020 3
  25927919.025    -5476376.565 4  -4047664.787 1
  25788192.296    26118513.398 5  18395307.507 2
  23124896.237    15049697.434 7  -3655583.549 6
  21656486.666   -16922998.896 7 -12863685.201 9
  24043356.870   -11689790.957 6  -9396609.191 5
 94  5 15 19 23 30.0050000  0  8  9  2 15  4 19 27  7 26
  26201057.086    -1820067.386 5  -1603980.686 2
  22501334.071   -13894254.431 8 -11554997.961 9
  25166590.172    -3055618.175 5  -2579110.517 3
  25910213.073    -5569477.890 4  -4120211.098 1
  25808865.055    26227114.464 5  18479931.599 2
  23142075.904    15139982.511 7  -3585231.615 6
  21656796.112   -16921371.216 7 -12862416.872 9
  24046863.213   -11671375.304 6  -9382259.359 5
 94  5 15 19 24  0.0050000  0  8  9  2 15  4 19 27  7 26
  26183699.942    -1911287.921 5  -1675061.549 2
  22505589.415   -13871896.330 8 -11537576.069 9
  25173871.561    -3017375.402 5  -2549310.985 3
  25892468.957    -5662668.160 4  -4192826.790 1
  25829548.216    26335834.427 5  18564648.278 2
  23159326.412    15230610.212 7  -3514612.676 6
  21657186.472   -16919301.102 7 -12860803.812 9
  24050454.637   -11652493.727 6  -9367546.471 5
 94  5 15 19 24 30.0050000  0  8  9  2 15  4 19 27  7 26
  26166337.132    -2002518.097 5  -1746149.955 2
  22509871.440   -13849399.791 8 -11520046.324 9
  25181241.179    -2978609.769 5  -2519104.012 3
  25874727.419    -5755948.285 4  -4265512.391 1
  25850262.136    26444661.885 5  18649448.795 2
  23176635.769    15321574.273 7  -3443731.640 6
  21657667.729   -16916785.129 7 -12858843.315 9
  24054137.347   -11633136.816 6  -9352463.190 5
 94  5 15 19 25  0.0050000  0  8  9  2 15  4 19 27  7 26
  26148974.771    -2093758.593 4  -1817246.423 2
  22514177.389   -13826756.586 8 -11502402.279 9
  25188719.352    -2939315.704 5  -2488485.263 3
  25856954.253    -5849330.297 4  -4338277.389 2
  25870991.345    26553609.357 4  18734342.728 2
  23194006.673    15412868.591 6  -3372593.264 6
  21658231.159   -16913817.636 7 -12856530.989 9
  24057918.270   -11613283.781 6  -9336993.314 5
 94  5 15 19 25 30.0050000  0  8  9  2 15  4 19 27  7 26
  26131611.032    -2185006.365 4  -1888348.580 2
  22518520.063   -13803950.839 8 -11484631.580 9
  25196304.671    -2899493.573 5  -2457455.046 3
  25839169.935    -5942800.512 4  -4411111.151 2
  25891745.857    26662668.509 4  18819323.800 2
  23211441.883    15504500.690 7  -3301191.663 6
  21658878.111   -16910419.211 7 -12853882.854
  24061789.610   -11592932.870 6  -9321135.490 5
 94  5 15 19 26  0.0050000  0  8  9  2 15  4 19 27  7 26
  26114250.890    -2276268.104 5  -1959461.546 2
  22522891.097   -13780974.916 8 -11466728.284 9
  25203972.493    -2859143.313 5  -2426013.322 2
  25821371.886    -6036348.829 4  -4484005.741 2
  25912512.031    26771847.405 4  18904398.022 2
  23228945.626    15596477.925 6  -3229521.141 6
  21659608.945   -16906586.929 7 -12850896.671 9
  24065756.583   -11572084.475 6  -9304890.002 5
 94  5 15 19 26 30.0050000  0  8  9  2 15  4 19 27  7 26
  26096878.787    -2367536.931 5  -2030580.067 2
  22527295.618   -13757831.841 8 -11448694.717 9
  25211760.891    -2818263.247 5  -2394158.759 2
  25803555.460    -6129964.764 4  -4556953.032 2
  25933314.930    26881150.780 3  18989569.431 2
  23246515.142    15688809.172 7  -3157574.751 6
  21660421.472   -16902317.297 7 -12847569.697
  24069821.170   -11550729.805 6  -9288250.024 5
 94  5 15 19 27  0.0050000  0  8  9  2 15  4 19 27  7 26
  26079512.829    -2458800.853 5  -2101694.792 2
  22531732.246   -13734516.457 8 -11430526.911 9
  25219639.707    -2776852.746 5  -2361890.837 3
  25785720.507    -6223650.081 4  -4629954.376 2
  25954132.758    26990597.468 3  19074852.294 2
  23264156.250    15781501.220 6  -3085347.248 6
  21661314.164   -16897605.968 7 -12843898.535 1
  24073978.182   -11528880.272 6  -9271224.438 5
 94  5 15 19 27 30.0050000  0  8  9  2 15  4 19 27  7 26
  26062146.212    -2550054.697 5  -2172801.610 2
  22536199.903   -13711041.841 8 -11412235.004 9
  25227625.129    -2734909.076 5  -2329207.505 2
  25767884.685    -6317400.158 4  -4703006.193 2
  25974999.902    27100198.104 4  19160255.330 2
  23281863.461    15874557.918 7  -3012835.582 6
  21662300.541   -16892441.685 7 -12839874.426
  24078227.560   -11506551.448 6  -9253825.369 5
 94  5 15 19 28  0.0050000  0  8  9  2 15  4 19 27  7 26
  26044787.988    -2641286.087 5  -2243890.958 2
  22540693.343   -13687429.066 8 -11393835.453 9
  25235709.962    -2692424.978 5  -2296103.035 2
  25750033.932    -6411207.828 5  -4776102.898 2
  25995887.162    27209962.718 4  19245786.008 2
  23299637.766    15967964.607 6  -2940051.200 6
  21663371.010   -16886805.317 7 -12835482.453
  24082571.133   -11483738.424 6  -9236049.022 5
 94  5 15 19 28 30.0050000  0  8  9  2 15  4 19 27  7 26
  26027433.872    -2732491.282 5  -2314959.918 2
  22545210.765   -13663689.203 8 -11375336.874 9
  25243883.593    -2649402.415 5  -2262578.979 2
  25732168.940    -6505067.541 5  -4849240.180 2
  26016796.337    27319879.218 4  19331435.085 2
  23317477.846    16061715.157 6  -2866998.867 6
  21664530.967   -16880699.090 7 -12830724.357 1
  24087002.995   -11460434.307 6  -9217889.999 5
 94  5 15 19 29  0.0050000  0  8  9  2 15  4 19 27  7 26
  26010074.870    -2823680.535 5  -2386016.457 2
  22549748.724   -13639836.939 8 -11356750.700 9
  25252174.114    -2605851.792 5  -2228643.442 2
  25714294.145    -6598971.399 5  -4922411.836 2
  26037742.596    27429933.854 4  19417191.786 2
  23335376.715    16155790.307 6  -2793693.602 6
  21665781.881   -16874139.359 7 -12825612.873
  24091529.861   -11436639.789 6  -9199348.852 5
 94  5 15 19 29 30.0050000  0  8  9  2 15  4 19 27  7 26
  25992723.932    -2914850.458 5  -2457057.911 2
  22554305.389   -13615892.768 8 -11338092.918 9
  25260569.801    -2561780.416 5  -2194302.156 2
  25696424.266    -6692905.838 5  -4995607.352 2
  26058706.483    27540095.381 4  19503031.796 2
  23353336.951    16250169.083 6  -2720151.760 6
  21667112.120   -16867143.304 7 -12820161.399
  24096153.530   -11412352.651 6  -9180423.818 5
 94  5 15 19 30  0.0050000  0  8  9  2 15  4 19 27  7 26
  25975375.542    -3006001.387 5  -2528084.548 2
  22558878.244   -13591839.759 8 -11319350.336 9
  25269051.979    -2517192.240 5  -2159558.133 2
  25678544.314    -6786858.991 5  -5068817.425 2
  26079682.691    27650334.927 5  19588932.574 2
  23371356.876    16344856.203 6  -2646369.618 6
  21668526.841   -16859713.824 7 -12814372.201 1
  24100869.026   -11387565.537 6  -9161109.225 5
 94  5 15 19 30 30.0050000  0  8  9  2 15  4 19 27  7 26
  25958044.600    -3097139.666 5  -2599101.398 2
  22563485.154   -13567649.964 8 -11300501.154 9
  25277637.766    -2472085.434 5  -2124409.989 2
  25660669.428    -6880821.572 5  -5142034.882 2
  26100683.513    27760651.773 4  19674893.635 2
  23389435.741    16439868.536 6  -2572334.083 6
  21670022.296   -16851858.817 7 -12808251.413 1
  24105686.870   -11362280.296 6  -9141406.450 5
 94  5 15 19 31  0.0050000  0  8  9  2 15  4 19 27  7 26
  25940705.503    -3188250.402 5  -2670096.729 2
  22568117.038   -13543306.836 8 -11281532.505 9
  25286310.132    -2426453.939 5  -2088853.049 2
  25642787.498    -6974792.578 5  -5215258.902 2
  26121690.480    27871048.242 4  19760916.636 2
  23407580.829    16535208.326 6  -2498043.381 6
  21671600.313   -16843559.867 7 -12801784.716 1
  24110583.590   -11336508.548 6  -9121324.597 5
 94  5 15 19 31 30.0050000  0  8  9  2 15  4 19 27  7 26
  25923372.852    -3279316.610 5  -2741057.356 2
  22572784.057   -13518788.271 8 -11262427.143 9
  25295097.319    -2380292.615 5  -2052883.203 2
  25624896.453    -7068786.270 5  -5288500.579 2
  26142709.919    27981526.300 4  19847003.432 2
  23425786.116    16630883.068 6  -2423491.676 6
  21673270.097   -16834791.205 7 -12794951.994 1
  24115577.023   -11310258.179 6  -9100869.792 5
 94  5 15 19 32  0.0050000  0  8  9  2 15  4 19 27  7 26
  25906047.457    -3370341.927 5  -2811986.159 2
  22577485.072   -13494068.022 8 -11243164.631 9
  25303987.334    -2333598.342 5  -2016498.052 2
  25607002.891    -7162809.643 5  -5361765.386 2
  26163745.696    28092105.265 4  19933168.615 2
  23444059.425    16726905.603 6  -2348668.979 6
  21675028.470   -16825541.999 7 -12787744.818 2
  24120672.176   -11283519.255 6  -9080034.281 5
 94  5 15 19 32 30.0050000  0  8  9  2 15  4 19 27  7 26
  25888736.271    -3461320.006 5  -2882878.155 2
  22582224.042   -13469155.566 8 -11223752.340 9
  25312971.455    -2286372.166 5  -1979698.487 2
  25589102.733    -7256868.553 5  -5435057.874 2
  26184818.317    28202805.786 4  20019428.643 2
  23462392.963    16823266.946 6  -2273582.266 6
  21676876.571   -16815822.702 7 -12780171.340 2
  24125850.881   -11256297.431 6  -9058822.495 5
 94  5 15 19 33  0.0050000  0  8  9  2 15  4 19 27  7 26
  25871433.120    -3552228.567 4  -2953715.973 2
  22587001.504   -13444061.967 8 -11204198.894 9
  25322055.166    -2238611.373 5  -1942482.307 2
  25571203.324    -7350960.281 5  -5508376.030 2
  26205915.642    28313648.201 4  20105799.165 2
  23480795.843    16919975.185 6  -2198225.265 6
  21678818.356   -16805629.424 7 -12772228.533 2
  24131126.419   -11228591.864 6  -9037233.782 5
 94  5 15 19 33 30.0050000  0  8  9  2 15  4 19 27  7 26
  25854148.945    -3643073.758 5  -3024504.380 2
  22591816.111   -13418771.031 8 -11184491.688 9
  25331254.807    -2190303.665 5  -1904839.937 2
  25553298.909    -7445065.916 5  -5581704.950 2
  26227038.869    28424665.697 4  20192306.247 2
  23499270.254    17017049.750 6  -2122582.806 6
  21680848.101   -16794974.825 7 -12763926.245 2
  24136491.385   -11200386.062 6  -9015255.238 5
 94  5 15 19 34  0.0050000  0  7  9  2 15  4 27  7 26
  25836874.724    -3733869.794 5  -3095254.545 2
  22596663.905   -13393284.571 8 -11164632.123 9
  25340546.874    -2141446.931 5  -1866769.803 2
  25535390.417    -7539157.760 5  -5655023.261 2
  23517816.345    17114500.676 6  -2046647.076 6
  21682956.362   -16783880.874 7 -12755281.601 2
  24141951.595   -11171680.103 6  -8992886.974 5
 94  5 15 19 34 30.0050000  0  7  9  2 15  4 27  7 26
  25819619.419    -3824600.229 5  -3165953.486 2
  22601548.424   -13367619.692 8 -11144633.526 9
  25349953.193    -2092039.302 5  -1828270.373 2
  25517494.276    -7633221.849 4  -5728319.783 2
  23536430.878    17212331.652 6  -1970415.208 6
  21685149.733   -16772353.262 7 -12746299.052 2
  24147507.199   -11142482.276 6  -8970135.471 5
 94  5 15 19 35  0.0050000  0  7  9  2 15  4 27  7 26
  25802356.980    -3915267.018 5  -3236602.924 2
  22606469.847   -13341780.291 8 -11124498.938 9
  25359461.110    -2042089.939 5  -1789348.776 2
  25499597.296    -7727266.451 4  -5801601.200 2
  23555120.030    17310533.065 6  -1893894.674 6
  21687427.346   -16760401.794 7 -12736986.230 2
  24153156.008   -11112794.633 6  -8947002.267 5
 94  5 15 19 35 30.0050000  0  7  9  2 15  4 27  7 26
  25785118.194    -4005880.162 5  -3307210.526 2
  22611415.733   -13315769.432 8 -11104230.753 9
  25369068.080    -1991606.217 5  -1750010.823 3
  25481698.337    -7821292.655 5  -5874868.209 2
  23573874.626    17409086.580 6  -1817099.804 6
  21689782.216   -16748030.178 7 -12727346.005 2
  24158902.820   -11082613.489 6  -8923484.514 5
 94  5 15 19 36  0.0050000  0  7  9  2 15  4 27  7 26
  25767880.847    -4096410.644 5  -3377753.693 2
  22616398.223   -13289591.921 8 -11083832.709 9
  25378776.589    -1940582.303 5  -1710251.983 2
  25463815.238    -7915292.237 5  -5948114.517 2
  23592694.158    17507996.811 6  -1740026.961 5
  21692217.790   -16735220.183 7 -12717364.188 2
  24164737.470   -11051934.417 6  -8899578.778 5
 94  5 15 19 36 30.0050000  0  7  9  2 15  4 27  7 26
  25750674.739    -4186846.627 5  -3448223.283 2
  22621412.642   -13263244.929 8 -11063302.598 9
  25388585.348    -1889013.654 5  -1670068.640 3
  25445924.973    -8009275.921 5  -6021348.453 2
  23611584.140    17607259.020 6  -1662679.877 5
  21694742.462   -16721956.465 7 -12707028.822 2
  24170674.170   -11020752.246 6  -8875281.014 5
 94  5 15 19 37  0.0050000  0  7  9  2 15  4 27  7 26
  25733480.622    -4277216.720 5  -3518641.507 2
  22626458.389   -13236721.570 8 -11042635.060 9
  25398497.896    -1836911.089 5  -1629469.245 3
  25428040.854    -8103255.685 5  -6094579.358 2
  23630537.170    17706850.821 6  -1585075.942 5
  21697351.166   -16708236.061 7 -12696337.593 2
  24176699.639   -10989080.929 6  -8850602.088 5
 94  5 15 19 37 30.0050000  0  7  9  2 15  4 27  7 26
  25716289.173    -4367537.550 5  -3589021.334 2
  22631540.980   -13210022.443 8 -11021830.558 9
  25408518.009    -1784274.955 5  -1588454.071 3
  25410161.861    -8197214.000 5  -6167793.539 2
  23649547.489    17806764.749 6  -1507220.995 5
  21700052.386   -16694058.626 7 -12685290.233 2
  24182815.315   -10956933.390 6  -8825552.093 5
 94  5 15 19 38  0.0050000  0  7  9  2 15  4 27  7 26
  25699101.442    -4457810.282 5  -3659363.652 2
  22636655.350   -13183138.126 8 -11000881.754 9
  25418639.002    -1731107.644 5  -1547025.077 3
  25392286.616    -8291148.533 5  -6240989.129 3
  23668622.504    17907002.159 6  -1429114.016 5
  21702837.308   -16679429.456 7 -12673890.901 2
  24189027.135   -10924311.614 6  -8800132.564 5
 94  5 15 19 38 30.0050000  0  7  9  2 15  4 27  7 26
  25681950.286    -4548026.067 5  -3729661.653 2
  22641810.851   -13156052.234 8 -10979775.870 9
  25428853.411    -1677400.627 5  -1505175.472 3
  25374421.144    -8385038.864 5  -6314150.326 3
  23687762.213    18007564.718 6  -1350753.629 5
  21705704.853   -16664337.950 7 -12662131.278 2
  24195326.074   -10891197.328 6  -8774329.247 5
 94  5 15 19 39  0.0050000  0  7  9  2 15  4 27  7 26
  25664801.198    -4638158.972 5  -3799895.068 3
  22647003.196   -13128753.499 8 -10958504.156 9
  25439173.766    -1623145.675 5  -1462898.877 3
  25356566.284    -8478860.385 5  -6387257.910 3
  23706959.424    18108462.822 6  -1272131.784 5
  21708668.811   -16648772.342 7 -12650002.236 2
  24201725.084   -10857581.822 6  -8748135.386 5
 94  5 15 19 39 30.0050000  0  7  9  2 15  4 27  7 26
  25647662.753    -4728182.389 5  -3870043.129 3
  22652240.001   -13101249.760 8 -10937072.678 9
  25449615.148    -1568339.912 5  -1420193.143 2
  25338728.693    -8572606.845 5  -6460307.016 3
  23726227.265    18209716.028 6  -1193233.263 5
  21711718.990   -16632736.318 7 -12637506.644 1
  24208213.792   -10823456.722 6  -8721544.424 5
 94  5 15 19 40  0.0050000  0  7  9  2 15  4 27  7 26
  25630552.877    -4818075.093 5  -3940089.394 3
  22657510.022   -13073539.634 8 -10915480.397 9
  25460142.930    -1512986.155 5  -1377060.369 2
  25320898.567    -8666291.331 5  -6533307.833 3
  23745561.780    18311323.109 6  -1114058.988 5
  21714861.234   -16616223.730 7 -12624639.700 2
  24214810.995   -10788822.925 6  -8694557.083 5
 94  5 15 19 40 30.0050000  0  7  9  2 15  4 27  7 26
  25613478.438    -4907840.344 5  -4010036.303 3
  22662820.666   -13045638.720 8 -10893739.448 9
  25470780.376    -1457093.998 5  -1333508.040 2
  25303077.374    -8759933.646 5  -6606275.772 3
  23764961.799    18413269.832 6  -1034620.054 5
  21718096.715   -16599233.625 7 -12611400.657 2
  24221485.814   -10753706.232 6  -8667193.460 5
 94  5 15 19 41  0.0050000  0  7  9  2 15  4 27  7 26
  25596411.523    -4997475.386 5  -4079881.744 3
  22668165.336   -13017545.568 8 -10871848.687 9
  25481524.158    -1400666.798 5  -1289538.894 2
  25285267.663    -8853546.072 5  -6679220.416 3
  23784429.032    18515549.771 6   -954921.465 5
  21721418.475   -16581775.814 7 -12597797.152 2
  24228258.845   -10718120.494 6  -8639464.340 5
 94  5 15 19 41 30.0050000  0  7  9  2 15  4 27  7 26
  25579382.022    -5086983.289 5  -4149628.126 3
  22673554.375   -12989248.602 8 -10849799.128 9
  25492354.850    -1343706.430 5  -1245154.180 2
  25267458.462    -8947135.862 5  -6752147.390 3
  23803951.008    18618154.609 6   -874969.709 5
  21724825.676   -16563858.568 7 -12583835.678 1
  24235119.926   -10682064.248 6  -8611368.573 5
 94  5 15 19 42  0.0050000  0  7  9  2 15  4 27  7 26
  25562370.449    -5176367.799 5  -4219278.372 3
  22678978.820   -12960734.962 8 -10827580.716 9
  25503296.076    -1286210.292 5  -1200352.005 2
  25249652.229    -9040699.496 5  -6825054.045 3
  23823540.496    18721083.394 6   -794765.554 5
  21728326.083   -16545476.208 7 -12569511.782 1
  24242071.723   -10645542.898 6  -8582910.434 5
 94  5 15 19 42 30.0050000  0  7  9  2 15  4 27  7 26
  25545387.116    -5265633.902 5  -4288836.335 3
  22684446.105   -12932004.957 8 -10805193.716 9
  25514341.899    -1228178.074 5  -1155132.156 2
  25231860.866    -9134221.188 5  -6897928.019 3
  23843184.577    18824333.378 6   -714311.080 5
  21731909.532   -16526633.417 7 -12554829.079 1
  24249115.976   -10608549.242 6  -8554084.217 5
 94  5 15 19 43  0.0050000  0  7  9  2 15  4 27  7 26
  25528420.512    -5354791.702 5  -4358309.891 3
  22689951.643   -12903067.856 8 -10782645.330 9
  25525476.071    -1169618.615 5  -1109501.454 2
  25214070.162    -9227679.379 5  -6970752.463 3
  23862895.331    18927902.551 6   -633607.910 5
  21735579.981   -16507346.347 7 -12539800.214
  24256242.823   -10571070.342 6  -8524879.918 5
 94  5 15 19 43 30.0050000  0  7  9  2 15  4 27  7 26
  25511472.555    -5443848.929 5  -4427705.131 3
  22695494.236   -12873939.356 8 -10759947.822 9
  25536724.793    -1110539.262 4  -1063465.620 2
  25196303.802    -9321054.532 5  -7043512.230 3
  23882665.325    19031791.140 6   -552655.843 5
  21739334.912   -16487623.167 7 -12524431.492 9
  24263469.949   -10533111.824 6  -8495301.903 5
 94  5 15 19 44  0.0050000  0  7  9  2 15  4 27  7 26
  25494542.166    -5532808.401 5  -4497024.157 3
  22701072.145   -12844626.107 8 -10737106.342 9
  25548065.822    -1050938.272 5  -1017023.379 2
  25178559.416    -9414318.681 5  -7116185.465 3
  23902494.258    19135997.495 6   -471456.144 5
  21743171.086   -16467470.269 7 -12508727.952 9
  24270784.346   -10494671.396 6  -8465348.371 5
 94  5 15 19 44 30.0050000  0  7  9  2 15  4 27  7 26
  25477640.556    -5621656.724 5  -4566256.604 3
  22706684.799   -12815129.876 8 -10714122.281 9
  25559504.433     -990813.154 5   -970172.661 2
  25160830.859    -9507453.423 5  -7188757.904 2
  23922386.896    19240522.450 6   -390008.217 5
  21747084.846   -16446890.280 7 -12492691.599 9
  24278195.515   -10455733.078 6  -8435006.864 5
 94  5 15 19 45  0.0050000  0  8  9  2 15  4 12 27  7 26
  25460749.950    -5710386.729 5  -4635396.829 3
  22712334.658   -12785447.279 8 -10690993.011 9
  25571060.533     -930158.787 5   -922909.540 2
  25143132.312    -9600455.133 5  -7261226.751 2
  26127520.244    -1622514.75514  -1432070.461 2
  23942339.613    19345382.979 6   -308298.784 5
  21751084.168   -16425886.855 7 -12476325.289 9
  24285698.781   -10416302.239 6  -8404281.567 5
 94  5 15 19 45 30.0050000  0  8  9  2 15  4 12 27  7 26
  25443889.172    -5798999.650 5  -4704445.795 3
  22718016.954   -12755572.989 8 -10667714.347 9
  25582695.778     -868974.895 5   -875233.881 2
  25125462.065    -9693340.223 5  -7333604.637 2
  26112005.085    -1704063.239 4  -1495614.617 2
  23962358.584    19450570.916 6   -226334.252 5
  21755164.103   -16404447.253 7 -12459619.121 9
  24293292.374   -10376392.156 6  -8373182.831 5
 94  5 15 19 46  0.0050000  0  8  9  2 15  4 12 27  7 26
  25427052.408    -5887506.552 6  -4773412.169 4
  22723739.243   -12725510.238 8 -10644288.853 9
  25594433.972     -807269.718 5   -827151.917 2
  25107805.158    -9786140.588 5  -7405916.491 2
  26096479.793    -1785638.871 5  -1559180.075 2
  23982437.814    19556081.017 6   -144118.656 5
  21759326.002   -16382561.459 7 -12442565.254 9
  24300979.172   -10336005.332 6  -8341712.602 5
 94  5 15 19 46 30.0050000  0  8  9  2 15  4 12 27  7 26
  25410233.871    -5975904.302 5  -4842293.508 3
  22729493.879   -12695269.522 8 -10620724.673 9
  25606272.327     -745050.042 5   -778669.095 2
  25090156.856    -9878880.505 6  -7478181.277 2
  26080950.574    -1867245.994 5  -1622770.043 2
  24002574.693    19661920.098 6    -61646.725 5
  21763576.609   -16360216.985 7 -12425153.998 9
  24308755.339   -10295145.441 6  -8309873.767 5
 94  5 15 19 47  0.0050000  0  8  9  2 15  4 12 27  7 26
  25393424.778    -6064193.842 6  -4911090.522 3
  22735282.841   -12664844.319 8 -10597016.733 9
  25618227.150     -682318.517 5   -729787.422 2
  25072518.836    -9971565.802 6  -7550403.507 2
  26065417.817    -1948884.389 4  -1686384.244 2
  24022776.178    19768077.858 6     21073.521 5
  21767919.223   -16337404.098 7 -12407377.718 9
  24316612.300   -10253826.458 6  -8277677.192 5
 94  5 15 19 47 30.0050000  0  8  9  2 15  4 12 27  7 26
  25376650.490    -6152367.725 6  -4979797.409 3
  22741111.826   -12634224.104 8 -10573156.842 9
  25630258.631     -619076.470 5   -680507.975 2
  25054891.609   -10064188.966 6  -7622577.334 2
  26049875.197    -2030552.289 5  -1750021.549 2
  24043035.253    19874550.860 6    104039.437 5
  21772350.995   -16314122.782 7 -12389236.448 9
  24324569.451   -10212044.315 6  -8245119.697 5
 94  5 15 19 48  0.0050000  0  8  9  2 15  4 12 27  7 26
  25359890.623    -6240415.644 5  -5048406.142 3
  22746975.497   -12603408.401 8 -10549144.613 9
  25642383.138     -555330.618 5   -630835.889 2
  25037280.481   -10156741.966 6  -7694696.468 2
  26034334.615    -2112253.620 5  -1813684.934 2
  24063359.263    19981347.051 6    187257.172 4
  21776862.572   -16290399.398 7 -12370750.697 9
  24332601.461   -10169801.570 6  -8212203.315 5
 94  5 15 19 48 30.0050000  0  8  9  2 15  4 12 27  7 26
  25343160.075    -6328337.673 6  -5116916.821 3
  22752874.183   -12572401.386 8 -10524983.325 9
  25654602.378     -491091.772 5   -580779.740 2
  25019682.424   -10249207.890 5  -7766747.747 3
  26018775.656    -2193996.486 5  -1877380.628 2
  24083735.077    20088444.201 6    270709.432 4
  21781455.782   -16266262.710 7 -12351942.883 9
  24340726.286   -10127121.649 6  -8178946.271 5
 94  5 15 19 49  0.0050000  0  8  9  2 15  4 12 27  7 26
  25326454.021    -6416145.895 5  -5185338.779 3
  22758812.652   -12541198.978 8 -10500669.787 9
  25666917.433     -426362.843 5   -530341.649 2
  25002104.513   -10341571.773 5  -7838719.505 3
  26003208.873    -2275779.799 5  -1941107.761 2
  24104176.096    20195831.679 6    354387.911 4
  21786124.300   -16241728.999 8 -12332825.716 9
  24348928.937   -10084013.138 6  -8145355.254 5
 94  5 15 19 49 30.0050000  0  8  9  2 15  4 12 27  7 26
  25309761.067    -6503844.160 6  -5253675.060 3
  22764787.396   -12509801.589 8 -10476204.307 9
  25679339.183     -361137.335 5   -479516.570 2
  24984548.877   -10433824.044 5  -7910604.319 3
  25987645.088    -2357594.639 5  -2004859.621 2
  24124666.431    20303514.751 6    438296.726 4
  21790868.935   -16216808.945 8 -12313407.513 9
  24357216.100   -10040465.281 6  -8111421.905 5
 94  5 15 19 50  0.0050000  0  8  9  2 15  4 12 27  7 26
  25293095.694    -6591426.004 6  -5321920.640 3
  22770799.733   -12478209.647 8 -10451587.235 9
  25691839.390     -295409.192 5   -428299.876 2
  24967017.493   -10525961.691 5  -7982399.800 3
  25972070.899    -2439431.905 5  -2068628.923 2
  24145208.000    20411483.446 6    522428.086 4
  21795687.410   -16191483.441 8 -12293673.358 9
  24365585.766    -9996474.592 6  -8077143.488 5
 94  5 15 19 50 30.0050000  0  8  9  2 15  4 12 27  7 26
  25276449.298    -6678893.019 5  -5390076.722 3
  22776851.194   -12446419.616 8 -10426815.809 9
  25704449.410     -229177.394 5   -376690.758 2
  24949509.854   -10617977.432 5  -8054100.320 3
  25956487.658    -2521287.292 5  -2132412.221 2
  24165812.316    20519722.321 6    606769.980 4
  21800585.928   -16165742.264 8 -12273615.322 9
  24374042.701    -9952043.005 6  -8042521.499 5
 94  5 15 19 51  0.0050000  0  8  9  2 15  4 12 27  7 26
  25259832.492    -6766236.533 6  -5458136.557 3
  22782934.253   -12414440.042 8 -10401896.655 9
  25717143.522     -162450.896 5   -324696.095 2
  24932016.814   -10709885.383 6  -8125716.791 3
  25940908.912    -2603166.442 5  -2196214.118 2
  24186459.532    20628230.089 6    691321.429 4
  21805561.194   -16139595.754 8 -12253241.408 9
  24382581.480    -9907167.298 6  -8007553.477 5
 94  5 15 19 51 30.0050000  0  8  9  2 15  4 12 27  7 26
  25243240.658    -6853437.809 6  -5526085.584 3
  22789055.265   -12382278.463 8 -10376835.715 9
  25729927.572      -95237.643 4   -272322.139 2
  24914547.578   -10801701.360 6  -8197261.611 3
  25925322.703    -2685074.476 5  -2260038.573 2
  24207158.373    20736999.016 6    776076.372 4
  21810617.164   -16113042.235 8 -12232550.374 9
  24391200.363    -9861851.248 6  -7972242.291 5
 94  5 15 19 52  0.0050000  0  8  9  2 15  4 12 27  7 26
  25226675.206    -6940479.566 6  -5593910.322 3
  22795211.623   -12349934.362 8 -10351632.541 8
  25742821.316      -27546.274 5   -219575.753 2
  24897086.106   -10893427.503 6  -8268736.472 3
  25909727.979    -2767016.647 5  -2323889.527 2
  24227902.782    20846027.030 6    861033.172 4
  21815745.054   -16086083.639 8 -12211543.691 9
  24399911.313    -9816106.721 6  -7936597.225 5
 94  5 15 19 52 30.0050000  0  8  9  2 15  4 12 27  7 26
  25210143.541    -7027355.270 6  -5661605.646 3
  22801396.702   -12317411.501 8 -10326290.070 8
  25755781.913       40622.892 5   -166456.902 2
  24879658.091   -10985043.148 6  -8340125.230 3
  25894139.550    -2848990.178 5  -2387764.976 2
  24248703.942    20955334.182 6    946207.489 4
  21820948.342   -16058730.188 8 -12190229.325 9
  24408693.643    -9769932.704 6  -7900617.538 5
 94  5 15 19 53  0.0050000  0  8  9  2 15  4 12 27  7 26
  25193646.172    -7114057.114 6  -5729165.502 3
  22807620.483   -12284711.885 8 -10300809.865 8
  25768851.965      109273.549 5   -112962.880 2
  24862239.430   -11076556.304 6  -8411434.097 3
  25878528.098    -2930988.256 5  -2451659.644 2
  24269560.953    21064938.964 5   1031613.706 4
  21826233.683   -16030969.264 8 -12168597.436 9
  24417562.733    -9723326.284 6  -7864300.890 5
 94  5 15 19 53 30.0050000  0  8  9  2 15  4 12 27  7 26
  25177169.578    -7200606.817 6  -5796606.802 3
  22813880.449   -12251821.349 8 -10275180.900 8
  25782006.468      178401.991 5    -59096.687 2
  24844849.039   -11167968.072 6  -8482663.964 4
  25862917.635    -3013011.070 5  -2515573.458 2
  24290476.933    21174833.080 6   1117245.397 4
  21831595.801   -16002796.880 8 -12146644.942 9
  24426515.345    -9676294.826 6  -7827653.028 5
 94  5 15 19 54  0.0050000  0  8  9  2 15  4 12 27  7 26
  25160730.399    -7287019.816 6  -5863941.574 3
  22820174.202   -12218733.941 8 -10249398.525 8
  25795258.434      248003.456 5     -4861.769 2
  24827477.865   -11259263.298 6  -8553803.024 3
  25847298.298    -3095059.641 4  -2579507.346 2
  24311438.991    21285010.534 6   1203097.858 4
  21837031.578   -15974217.122 8 -12124375.019 9
  24435544.794    -9628854.771 6  -7790686.798 5
 94  5 15 19 54 30.0050000  0  8  9  2 15  4 12 27  7 26
  25144308.068    -7373313.871 5  -5931183.680 3
  22826507.588   -12185453.866 8 -10223466.006 8
  25808585.768      318070.894 5     49736.247 2
  24810119.522   -11350448.383 5  -8624856.285 3
  25831682.109    -3177138.242 5  -2643464.729 2
  24332462.866    21395464.135 6   1289165.522 4
  21842547.819   -15945225.519 8 -12101784.150 9
  24444642.926    -9581006.098 6  -7753402.150 5
 94  5 15 19 55  0.0050000  0  8  9  2 15  4 12 27  7 26
  25127908.401    -7459491.803 6  -5998335.266 3
  22832880.816   -12151974.219 8 -10197377.998 8
  25821996.983      388599.378 4    104693.343 2
  24792791.128   -11441541.921 5  -8695838.183 4
  25816070.716    -3259248.212 5  -2707446.481 2
  24353529.732    21506170.176 6   1375429.879 4
  21848143.685   -15915825.638 7 -12078875.183 9
  24453833.573    -9532751.078 6  -7715800.898 5
 94  5 15 19 55 30.0050000  0  8  9  2 15  4 12 27  7 26
  25111534.546    -7545562.404 6  -6065403.227 3
  22839286.691   -12118298.719 8 -10171137.378 8
  25835519.512      459584.391 4    160006.337 2
  24775476.015   -11532523.867 5  -8766733.102 4
  25800432.942    -3341391.075 5  -2771453.808 2
  24374635.541    21617107.306 6   1461874.287 4
  21853814.019   -15886024.130 8 -12055653.229 9
  24463087.747    -9484098.820 6  -7677890.081 4
 94  5 15 19 56  0.0050000  0  8  9  2 15  4 12 27  7 26
  25095179.009    -7631516.747 6  -6132380.619 3
  22845729.710   -12084455.473 8 -10144766.029 8
  25849099.631      531023.041 4    215672.790 2
  24758178.110   -11623390.589 5  -8837538.258 4
  25784791.121    -3423565.692 5  -2835485.987 2
  24395793.274    21728284.195 6   1548505.542 4
  21859562.240   -15855819.136 8 -12032116.885 9
  24472416.059    -9435056.752 6  -7639675.543 4
 94  5 15 19 56 30.0050000  0  8  9  2 15  4 12 27  7 26
  25078840.560    -7717355.345 6  -6199267.834 3
  22852200.970   -12050452.607 8 -10118270.314 8
  25862783.418      602909.493 4    271688.171 2
  24740911.264   -11714150.075 6  -8908259.875 4
  25769146.421    -3505774.464 5  -2899544.738 2
  24416995.616    21839703.330 6   1635325.546 4
  21865384.239   -15825225.172 8 -12008277.448 9
  24481828.703    -9385618.243 6  -7601152.051 4
 94  5 15 19 57  0.0050000  0  8  9  2 15  4 12 27  7 26
  25062525.944    -7803073.355 6  -6266061.038 4
  22858699.721   -12016286.235 8 -10091647.200 8
  25876534.298      675245.522 3    328053.835 2
  24723661.206   -11804790.510 6  -8978888.694 4
  25753496.505    -3588012.560 5  -2963626.299 2
  24438243.706    21951360.447 6   1722330.999 4
  21871277.470   -15794258.933 8 -11984147.926 9
  24491312.337    -9335789.170 6  -7562324.270 4
 94  5 15 19 57 30.0050000  0  8  9  2 15  4 12 27  7 26
  25046245.055    -7888665.299 5  -6332756.073 3
  22865233.818   -11981953.742 8 -10064894.618 8
  25890406.415      748033.445 4    384771.608 2
  24706435.011   -11895300.338 6  -9049415.746 4
  25737843.052    -3670273.954 5  -3027726.035 2
  24459540.662    22063265.907 6   1809529.963 4
  21877241.541   -15762915.807 8 -11959724.733 9
  24500869.601    -9285572.716 6  -7523194.596 4
 94  5 15 19 58  0.0050000  0  8  9  2 15  4 12 27  7 26
  25029989.439    -7974112.796 6  -6399338.479 3
  22871800.952   -11947451.387 8 -10038009.689 8
  25904336.391      821264.892 4    441835.032 2
  24689237.656   -11985684.971 6  -9119845.239 4
  25722192.237    -3752563.507 5  -3091847.777 2
  24480875.303    22175421.390 6   1896923.730 4
  21883274.894   -15731206.584 8 -11935016.250 9
  24510493.418    -9234966.661 6  -7483761.359 4
 94  5 15 19 58 30.0050000  0  8  9  2 15  4 12 27  7 26
  25013747.313    -8059409.770 6  -6465803.628 4
  22878398.754   -11912764.880 8 -10010981.251 8
  25918357.235      894933.865 4    499239.406 2
  24672066.804   -12075933.581 6  -9190168.781 4
  25706518.997    -3834883.834 4  -3155993.450 2
  24502265.794    22287798.788 6   1984490.460 3
  21889378.519   -15699144.609 8 -11910032.904 9
  24520203.187    -9183974.428 6  -7444027.179 4
 94  5 15 19 59  0.0050000  0  8  9  2 15  4 12 27  7 26
  24997546.259    -8144543.112 6  -6532141.276 3
  22885033.011   -11877912.175 8  -9983823.326 8
  25932457.883      969033.890 4    556979.635 2
  24654919.394   -12166049.267 6  -9260388.758 4
  25690849.115    -3917237.768 4  -3220165.245 2
  24523685.396    22400377.947 6   2072214.396 3
  21895543.661   -15666735.347 8 -11884778.947 9
  24529977.020    -9132608.060 6  -7404001.511 4
 94  5 15 19 59 30.0050000  0  8  9  2 15  4 12 27  7 26
  24981377.642    -8229504.327 5  -6598344.795 3
  22891694.040   -11842895.264 8  -9956537.431 8
  25946638.216     1043560.574 5    615052.280 2
  24637793.870   -12256034.080 6  -9330506.724 4
  25675169.580    -3999625.979 5  -3284363.828 2
  24545146.339    22513155.578 5   2160092.951 3
  21901776.945   -15633974.398 8 -11859250.941 9
  24539825.472    -9080862.726 6  -7363680.492 4
 94  5 15 20  0  0.0050000  0  8  9  2 15  4 12 27  7 26
  24965245.750    -8314296.866 6  -6664416.874 4
  22898391.703   -11807716.411 8  -9929125.357 8
  25960905.069     1118512.053 5    673456.032 2
  24620698.415   -12345880.075 6  -9400516.500 4
  25659492.743    -4082046.762 5  -3348587.812 2
  24566652.251    22626133.823 5   2248127.860 3
  21908075.825   -15600874.160 8 -11833458.564 9
  24549742.217    -9028736.677 6  -7323062.844 4
 94  5 15 20  0 30.0050000  0  8  9  2 15  4 12 27  7 26
  24949144.707    -8398948.008 6  -6730378.761 3
  22905112.601   -11772388.828 8  -9901597.402 8
  25975245.822     1193887.540 4    732190.133 2
  24603623.796   -12435600.137 6  -9470428.159 4
  25643800.107    -4164497.178 5  -3412834.836 2
  24588186.523    22739318.459 6   2336323.564 3
  21914435.892   -15567452.132 8 -11807415.436 9
  24559732.711    -8976235.675 6  -7282153.029 4
 94  5 15 20  1  0.0050000  0  8  9  2 15  4 12 27  7 26
  24933051.038    -8483469.428 6  -6796239.597 3
  22911861.828   -11736911.530 8  -9873952.762 8
  25989664.100     1269688.099 4    791255.404 2
  24586569.682   -12525206.688 6  -9540251.398 4
  25628104.862    -4246972.431 5  -3477101.177 2
  24609765.284    22852732.764 6   2424698.265 3
  21920858.106   -15533707.390 8 -11781120.840 9
  24569797.613    -8923353.091 6  -7240945.881 4
 94  5 15 20  1 30.0050000  0  8  9  2 15  4 12 27  7 26
  24916996.402    -8567866.328 6  -6862003.370 4
  22918646.761   -11701254.305 8  -9846167.937 8
  26004175.734     1345921.360 5    850657.915 2
  24569548.276   -12614679.123 6  -9609970.121 4
  25612405.241    -4329461.168 5  -3541378.156 2
  24631399.567    22966400.236 5   2513270.184 3
  21927344.655   -15499615.410 8 -11754555.675 9
  24579933.986    -8870090.929 6  -7199442.949 4
 94  5 15 20  2  0.0050000  0  8  9  2 15  4 12 27  7 26
  24900957.326    -8652135.872 6  -6927667.932 4
  22925466.500   -11665415.114 8  -9818241.311 8
  26018770.170     1422587.572 5    910397.839 2
  24552548.694   -12704003.570 6  -9679573.495 4
  25596703.851    -4411959.406 5  -3605662.447 2
  24653076.001    23080332.683 5   2602048.605 3
  21933900.217   -15465174.706 8 -11727718.773 9
  24590133.105    -8816464.955 6  -7157656.480 4
 94  5 15 20  2 30.0050000  0  8  9  2 15  4 12 27  7 26
  24884946.550    -8736254.795 6  -6993215.133 4
  22932323.143   -11629388.728 8  -9790168.808 8
  26033427.323     1499682.320 4    970471.561 2
  24535575.255   -12793181.238 6  -9749062.522 4
  25581003.989    -4494467.997 5  -3669954.784 2
  24674808.376    23194512.949 5   2691020.114 3
  21940523.741   -15430365.853 8 -11700595.002 9
  24600413.438    -8762479.731 6  -7115590.143 4
 94  5 15 20  3  0.0050000  0  8  9  2 15  4 12 27  7 26
  24868974.567    -8820194.411 6  -7058622.596 4
  22939219.119   -11593161.485 7  -9761939.803 8
  26048186.526     1577203.332 5   1030877.518 2
  24518636.921   -12882183.721 6  -9818415.067 4
  25565309.704    -4576984.947 5  -3734253.702 2
  24696579.214    23308918.876 5   2780167.458 3
  21947223.024   -15395160.945 8 -11673162.614 9
  24610749.922    -8708130.663 6  -7073240.268 4
 94  5 15 20  3 30.0050000  0  8  9  2 15  4 12 27  7 26
  24853042.007    -8903931.994 6  -7123872.632 4
  22946149.571   -11556734.020 8  -9733554.801 8
  26063023.045     1655147.539 5   1091613.261 2
  24501744.096   -12970994.159 6  -9887617.950 4
  25549595.423    -4659510.033 5  -3798558.925 3
  24718388.066    23423531.122 5   2869475.602 3
  21953997.554   -15359555.170 8 -11645417.870 9
  24621160.185    -8653425.674 6  -7030613.062 4
 94  5 15 20  4  0.0050000  0  8  9  2 15  4 12 27  7 26
  24837151.957    -8987456.391 6  -7188956.546 4
  22953120.495   -11520112.836 7  -9705018.817 8
  26077931.664     1733510.637 5   1152675.310 2
  24484876.213   -13059618.871 6  -9956676.094 5
  25533892.954    -4742043.810 5  -3862870.911 3
  24740232.533    23538327.965 5   2958927.543 3
  21960848.921   -15323559.692 8 -11617369.455 9
  24631639.131    -8598347.992 6  -6987695.435 4
 94  5 15 20  4 30.0050000  0  8  9  2 15  4 12 27  7 26
  24821290.388    -9070774.130 6  -7253879.462 4
  22960125.236   -11483295.504 7  -9676330.020 8
  26092928.721     1812288.388 5   1214060.540 2
  24468043.136   -13148069.245 6 -10025598.387 5
  25518182.930    -4824586.167 5  -3927189.588 3
  24762107.100    23653296.810 5   3048513.546 4
  21967773.077   -15287174.348 8 -11589017.244 9
  24642195.933    -8542897.273 6  -6944487.143 4
 94  5 15 20  5  0.0050000  0  8  9  2 15  4 12 27  7 26
  24805472.769    -9153899.445 6  -7318652.391 4
  22967169.669   -11446280.398 7  -9647487.115 8
  26107994.641     1891484.102 5   1275771.393 2
  24451248.823   -13236335.943 6 -10094377.575 5
  25502481.210    -4907130.198 5  -3991509.599 3
  24784026.396    23768464.423 5   3138254.421 3
  21974764.747   -15250419.900 8 -11560377.439 9
  24652815.931    -8487082.358 6  -6900995.048 4
 94  5 15 20  5 30.0050000  0  8  9  2 15  4 12 27  7 26
  24789692.323    -9236851.302 6  -7383290.186 4
  22974249.088   -11409067.271 7  -9618489.874 8
  26123139.257     1971094.769 5   1337805.620 2
  24434485.718   -13324438.755 6 -10163029.066 5
  25486773.164    -4989675.066 5  -4055830.182 3
  24805984.274    23883848.813 5   3228164.197 3
  21981825.279   -15213318.521 8 -11531467.284 9
  24663500.924    -8430927.395 6  -6857237.997 4
 94  5 15 20  6  0.0050000  0  8  9  2 15  4 12 27  7 26
  24773935.052    -9319644.732 6  -7447804.532 4
  22981368.799   -11371660.837 7  -9589342.022 8
  26138362.808     2051117.302 4   1400160.820 2
  24417747.375   -13412388.795 6 -10231561.489 5
  25471062.001    -5072219.537 5  -4120150.541 3
  24827980.257    23999460.858 5   3318251.379 3
  21988952.365   -15175878.086 8 -11502292.936 9
  24674248.543    -8374435.841 6  -6813218.639 4
 94  5 15 20  6 30.0050000  0  8  9  2 15  4 12 27  7 26
  24758210.308    -9402284.224 6  -7512198.916 4
  22988523.946   -11334069.112 7  -9560049.802 8
  26153669.551     2131552.564 4   1462837.593 2
  24401041.351   -13500173.933 6 -10299965.451 5
  25455348.049    -5154759.108 5  -4184467.078 3
  24850032.810    24115312.751 5   3408525.475 3
  21996137.041   -15138111.795 8 -11472864.651 9
  24685067.603    -8317610.395 6  -6768939.120 4
 94  5 15 20  7  0.0050000  0  7  9  2  4 12 27  7 26
  24742516.023    -9484767.576 6  -7576471.648 4
  22995707.663   -11296302.518 7  -9530621.318 8
  24384371.121   -13587795.194 6 -10368241.713 5
  25439649.927    -5237292.486 5  -4248778.746 3
  24872114.953    24231394.585 5   3498978.714 3
  22003385.993   -15100026.975 8 -11443188.203 9
  24695943.954    -8260443.637 6  -6724393.687 4
 94  5 15 20  7 30.0050000  0  7  9  2  4 12 27  7 26
  24726844.372    -9567082.378 6  -7640613.028 4
  23002925.286   -11258376.507 7  -9501068.591 8
  24367726.014   -13675255.811 6 -10436392.784 5
  25423949.226    -5319821.647 5  -4313087.119 3
  24894251.059    24347678.845 5   3589589.695 3
  22010694.004   -15061607.182 8 -11413250.702 9
  24706887.458    -8202915.331 6  -6679566.476 4
 94  5 15 20  8  0.0050000  0  7  9  2  4 12 27  7 26
  24711220.838    -9649215.201 6  -7704612.610 4
  23010172.829   -11220298.785 7  -9471397.672 8
  24351111.846   -13762535.866 6 -10504403.147 5
  25408239.322    -5402345.781 5  -4377391.609 3
  24916413.336    24464148.589 5   3680345.232 3
  22018074.534   -15022842.363 8 -11383044.359 9
  24717912.505    -8145002.903 6  -6634439.986 4
 94  5 15 20  8 30.0050000  0  7  9  2  4 12 27  7 26
  24695627.313    -9731154.909 6  -7768461.733 4
  23017445.314   -11182074.045 7  -9441612.189 8
  24334538.689   -13849625.707 6 -10572265.300 5
  25392540.150    -5484864.851 5  -4441692.145 3
  24938603.194    24580792.943 5   3771236.758 3
  22025515.923   -14983732.556 8 -11352569.203 9
  24729005.246    -8086711.448 6  -6589018.114 4
 94  5 15 20  9  0.0050000  0  7  9  2  4 12 27  7 26
  24680073.271    -9812894.202 6  -7832154.664 4
  23024749.128   -11143685.293 7  -9411698.887 8
  24318004.356   -13936521.072 6 -10639975.940 5
  25376837.531    -5567377.477 5  -4505987.639 3
  24960832.595    24697609.405 5   3862262.459 3
  22033027.792   -14944263.179 8 -11321813.852 9
  24740167.628    -8028064.729 6  -6543319.415 4
 94  5 15 20  9 30.0050000  0  7  9  2  4 12 27  7 26
  24664558.531    -9894418.045 6  -7895679.702 4
  23032092.334   -11105117.105 7  -9381645.790 8
  24301511.154   -14023212.293 6 -10707527.481 5
  25361137.070    -5649885.267 5  -4570279.418 3
  24983102.948    24814603.989 5   3953426.938 3
  22040603.788   -14904443.128 8 -11290785.254 9
  24751386.492    -7969082.866 5  -6497359.576 4
 94  5 15 20 10  0.0050000  0  7  9  2  4 12 27  7 26
  24649088.041    -9975727.727 6  -7959037.906 4
  23039466.120   -11066354.834 7  -9351441.453 8
  24285050.869   -14109702.774 6 -10774922.579 5
  25345437.599    -5732386.802 5  -4634566.296 3
  25005399.622    24931782.598 5   4044734.822 3
  22048246.337   -14864290.799 8 -11259497.745 9
  24762669.121    -7909800.419 5  -6451165.531 4
 94  5 15 20 10 30.0050000  0  7  9  2  4 12 27  7 26
  24633651.158   -10056823.338 6  -8022229.243 4
  23046880.677   -11027401.091 7  -9321087.897 8
  24268626.080   -14196016.591 6 -10842180.051 5
  25329737.138    -5814889.333 5  -4698853.934 3
  25027730.023    25049132.490 5   4136176.141 3
  22055943.688   -14823833.737 8 -11227972.767 9
  24774000.856    -7850255.423 6  -6404766.881 4
 94  5 15 20 11  0.0050000  0  7  9  2  4 12 27  7 26
  24618260.323   -10137700.352 6  -8085250.288 5
  23054334.326   -10988240.349 7  -9290573.059 8
  24252238.045   -14282149.889 6 -10909296.857 5
  25314040.814    -5897385.845 5  -4763136.889 3
  25050095.320    25166649.922 5   4227748.043 3
  22063696.321   -14783073.808 8 -11196211.795 9
  24785384.425    -7790442.412 6  -6358159.406 4
 94  5 15 20 11 30.0050000  0  7  9  2  4 12 27  7 26
  24602918.054   -10218349.802 6  -8148093.980 5
  23061819.335   -10948886.274 7  -9259907.581 8
  24235884.246   -14368091.526 6 -10976264.297 5
  25298347.429    -5979861.666 6  -4827403.790 3
  25072492.455    25284329.602 5   4319446.336 3
  22071515.987   -14741998.755 8 -11164205.271 9
  24796823.666    -7730322.609 6  -6311312.861 4
 94  5 15 20 12  0.0050000  0  7  9  2  4 12 27  7 26
  24587613.050   -10298784.582 6  -8210770.430 5
  23069346.584   -10909345.480 7  -9229096.586 8
  24219566.933   -14453823.555 6 -11043068.406 5
  25282652.934    -6062306.981 5  -4891646.817 3
  25094911.804    25402163.275 5   4411264.669 3
  22079398.371   -14700591.727 8 -11131940.070 9
  24808323.435    -7669881.931 5  -6264216.281 4
 94  5 15 20 12 30.0050000  0  7  9  2  4 12 27  7 26
  24572344.620   -10379006.846 6  -8273281.253 5
  23076907.170   -10869609.277 7  -9198133.346 7
  24203300.044   -14539317.568 6 -11109687.070 5
  25266973.908    -6144713.901 6  -4955859.955 3
  25117360.623    25520154.858 5   4503206.026 3
  22087339.873   -14658840.000 8 -11099406.268 9
  24819891.167    -7609089.326 6  -6216845.513 4
 94  5 15 20 13  0.0050000  0  7  9  2  4 12 27  7 26
  24557117.621   -10459023.065 6  -8335631.533 5
  23084505.919   -10829677.984 7  -9167018.073 7
  24187077.315   -14624553.980 6 -11176104.997 5
  25251299.169    -6227076.864 5  -5020038.918 3
  25139850.004    25638322.933 5   4595284.908 3
  22095353.475   -14616732.106 8 -11066594.932 9
  24831536.785    -7547924.537 6  -6169184.683 4
 94  5 15 20 13 30.0050000  0  7  9  2  4 12 27  7 26
  24541930.015   -10538834.454 6  -8397822.203 5
  23092139.534   -10789551.151 7  -9135750.439 7
  24170907.679   -14709526.814 6 -11242317.542 5
  25235634.834    -6309397.926 5  -5084185.160 3
  25162373.082    25756675.545 5   4687507.593 3
  22103431.713   -14574281.235 8 -11033516.344 9
  24843241.822    -7486400.090 5  -6121243.627 4
 94  5 15 20 14  0.0050000  0  7  9  2  4 12 27  7 26
  24526785.640   -10618429.284 6  -8459844.128 5
  23099820.937   -10749194.307 7  -9104303.556 7
  24154787.209   -14794237.924 6 -11308326.122 5
  25219982.699    -6391675.707 5  -5148297.646 3
  25184937.830    25875243.663 5   4779898.154 3
  22111570.149   -14531507.739 8 -11000186.360 9
  24855014.492    -7424536.510 5  -6073038.298 4
 94  5 15 20 14 30.0050000  0  7  9  2  4 12 27  7 26
  24511682.695   -10697783.034 6  -8521678.209 5
  23107545.509   -10708594.264 7  -9072667.195 7
  24138720.132   -14878690.410 6 -11374133.215 5
  25204333.413    -6473903.357 5  -5212371.153 3
  25207547.668    25994050.373 5   4872474.686 3
  22119770.222   -14488422.627 8 -10966613.557 9
  24866850.687    -7362322.937 5  -6024560.220 4
 94  5 15 20 15  0.0050000  0  7  9  2  4 12 27  7 26
  24496632.005   -10776885.258 6  -8583316.286 5
  23115315.080   -10667763.616 7  -9040851.133 7
  24122692.537   -14962905.229 6 -11439755.097 5
  25188694.170    -6556081.223 5  -5276405.820 3
  25230198.487    26113089.440 5   4965232.235 3
  22128031.992   -14445023.759 8 -10932796.262 9
  24878757.215    -7299776.600 5  -5975822.901 4
 94  5 15 20 15 30.0050000  0  7  9  2  4 12 27  7 26
  24481628.711   -10855727.819 6  -8644752.034 5
  23123134.027   -10626700.824 7  -9008854.162 7
  24106712.310   -15046880.241 6 -11505190.103 5
  25173067.728    -6638209.422 5  -5340401.749 3
  25252888.159    26232339.587 5   5058154.306 3
  22136347.725   -14401307.220 8 -10898731.455 9
  24890717.555    -7236902.603 5  -5926830.223 4
 94  5 15 20 16  0.0050000  0  7  9  2  4 12 27  7 26
  24466676.502   -10934307.432 6  -8705982.894 5
  23130985.472   -10585419.084 7  -8976686.607 7
  24090777.052   -15130622.861 6 -11570444.027 5
  25157444.763    -6720288.861 5  -5404359.710 3
  25275612.308    26351787.219 5   5151230.230 3
  22144732.261   -14357254.050 8 -10864404.317 9
  24902751.284    -7173693.442 5  -5877576.395 4
 94  5 15 20 16 30.0050000  0  8  9  2  4 12 27  7 24 26
  24451770.941   -11012620.674 6  -8767006.160 5
  23138879.397   -10543931.975 7  -8944359.022 7
  24074886.553   -15214125.034 6 -11635510.604 5
  25141839.127    -6802314.993 5  -5468276.176 3
  25298386.222    26471394.775 5   5244430.815 3
  22153182.721   -14312842.716 8 -10829798.115 9
  26169106.105     -232655.85315  -1264392.008 1
  24914840.085    -7110142.353 5  -5828056.155 4
 94  5 15 20 17  0.0050000  0  8  9  2  4 12 27  7 24 26
  24436917.784   -11090675.182 6  -8827827.848 5
  23146816.852   -10502234.293 7  -8911867.318 7
  24059043.511   -15297382.634 6 -11700386.605 5
  25126237.448    -6884287.685 5  -5532150.939 3
  25321165.412    26591136.985 5   5337736.253 3
  22161704.141   -14268072.325 8 -10794912.087 9
  26150020.028     -332948.512 4  -1342542.043 1
  24926990.434    -7046269.497 5  -5778285.145 4
 94  5 15 20 17 30.0050000  0  8  9  2  4 12 27  7 24 26
  24422114.182   -11168470.601 6  -8888447.651 5
  23154795.049   -10460312.062 7  -8879200.691 7
  24043250.114   -15380375.131 7 -11765056.023 6
  25110646.531    -6966198.922 5  -5595977.837 3
  25343984.295    26711019.389 5   5431150.971 3
  22170289.208   -14222952.367 8 -10759753.700 9
  26130926.756     -433296.762 4  -1420735.286 1
  24939217.019    -6982078.321 5  -5728266.104 4
 94  5 15 20 18  0.0050000  0  8  9  2  4 12 27  7 24 26
  24407358.188   -11246018.814 6  -8948874.802 5
  23162813.508   -10418172.950 7  -8846365.039 7
  24027506.244   -15463114.732 6 -11829528.388 6
  25095075.131    -7048052.414 5  -5659759.790 3
  25366817.448    26831037.359 5   5524671.343 3
  22178935.373   -14177507.397 8 -10724342.053 9
  26111814.027     -533693.490 4  -1498966.256 1
  24951479.400    -6917596.336 5  -5678020.511 4
 94  5 15 20 18 30.0050000  0  8  9  2  4 12 27  7 24 26
  24392644.853   -11323322.577 6  -9009111.501 5
  23170872.948   -10375811.098 7  -8813355.811 7
  24011810.819   -15545588.450 6 -11893793.587 5
  25079514.673    -7129842.959 6  -5723492.642 3
  25389678.811    26951197.289 5   5618302.294 3
  22187641.196   -14131758.249 8 -10688693.368 9
  26092708.224     -634118.134 4  -1577219.107 1
  24963804.558    -6852844.452 5  -5627564.531 4
 94  5 15 20 19  0.0050000  0  8  9  2  4 12 27  7 24 26
  24377983.953   -11400378.440 6  -9069155.028 5
  23178974.720   -10333238.070 7  -8780182.054 7
  23996171.456   -15627792.056 6 -11957848.290 5
  25063955.505    -7211571.314 6  -5787177.027 3
  25412577.739    27071509.984 5   5712052.308 2
  22196404.369   -14085715.369 8 -10652815.817 9
  26073593.757     -734582.037 4  -1655502.522 2
  24976173.275    -6787832.959 5  -5576906.290 4
 94  5 15 20 19 30.0050000  0  8  9  2  4 12 27  7 24 26
  24363370.210   -11477179.702 6  -9129000.144 5
  23187109.348   -10290475.435 7  -8746860.543 7
  23980575.323   -15709720.782 6 -12021688.798 5
  25048416.332    -7293235.745 6  -5850811.671 3
  25435502.328    27191991.661 5   5805933.989 2
  22205220.516   -14039369.476 8 -10616702.139 9
  26054469.966     -835084.192 4  -1733815.649 2
  24988593.407    -6722556.688 5  -5526041.736 4
 94  5 15 20 20  0.0050000  0  8  9  2  4 12 27  7 24 26
  24348802.785   -11553707.400 6  -9188632.106 5
  23195287.177   -10247517.256 7  -8713386.660 7
  23965044.185   -15791368.348 6 -12085310.234 5
  25032891.550    -7374831.364 6  -5914392.605 3
  25458461.424    27312643.233 5   5899948.054 2
  22214101.717   -13992710.363 8 -10580344.418 9
  26035324.110     -935613.564 4  -1812150.046 2
  25001066.572    -6657003.986 5  -5474961.755 3
 94  5 15 20 20 30.0050000  0  8  9  2  4 12 27  7 24 26
  24334296.157   -11629951.299 6  -9248042.908 5
  23203500.651   -10204357.050 7  -8679755.360 7
  23949563.982   -15872717.147 6 -12148698.868 5
  25017377.080    -7456353.234 6  -5977916.086 3
  25481456.914    27433463.527 4   5994093.617 2
  22223044.287   -13945717.750 8 -10543726.790 9
  26016207.874    -1036166.648 4  -1890502.925 2
  25013603.742    -6591149.469 5  -5423646.674 3
 94  5 15 20 21  0.0050000  0  8  9  2  4 12 27  7 24 26
  24319844.332   -11705912.455 6  -9307233.394 5
  23211753.697   -10160990.739 7  -8645963.459 7
  23934136.902   -15953768.726 6 -12211855.887 6
  25001880.748    -7537797.181 6  -6041378.912 3
  25504472.461    27554459.620 4   6088376.125 2
  22232055.388   -13898365.729 8 -10506829.135 9
  25997068.284    -1136732.542 4  -1968865.793 2
  25026189.480    -6524979.030 5  -5372085.331 3
 94  5 15 20 21 30.0050000  0  8  9  2  4 12 27  7 24 26
  24305442.123   -11781609.162 6  -9366217.813 5
  23220047.965   -10117402.646 7  -8611998.730 7
  23918772.688   -16034516.982 6 -12274776.550 6
  24986398.956    -7619160.154 6  -6104778.614 3
  25527541.611    27675634.284 4   6182797.800 2
  22241131.575   -13850661.953 8 -10469657.355 9
  25977928.035    -1237290.453 4  -2047222.442 2
  25038848.516    -6458493.815 5  -5320278.725 3
 94  5 15 20 22  0.0050000  0  8  9  2  4 12 27  7 24 26
  24291083.113   -11857043.583 6  -9424997.875 5
  23228386.932   -10073577.836 7  -8577849.539 7
  23903461.928   -16114967.807 7 -12337465.474 6
  24970929.485    -7700443.521 6  -6168116.250 3
  25550632.645    27796963.848 4   6277340.131 2
  22250273.896   -13802622.389 8 -10432223.959 9
  25958793.121    -1337834.458 4  -2125568.217 2
  25051558.577    -6391694.749 5  -5268227.629 3
 94  5 15 20 22 30.0050000  0  8  9  2  4 12 27  7 24 26
  24276772.160   -11932228.593 6  -9483583.584 5
  23236767.960   -10029529.366 7  -8543526.118 7
  23888205.729   -16195131.305 6 -12399930.487 6
  24955479.741    -7781647.863 6  -6231392.349 3
  25573743.915    27918438.354 5   6371995.431 2
  22259478.604   -13754253.437 8 -10394533.875 9
  25939660.846    -1438371.350 4  -2203908.532 2
  25064321.341    -6324591.205 5  -5215939.201 3
 94  5 15 20 23  0.0050000  0  8  9  2  4 12 27  7 24 26
  24262518.438   -12007156.362 6  -9541968.819 6
  23245194.647    -9985267.534 7  -8509036.400 7
  23873004.543   -16275015.167 7 -12462177.592 6
  24940038.601    -7862769.651 6  -6294604.111 3
  25596893.499    28040061.010 5   6466766.141 2
  22268740.302   -13705570.972 8 -10356599.501 9
  25920533.098    -1538897.156 4  -2282240.109 2
  25077151.949    -6257198.584 5  -5163425.546 3
 94  5 15 20 23 30.0050000  0  8  9  2  4 12 27  7 24 26
  24248313.792   -12081805.350 6  -9600136.847 6
  23253653.261    -9940799.395 7  -8474385.917 7
  23857854.021   -16354620.142 6 -12524207.394 6
  24924616.737    -7943808.832 6  -6357751.484 3
  25620058.253    28161807.780 5   6561633.599 2
  22278061.989   -13656600.732 8 -10318440.885 9
  25901404.151    -1639414.938 5  -2360565.488 2
  25090033.431    -6189528.694 5  -5110695.819 3
 94  5 15 20 24  0.0050000  0  8  9  2  4 12 27  7 24 26
  24234169.404   -12156136.535 6  -9658057.254 6
  23262152.137    -9896129.595 7  -8439578.316 7
  23842763.189   -16433945.061 6 -12586018.995 6
  24909214.360    -8024756.437 6  -6420827.483 4
  25643251.307    28283681.738 5   6656600.169 2
  22287437.728   -13607325.530 8 -10280044.627 9
  25882279.761    -1739930.727 5  -2438889.330 2
  25102958.324    -6121580.452 5  -5057749.223 3
 94  5 15 20 24 30.0050000  0  8  9  2  4 12 27  7 24 26
  24220084.554   -12230148.628 7  -9715728.987 6
  23270689.807    -9851266.838 7  -8404620.356 7
  23827725.329   -16512980.231 6 -12647604.799 6
  24893825.084    -8105610.806 6  -6483830.907 3
  25666472.001    28405702.034 5   6751680.763 2
  22296872.826   -13557741.280 8 -10241407.572 9
  25863149.044    -1840457.891 5  -2517222.028 2
  25115936.399    -6053369.713 5  -5004598.096 3
 94  5 15 20 25  0.0050000  0  8  9  2  4 12 27  7 24 26
  24206061.133   -12303830.561 7  -9773143.463 6
  23279267.019    -9806198.197 7  -8369501.947 7
  23812738.554   -16591715.668 6 -12708957.020 6
  24878462.549    -8186373.202 6  -6546762.591 4
  25689719.527    28527865.737 5   6846873.085 2
  22306368.602   -13507853.145 8 -10202533.706 9
  25844021.356    -1940987.664 5  -2595556.765 2
  25128971.045    -5984906.951 5  -4951250.540 3
 94  5 15 20 25 30.0050000  0  8  9  2  4 12 27  7 24 26
  24192102.496   -12377171.622 7  -9830292.337 6
  23287891.029    -9760891.180 7  -8334197.824 7
  23797818.573   -16670122.070 6 -12770052.888 6
  24863110.117    -8267034.815 6  -6609615.754 4
  25712988.548    28650175.047 5   6942178.915 2
  22315920.290   -13457651.243 8 -10163415.356 9
  25824887.582    -2041516.144 5  -2673890.539 2
  25142045.084    -5916182.789 5  -4897699.327 3
 94  5 15 20 26  0.0050000  0  8  9  2  4 12 27  7 24 26
  24178214.370   -12450181.857 7  -9887183.405 6
  23296559.917    -9715322.251 7  -8298689.589 7
  23782966.165   -16748173.056 6 -12830871.792 6
  24847783.437    -8347582.754 6  -6672380.383 4
  25736297.022    28772651.883 5   7037615.206 2
  22325534.244   -13407125.955 8 -10124045.017 9
  25805758.395    -2142042.516 5  -2752222.624 2
  25155183.429    -5847174.689 5  -4843926.857 3
 94  5 15 20 26 30.0050000  0  8  9  2  4 12 27  7 24 26
  24164380.957   -12522886.413 7  -9943836.308 6
  23305284.687    -9669488.702 7  -8262975.160 7
  23768186.157   -16825857.014 6 -12891404.693 6
  24832469.949    -8428018.670 6  -6735057.695 4
  25759636.645    28895285.953 5   7133174.022 2
  22335204.740   -13356302.114 8 -10084442.022 9
  25786641.380    -2242554.170 5  -2830543.332 2
  25168361.856    -5777883.135 5  -4789933.480 3
 94  5 15 20 27  0.0050000  0  8  9  2  4 12 27  7 24 26
  24150602.646   -12595291.546 7 -10000255.873 6
  23314052.987    -9623396.834 7  -8227059.451 7
  23753470.545   -16903175.714 6 -12951652.969 6
  24817186.829    -8508344.626 6  -6797649.277 4
  25782991.436    29018050.278 4   7228834.375 2
  22344932.315   -13305195.827 8 -10044618.962 9
  25767514.651    -2343044.350 5  -2908847.197 2
  25181602.759    -5708303.921 5  -4735716.006 3
 94  5 15 20 27 30.0050000  0  8  9  2  4 12 27  7 24 26
  24136875.988   -12667411.466 7 -10056453.178 6
  23322868.894    -9577066.908 7  -8190958.240 7
  23738825.083   -16980132.685 6 -13011619.420 6
  24801926.194    -8588564.910 6  -6860158.603 4
  25806375.368    29140941.267 4   7324593.393 2
  22354707.048   -13253828.425 8 -10004592.425 9
  25748381.357    -2443533.245 5  -2987150.026 2
  25194896.786    -5638432.384 5  -4681270.708 3
 94  5 15 20 28  0.0050000  0  8  9  2  4 12 27  7 24 26
  24123207.491   -12739255.739 7 -10112435.724 6
  23331727.491    -9530521.663 7  -8154689.244 7
  23724243.598   -17056752.273 6 -13071322.948 6
  24786679.559    -8668677.328 6  -6922583.828 4
  25829793.296    29263958.527 4   7420450.861 2
  22364529.898   -13202200.056 8  -9964362.549 9
  25729264.971    -2544005.959 4  -3065440.334 2
  25208245.675    -5568278.183 5  -4626605.194 3
 94  5 15 20 28 30.0050000  0  8  9  2  4 12 27  7 24 26
  24109589.508   -12810803.121 7 -10168186.910 6
  23340625.811    -9483766.739 7  -8118256.867 7
  23709725.219   -17133055.815 6 -13130780.197 6
  24771456.667    -8748683.745 6  -6984926.447 4
  25853213.922    29387094.148 4   7516400.495 2
  22374407.370   -13150301.544 8  -9923922.165 9
  25710155.060    -2644447.820 5  -3143706.583 2
  25221648.046    -5497863.997 5  -4571737.086 3
 94  5 15 20 29  0.0050000  0  8  9  2  4 12 27  7 24 26
  24096034.752   -12882029.139 7 -10223687.688 6
  23349565.742    -9436789.581 7  -8081651.329 7
  23695263.410   -17209059.107 6 -13190003.514 6
  24756252.933    -8828580.662 6  -7047183.768 4
  25876678.438    29510353.310 4   7612446.454 2
  22384340.514   -13098113.322 8  -9883256.031 9
  25691049.616    -2744861.779 5  -3221951.024 2
  25235093.828    -5427195.685 5  -4516670.950 3
 94  5 15 20 29 30.0050000  0  8  9  2  4 12 27  7 24 26
  24082543.492   -12952937.241 7 -10278940.748 6
  23358549.053    -9389581.410 7  -8044865.759 7
  23680856.764   -17284771.347 7 -13249000.025 6
  24741062.959    -8908367.211 6  -7109355.112 4
  25900156.655    29633743.096 4   7708594.114 2
  22394326.660   -13045628.162 8  -9842358.509 9
  25671936.648    -2845244.700 5  -3300171.337 2
  25248593.992    -5356280.781 5  -4461412.677 3
 94  5 15 20 30  0.0050000  0  8  9  2  4 12 27  7 24 26
  24069110.691   -13023512.458 7 -10333934.411 6
  23367574.785    -9342133.486 7  -8007893.373 7
  23666502.581   -17360184.705 7 -13307763.634 6
  24725909.439    -8988032.977 6  -7171432.279 4
  25923666.259    29757264.457 4   7804844.383 2
  22404373.965   -12992819.982 8  -9801209.283 9
  25652855.038    -2945577.047 5  -3378352.260 2
  25262124.795    -5285128.567 5  -4405969.464 3
